<?xml version="1.0" encoding="UTF-8" standalone="no" ?>
<gpx xmlns="http://www.topografix.com/GPX/1/1" xmlns:xsi="http://www.w3.org/2001/XMLSchema-instance" xsi:schemaLocation="http://www.topografix.com/GPX/1/1 http://www.topografix.com/GPX/1/1/gpx.xsd" version="1.1" creator="VisuGPX - https://www.visugpx.com">
  <metadata>
    <name>1 Canal des Canaux</name>
    <desc><![CDATA[Trouée d\'Arenberg
Canal de la Scrape
La verte de la plaine de la Scarpe
Canal de l\'Escault]]></desc>
  </metadata>
  <trk>
    <name><![CDATA[2012-10-07T11:15:40Z]]></name>
    <trkseg>
      <trkpt lat="50.3312" lon="3.41353">
        <ele>32.8222656</ele>
        <time>2012-10-07T11:15:41Z</time>
      </trkpt>
      <trkpt lat="50.33119" lon="3.41353">
        <ele>33.3028564</ele>
        <time>2012-10-07T11:15:42Z</time>
      </trkpt>
      <trkpt lat="50.33114" lon="3.41353">
        <ele>34.2641602</ele>
        <time>2012-10-07T11:15:46Z</time>
      </trkpt>
      <trkpt lat="50.33109" lon="3.41352">
        <ele>34.2641602</ele>
        <time>2012-10-07T11:15:49Z</time>
      </trkpt>
      <trkpt lat="50.33091" lon="3.41353">
        <ele>34.2641602</ele>
        <time>2012-10-07T11:15:56Z</time>
      </trkpt>
      <trkpt lat="50.3309" lon="3.41353">
        <ele>32.3415527</ele>
        <time>2012-10-07T11:15:59Z</time>
      </trkpt>
      <trkpt lat="50.33089" lon="3.41351">
        <ele>33.3028564</ele>
        <time>2012-10-07T11:16:11Z</time>
      </trkpt>
      <trkpt lat="50.33083" lon="3.4135">
        <ele>32.3415527</ele>
        <time>2012-10-07T11:16:13Z</time>
      </trkpt>
      <trkpt lat="50.3308" lon="3.41335">
        <ele>29.9381104</ele>
        <time>2012-10-07T11:16:17Z</time>
      </trkpt>
      <trkpt lat="50.33082" lon="3.4132">
        <ele>28.9769287</ele>
        <time>2012-10-07T11:16:20Z</time>
      </trkpt>
      <trkpt lat="50.33103" lon="3.41312">
        <ele>26.0928955</ele>
        <time>2012-10-07T11:16:26Z</time>
      </trkpt>
      <trkpt lat="50.33123" lon="3.41311">
        <ele>22.2475586</ele>
        <time>2012-10-07T11:16:31Z</time>
      </trkpt>
      <trkpt lat="50.33139" lon="3.41301">
        <ele>21.7669678</ele>
        <time>2012-10-07T11:16:35Z</time>
      </trkpt>
      <trkpt lat="50.33148" lon="3.41311">
        <ele>22.7282715</ele>
        <time>2012-10-07T11:16:38Z</time>
      </trkpt>
      <trkpt lat="50.33152" lon="3.4132">
        <ele>24.1702881</ele>
        <time>2012-10-07T11:16:40Z</time>
      </trkpt>
      <trkpt lat="50.33171" lon="3.41355">
        <ele>28.4962158</ele>
        <time>2012-10-07T11:16:48Z</time>
      </trkpt>
      <trkpt lat="50.33186" lon="3.41359">
        <ele>29.4575195</ele>
        <time>2012-10-07T11:16:52Z</time>
      </trkpt>
      <trkpt lat="50.33212" lon="3.41362">
        <ele>28.9769287</ele>
        <time>2012-10-07T11:16:58Z</time>
      </trkpt>
      <trkpt lat="50.33217" lon="3.41363">
        <ele>29.4575195</ele>
        <time>2012-10-07T11:16:59Z</time>
      </trkpt>
      <trkpt lat="50.33242" lon="3.41369">
        <ele>28.4962158</ele>
        <time>2012-10-07T11:17:05Z</time>
      </trkpt>
      <trkpt lat="50.33289" lon="3.41368">
        <ele>24.1702881</ele>
        <time>2012-10-07T11:17:14Z</time>
      </trkpt>
      <trkpt lat="50.33331" lon="3.41371">
        <ele>21.7669678</ele>
        <time>2012-10-07T11:17:22Z</time>
      </trkpt>
      <trkpt lat="50.3335" lon="3.41359">
        <ele>19.3637695</ele>
        <time>2012-10-07T11:17:26Z</time>
      </trkpt>
      <trkpt lat="50.33353" lon="3.41334">
        <ele>19.3637695</ele>
        <time>2012-10-07T11:17:29Z</time>
      </trkpt>
      <trkpt lat="50.33352" lon="3.41325">
        <ele>19.3637695</ele>
        <time>2012-10-07T11:17:30Z</time>
      </trkpt>
      <trkpt lat="50.33338" lon="3.41246">
        <ele>21.7669678</ele>
        <time>2012-10-07T11:17:39Z</time>
      </trkpt>
      <trkpt lat="50.33328" lon="3.4119">
        <ele>25.6123047</ele>
        <time>2012-10-07T11:17:46Z</time>
      </trkpt>
      <trkpt lat="50.33317" lon="3.4113">
        <ele>28.0155029</ele>
        <time>2012-10-07T11:17:53Z</time>
      </trkpt>
      <trkpt lat="50.33304" lon="3.41062">
        <ele>29.9381104</ele>
        <time>2012-10-07T11:18:01Z</time>
      </trkpt>
      <trkpt lat="50.33295" lon="3.41017">
        <ele>30.4188232</ele>
        <time>2012-10-07T11:18:07Z</time>
      </trkpt>
      <trkpt lat="50.33283" lon="3.40945">
        <ele>31.380127</ele>
        <time>2012-10-07T11:18:16Z</time>
      </trkpt>
      <trkpt lat="50.33272" lon="3.40871">
        <ele>33.3028564</ele>
        <time>2012-10-07T11:18:25Z</time>
      </trkpt>
      <trkpt lat="50.3326" lon="3.40797">
        <ele>33.7834473</ele>
        <time>2012-10-07T11:18:34Z</time>
      </trkpt>
      <trkpt lat="50.33249" lon="3.40722">
        <ele>34.744873</ele>
        <time>2012-10-07T11:18:43Z</time>
      </trkpt>
      <trkpt lat="50.33236" lon="3.40626">
        <ele>35.7060547</ele>
        <time>2012-10-07T11:18:54Z</time>
      </trkpt>
      <trkpt lat="50.33227" lon="3.40555">
        <ele>34.744873</ele>
        <time>2012-10-07T11:19:02Z</time>
      </trkpt>
      <trkpt lat="50.33225" lon="3.40539">
        <ele>34.2641602</ele>
        <time>2012-10-07T11:19:04Z</time>
      </trkpt>
      <trkpt lat="50.33225" lon="3.40518">
        <ele>34.2641602</ele>
        <time>2012-10-07T11:19:08Z</time>
      </trkpt>
      <trkpt lat="50.33232" lon="3.4052">
        <ele>34.2641602</ele>
        <time>2012-10-07T11:19:11Z</time>
      </trkpt>
      <trkpt lat="50.33235" lon="3.40524">
        <ele>34.2641602</ele>
        <time>2012-10-07T11:19:12Z</time>
      </trkpt>
      <trkpt lat="50.33263" lon="3.40557">
        <ele>34.2641602</ele>
        <time>2012-10-07T11:19:19Z</time>
      </trkpt>
      <trkpt lat="50.33302" lon="3.40603">
        <ele>33.7834473</ele>
        <time>2012-10-07T11:19:28Z</time>
      </trkpt>
      <trkpt lat="50.33338" lon="3.40646">
        <ele>32.8222656</ele>
        <time>2012-10-07T11:19:36Z</time>
      </trkpt>
      <trkpt lat="50.33376" lon="3.40688">
        <ele>31.380127</ele>
        <time>2012-10-07T11:19:44Z</time>
      </trkpt>
      <trkpt lat="50.33409" lon="3.40726">
        <ele>31.380127</ele>
        <time>2012-10-07T11:19:51Z</time>
      </trkpt>
      <trkpt lat="50.33419" lon="3.40737">
        <ele>31.380127</ele>
        <time>2012-10-07T11:19:53Z</time>
      </trkpt>
      <trkpt lat="50.33454" lon="3.40775">
        <ele>29.4575195</ele>
        <time>2012-10-07T11:20:00Z</time>
      </trkpt>
      <trkpt lat="50.33488" lon="3.40813">
        <ele>28.0155029</ele>
        <time>2012-10-07T11:20:06Z</time>
      </trkpt>
      <trkpt lat="50.33521" lon="3.40852">
        <ele>27.5349121</ele>
        <time>2012-10-07T11:20:12Z</time>
      </trkpt>
      <trkpt lat="50.33561" lon="3.40894">
        <ele>28.9769287</ele>
        <time>2012-10-07T11:20:20Z</time>
      </trkpt>
      <trkpt lat="50.33604" lon="3.40941">
        <ele>32.8222656</ele>
        <time>2012-10-07T11:20:29Z</time>
      </trkpt>
      <trkpt lat="50.33652" lon="3.40995">
        <ele>36.1867676</ele>
        <time>2012-10-07T11:20:39Z</time>
      </trkpt>
      <trkpt lat="50.337" lon="3.41049">
        <ele>36.6674805</ele>
        <time>2012-10-07T11:20:49Z</time>
      </trkpt>
      <trkpt lat="50.33748" lon="3.41104">
        <ele>36.6674805</ele>
        <time>2012-10-07T11:20:59Z</time>
      </trkpt>
      <trkpt lat="50.33778" lon="3.41149">
        <ele>37.1480713</ele>
        <time>2012-10-07T11:21:06Z</time>
      </trkpt>
      <trkpt lat="50.33812" lon="3.41217">
        <ele>37.6286621</ele>
        <time>2012-10-07T11:21:15Z</time>
      </trkpt>
      <trkpt lat="50.33848" lon="3.41293">
        <ele>37.6286621</ele>
        <time>2012-10-07T11:21:25Z</time>
      </trkpt>
      <trkpt lat="50.33885" lon="3.41356">
        <ele>40.0321045</ele>
        <time>2012-10-07T11:21:34Z</time>
      </trkpt>
      <trkpt lat="50.33926" lon="3.41412">
        <ele>40.0321045</ele>
        <time>2012-10-07T11:21:43Z</time>
      </trkpt>
      <trkpt lat="50.33961" lon="3.41462">
        <ele>39.5512695</ele>
        <time>2012-10-07T11:21:51Z</time>
      </trkpt>
      <trkpt lat="50.33982" lon="3.41509">
        <ele>40.0321045</ele>
        <time>2012-10-07T11:21:57Z</time>
      </trkpt>
      <trkpt lat="50.34014" lon="3.4157">
        <ele>39.5512695</ele>
        <time>2012-10-07T11:22:05Z</time>
      </trkpt>
      <trkpt lat="50.34064" lon="3.41648">
        <ele>39.5512695</ele>
        <time>2012-10-07T11:22:16Z</time>
      </trkpt>
      <trkpt lat="50.34108" lon="3.41718">
        <ele>39.5512695</ele>
        <time>2012-10-07T11:22:26Z</time>
      </trkpt>
      <trkpt lat="50.34145" lon="3.41788">
        <ele>39.0706787</ele>
        <time>2012-10-07T11:22:35Z</time>
      </trkpt>
      <trkpt lat="50.34155" lon="3.41814">
        <ele>39.0706787</ele>
        <time>2012-10-07T11:22:38Z</time>
      </trkpt>
      <trkpt lat="50.34183" lon="3.41901">
        <ele>38.5900879</ele>
        <time>2012-10-07T11:22:48Z</time>
      </trkpt>
      <trkpt lat="50.34208" lon="3.41956">
        <ele>38.5900879</ele>
        <time>2012-10-07T11:22:55Z</time>
      </trkpt>
      <trkpt lat="50.3424" lon="3.42">
        <ele>38.109375</ele>
        <time>2012-10-07T11:23:02Z</time>
      </trkpt>
      <trkpt lat="50.34266" lon="3.4202">
        <ele>38.5900879</ele>
        <time>2012-10-07T11:23:07Z</time>
      </trkpt>
      <trkpt lat="50.34282" lon="3.42033">
        <ele>38.5900879</ele>
        <time>2012-10-07T11:23:11Z</time>
      </trkpt>
      <trkpt lat="50.34291" lon="3.42039">
        <ele>38.109375</ele>
        <time>2012-10-07T11:23:14Z</time>
      </trkpt>
      <trkpt lat="50.34293" lon="3.42045">
        <ele>38.5900879</ele>
        <time>2012-10-07T11:23:19Z</time>
      </trkpt>
      <trkpt lat="50.34297" lon="3.42059">
        <ele>35.7060547</ele>
        <time>2012-10-07T11:23:31Z</time>
      </trkpt>
      <trkpt lat="50.34306" lon="3.42084">
        <ele>35.7060547</ele>
        <time>2012-10-07T11:23:35Z</time>
      </trkpt>
      <trkpt lat="50.34322" lon="3.42132">
        <ele>35.7060547</ele>
        <time>2012-10-07T11:23:43Z</time>
      </trkpt>
      <trkpt lat="50.34336" lon="3.42174">
        <ele>35.7060547</ele>
        <time>2012-10-07T11:23:49Z</time>
      </trkpt>
      <trkpt lat="50.34358" lon="3.42236">
        <ele>35.7060547</ele>
        <time>2012-10-07T11:23:57Z</time>
      </trkpt>
      <trkpt lat="50.34387" lon="3.42318">
        <ele>35.2254639</ele>
        <time>2012-10-07T11:24:07Z</time>
      </trkpt>
      <trkpt lat="50.34421" lon="3.42415">
        <ele>35.2254639</ele>
        <time>2012-10-07T11:24:19Z</time>
      </trkpt>
      <trkpt lat="50.34449" lon="3.42497">
        <ele>34.744873</ele>
        <time>2012-10-07T11:24:29Z</time>
      </trkpt>
      <trkpt lat="50.34488" lon="3.42601">
        <ele>33.7834473</ele>
        <time>2012-10-07T11:24:42Z</time>
      </trkpt>
      <trkpt lat="50.34523" lon="3.42699">
        <ele>33.3028564</ele>
        <time>2012-10-07T11:24:54Z</time>
      </trkpt>
      <trkpt lat="50.34559" lon="3.42797">
        <ele>32.8222656</ele>
        <time>2012-10-07T11:25:06Z</time>
      </trkpt>
      <trkpt lat="50.34592" lon="3.42888">
        <ele>33.3028564</ele>
        <time>2012-10-07T11:25:17Z</time>
      </trkpt>
      <trkpt lat="50.34627" lon="3.42986">
        <ele>33.7834473</ele>
        <time>2012-10-07T11:25:29Z</time>
      </trkpt>
      <trkpt lat="50.34654" lon="3.43063">
        <ele>33.7834473</ele>
        <time>2012-10-07T11:25:38Z</time>
      </trkpt>
      <trkpt lat="50.34684" lon="3.43146">
        <ele>33.3028564</ele>
        <time>2012-10-07T11:25:48Z</time>
      </trkpt>
      <trkpt lat="50.34724" lon="3.43254">
        <ele>32.3415527</ele>
        <time>2012-10-07T11:26:01Z</time>
      </trkpt>
      <trkpt lat="50.34754" lon="3.43338">
        <ele>29.4575195</ele>
        <time>2012-10-07T11:26:11Z</time>
      </trkpt>
      <trkpt lat="50.34787" lon="3.4343">
        <ele>28.9769287</ele>
        <time>2012-10-07T11:26:22Z</time>
      </trkpt>
      <trkpt lat="50.3481" lon="3.43495">
        <ele>29.4575195</ele>
        <time>2012-10-07T11:26:30Z</time>
      </trkpt>
      <trkpt lat="50.34844" lon="3.43594">
        <ele>30.4188232</ele>
        <time>2012-10-07T11:26:42Z</time>
      </trkpt>
      <trkpt lat="50.34861" lon="3.43639">
        <ele>31.380127</ele>
        <time>2012-10-07T11:26:48Z</time>
      </trkpt>
      <trkpt lat="50.34883" lon="3.43702">
        <ele>36.6674805</ele>
        <time>2012-10-07T11:26:55Z</time>
      </trkpt>
      <trkpt lat="50.3491" lon="3.43778">
        <ele>37.6286621</ele>
        <time>2012-10-07T11:27:04Z</time>
      </trkpt>
      <trkpt lat="50.34933" lon="3.43841">
        <ele>37.6286621</ele>
        <time>2012-10-07T11:27:12Z</time>
      </trkpt>
      <trkpt lat="50.34952" lon="3.43896">
        <ele>37.1480713</ele>
        <time>2012-10-07T11:27:19Z</time>
      </trkpt>
      <trkpt lat="50.34977" lon="3.43968">
        <ele>37.6286621</ele>
        <time>2012-10-07T11:27:28Z</time>
      </trkpt>
      <trkpt lat="50.35" lon="3.44033">
        <ele>37.6286621</ele>
        <time>2012-10-07T11:27:36Z</time>
      </trkpt>
      <trkpt lat="50.35032" lon="3.44124">
        <ele>35.7060547</ele>
        <time>2012-10-07T11:27:47Z</time>
      </trkpt>
      <trkpt lat="50.35055" lon="3.44187">
        <ele>35.2254639</ele>
        <time>2012-10-07T11:27:55Z</time>
      </trkpt>
      <trkpt lat="50.35083" lon="3.44265">
        <ele>34.2641602</ele>
        <time>2012-10-07T11:28:05Z</time>
      </trkpt>
      <trkpt lat="50.35114" lon="3.44354">
        <ele>35.2254639</ele>
        <time>2012-10-07T11:28:17Z</time>
      </trkpt>
      <trkpt lat="50.35116" lon="3.44361">
        <ele>35.2254639</ele>
        <time>2012-10-07T11:28:18Z</time>
      </trkpt>
      <trkpt lat="50.35128" lon="3.4438">
        <ele>35.7060547</ele>
        <time>2012-10-07T11:28:22Z</time>
      </trkpt>
      <trkpt lat="50.35134" lon="3.44383">
        <ele>35.7060547</ele>
        <time>2012-10-07T11:28:24Z</time>
      </trkpt>
      <trkpt lat="50.35141" lon="3.44382">
        <ele>37.6286621</ele>
        <time>2012-10-07T11:28:28Z</time>
      </trkpt>
      <trkpt lat="50.35142" lon="3.44384">
        <ele>38.109375</ele>
        <time>2012-10-07T11:28:30Z</time>
      </trkpt>
      <trkpt lat="50.35151" lon="3.44391">
        <ele>38.5900879</ele>
        <time>2012-10-07T11:28:34Z</time>
      </trkpt>
      <trkpt lat="50.35167" lon="3.44397">
        <ele>39.0706787</ele>
        <time>2012-10-07T11:28:38Z</time>
      </trkpt>
      <trkpt lat="50.35171" lon="3.444">
        <ele>39.0706787</ele>
        <time>2012-10-07T11:28:39Z</time>
      </trkpt>
      <trkpt lat="50.35218" lon="3.44414">
        <ele>39.5512695</ele>
        <time>2012-10-07T11:28:48Z</time>
      </trkpt>
      <trkpt lat="50.35233" lon="3.4442">
        <ele>39.5512695</ele>
        <time>2012-10-07T11:28:51Z</time>
      </trkpt>
      <trkpt lat="50.35248" lon="3.44425">
        <ele>40.0321045</ele>
        <time>2012-10-07T11:28:54Z</time>
      </trkpt>
      <trkpt lat="50.3526" lon="3.44446">
        <ele>40.9934082</ele>
        <time>2012-10-07T11:28:58Z</time>
      </trkpt>
      <trkpt lat="50.35269" lon="3.445">
        <ele>41.9547119</ele>
        <time>2012-10-07T11:29:05Z</time>
      </trkpt>
      <trkpt lat="50.35272" lon="3.44545">
        <ele>45.3192139</ele>
        <time>2012-10-07T11:29:10Z</time>
      </trkpt>
      <trkpt lat="50.35268" lon="3.44613">
        <ele>47.7225342</ele>
        <time>2012-10-07T11:29:18Z</time>
      </trkpt>
      <trkpt lat="50.35266" lon="3.44664">
        <ele>48.2033691</ele>
        <time>2012-10-07T11:29:24Z</time>
      </trkpt>
      <trkpt lat="50.35266" lon="3.44689">
        <ele>48.2033691</ele>
        <time>2012-10-07T11:29:27Z</time>
      </trkpt>
      <trkpt lat="50.35268" lon="3.44741">
        <ele>48.68396</ele>
        <time>2012-10-07T11:29:33Z</time>
      </trkpt>
      <trkpt lat="50.35265" lon="3.44783">
        <ele>48.2033691</ele>
        <time>2012-10-07T11:29:38Z</time>
      </trkpt>
      <trkpt lat="50.35271" lon="3.44872">
        <ele>52.5291748</ele>
        <time>2012-10-07T11:29:48Z</time>
      </trkpt>
      <trkpt lat="50.35268" lon="3.44915">
        <ele>52.048584</ele>
        <time>2012-10-07T11:29:53Z</time>
      </trkpt>
      <trkpt lat="50.35272" lon="3.44941">
        <ele>53.0097656</ele>
        <time>2012-10-07T11:29:56Z</time>
      </trkpt>
      <trkpt lat="50.3529" lon="3.4496">
        <ele>54.4517822</ele>
        <time>2012-10-07T11:30:00Z</time>
      </trkpt>
      <trkpt lat="50.35313" lon="3.44962">
        <ele>53.9711914</ele>
        <time>2012-10-07T11:30:04Z</time>
      </trkpt>
      <trkpt lat="50.35373" lon="3.44946">
        <ele>51.0871582</ele>
        <time>2012-10-07T11:30:14Z</time>
      </trkpt>
      <trkpt lat="50.35409" lon="3.44937">
        <ele>50.1259766</ele>
        <time>2012-10-07T11:30:20Z</time>
      </trkpt>
      <trkpt lat="50.35458" lon="3.44928">
        <ele>43.3966064</ele>
        <time>2012-10-07T11:30:28Z</time>
      </trkpt>
      <trkpt lat="50.35475" lon="3.44928">
        <ele>41.473999</ele>
        <time>2012-10-07T11:30:32Z</time>
      </trkpt>
      <trkpt lat="50.35478" lon="3.44928">
        <ele>40.9934082</ele>
        <time>2012-10-07T11:30:33Z</time>
      </trkpt>
      <trkpt lat="50.35493" lon="3.44929">
        <ele>40.9934082</ele>
        <time>2012-10-07T11:30:37Z</time>
      </trkpt>
      <trkpt lat="50.35531" lon="3.44921">
        <ele>41.9547119</ele>
        <time>2012-10-07T11:30:44Z</time>
      </trkpt>
      <trkpt lat="50.3558" lon="3.4491">
        <ele>40.5128174</ele>
        <time>2012-10-07T11:30:52Z</time>
      </trkpt>
      <trkpt lat="50.35629" lon="3.44889">
        <ele>38.5900879</ele>
        <time>2012-10-07T11:31:00Z</time>
      </trkpt>
      <trkpt lat="50.35653" lon="3.44878">
        <ele>38.109375</ele>
        <time>2012-10-07T11:31:05Z</time>
      </trkpt>
      <trkpt lat="50.35657" lon="3.44876">
        <ele>37.1480713</ele>
        <time>2012-10-07T11:31:06Z</time>
      </trkpt>
      <trkpt lat="50.35674" lon="3.44851">
        <ele>35.7060547</ele>
        <time>2012-10-07T11:31:11Z</time>
      </trkpt>
      <trkpt lat="50.35679" lon="3.44847">
        <ele>35.2254639</ele>
        <time>2012-10-07T11:31:12Z</time>
      </trkpt>
      <trkpt lat="50.35714" lon="3.44812">
        <ele>34.744873</ele>
        <time>2012-10-07T11:31:19Z</time>
      </trkpt>
      <trkpt lat="50.35752" lon="3.44779">
        <ele>33.3028564</ele>
        <time>2012-10-07T11:31:26Z</time>
      </trkpt>
      <trkpt lat="50.35796" lon="3.4474">
        <ele>30.4188232</ele>
        <time>2012-10-07T11:31:34Z</time>
      </trkpt>
      <trkpt lat="50.35812" lon="3.44726">
        <ele>30.4188232</ele>
        <time>2012-10-07T11:31:37Z</time>
      </trkpt>
      <trkpt lat="50.3587" lon="3.44679">
        <ele>28.4962158</ele>
        <time>2012-10-07T11:31:47Z</time>
      </trkpt>
      <trkpt lat="50.35923" lon="3.44643">
        <ele>24.651001</ele>
        <time>2012-10-07T11:31:56Z</time>
      </trkpt>
      <trkpt lat="50.35939" lon="3.44634">
        <ele>25.1317139</ele>
        <time>2012-10-07T11:32:00Z</time>
      </trkpt>
      <trkpt lat="50.35958" lon="3.44621">
        <ele>27.0543213</ele>
        <time>2012-10-07T11:32:05Z</time>
      </trkpt>
      <trkpt lat="50.36" lon="3.44597">
        <ele>28.0155029</ele>
        <time>2012-10-07T11:32:13Z</time>
      </trkpt>
      <trkpt lat="50.3604" lon="3.44576">
        <ele>27.5349121</ele>
        <time>2012-10-07T11:32:20Z</time>
      </trkpt>
      <trkpt lat="50.36086" lon="3.44554">
        <ele>25.1317139</ele>
        <time>2012-10-07T11:32:28Z</time>
      </trkpt>
      <trkpt lat="50.3612" lon="3.44538">
        <ele>24.651001</ele>
        <time>2012-10-07T11:32:34Z</time>
      </trkpt>
      <trkpt lat="50.36159" lon="3.44518">
        <ele>23.2089844</ele>
        <time>2012-10-07T11:32:41Z</time>
      </trkpt>
      <trkpt lat="50.36203" lon="3.44493">
        <ele>23.6895752</ele>
        <time>2012-10-07T11:32:49Z</time>
      </trkpt>
      <trkpt lat="50.36251" lon="3.44465">
        <ele>25.6123047</ele>
        <time>2012-10-07T11:32:58Z</time>
      </trkpt>
      <trkpt lat="50.36289" lon="3.44435">
        <ele>26.0928955</ele>
        <time>2012-10-07T11:33:05Z</time>
      </trkpt>
      <trkpt lat="50.36311" lon="3.44391">
        <ele>26.5736084</ele>
        <time>2012-10-07T11:33:11Z</time>
      </trkpt>
      <trkpt lat="50.3632" lon="3.44366">
        <ele>28.0155029</ele>
        <time>2012-10-07T11:33:14Z</time>
      </trkpt>
      <trkpt lat="50.36335" lon="3.44343">
        <ele>30.4188232</ele>
        <time>2012-10-07T11:33:18Z</time>
      </trkpt>
      <trkpt lat="50.36355" lon="3.44344">
        <ele>32.3415527</ele>
        <time>2012-10-07T11:33:22Z</time>
      </trkpt>
      <trkpt lat="50.36364" lon="3.44347">
        <ele>33.3028564</ele>
        <time>2012-10-07T11:33:24Z</time>
      </trkpt>
      <trkpt lat="50.36373" lon="3.4435">
        <ele>34.744873</ele>
        <time>2012-10-07T11:33:26Z</time>
      </trkpt>
      <trkpt lat="50.36389" lon="3.44354">
        <ele>35.7060547</ele>
        <time>2012-10-07T11:33:29Z</time>
      </trkpt>
      <trkpt lat="50.36399" lon="3.44357">
        <ele>36.6674805</ele>
        <time>2012-10-07T11:33:31Z</time>
      </trkpt>
      <trkpt lat="50.36432" lon="3.44364">
        <ele>36.6674805</ele>
        <time>2012-10-07T11:33:37Z</time>
      </trkpt>
      <trkpt lat="50.36453" lon="3.44364">
        <ele>36.6674805</ele>
        <time>2012-10-07T11:33:41Z</time>
      </trkpt>
      <trkpt lat="50.36476" lon="3.44356">
        <ele>36.6674805</ele>
        <time>2012-10-07T11:33:46Z</time>
      </trkpt>
      <trkpt lat="50.36481" lon="3.44346">
        <ele>35.7060547</ele>
        <time>2012-10-07T11:33:50Z</time>
      </trkpt>
      <trkpt lat="50.36479" lon="3.44326">
        <ele>37.1480713</ele>
        <time>2012-10-07T11:33:54Z</time>
      </trkpt>
      <trkpt lat="50.36477" lon="3.4428">
        <ele>38.5900879</ele>
        <time>2012-10-07T11:34:00Z</time>
      </trkpt>
      <trkpt lat="50.36475" lon="3.44216">
        <ele>39.0706787</ele>
        <time>2012-10-07T11:34:07Z</time>
      </trkpt>
      <trkpt lat="50.36472" lon="3.44104">
        <ele>38.5900879</ele>
        <time>2012-10-07T11:34:18Z</time>
      </trkpt>
      <trkpt lat="50.3647" lon="3.43999">
        <ele>37.6286621</ele>
        <time>2012-10-07T11:34:28Z</time>
      </trkpt>
      <trkpt lat="50.36467" lon="3.43893">
        <ele>37.1480713</ele>
        <time>2012-10-07T11:34:38Z</time>
      </trkpt>
      <trkpt lat="50.36466" lon="3.43812">
        <ele>36.1867676</ele>
        <time>2012-10-07T11:34:46Z</time>
      </trkpt>
      <trkpt lat="50.36472" lon="3.4373">
        <ele>33.7834473</ele>
        <time>2012-10-07T11:34:54Z</time>
      </trkpt>
      <trkpt lat="50.36476" lon="3.43653">
        <ele>31.380127</ele>
        <time>2012-10-07T11:35:01Z</time>
      </trkpt>
      <trkpt lat="50.3649" lon="3.43618">
        <ele>31.380127</ele>
        <time>2012-10-07T11:35:05Z</time>
      </trkpt>
      <trkpt lat="50.36512" lon="3.4358">
        <ele>31.380127</ele>
        <time>2012-10-07T11:35:10Z</time>
      </trkpt>
      <trkpt lat="50.36514" lon="3.43549">
        <ele>31.380127</ele>
        <time>2012-10-07T11:35:13Z</time>
      </trkpt>
      <trkpt lat="50.36512" lon="3.43496">
        <ele>31.380127</ele>
        <time>2012-10-07T11:35:18Z</time>
      </trkpt>
      <trkpt lat="50.36524" lon="3.43446">
        <ele>31.380127</ele>
        <time>2012-10-07T11:35:23Z</time>
      </trkpt>
      <trkpt lat="50.36548" lon="3.43382">
        <ele>30.4188232</ele>
        <time>2012-10-07T11:35:30Z</time>
      </trkpt>
      <trkpt lat="50.36571" lon="3.43348">
        <ele>33.3028564</ele>
        <time>2012-10-07T11:35:35Z</time>
      </trkpt>
      <trkpt lat="50.36582" lon="3.43338">
        <ele>33.7834473</ele>
        <time>2012-10-07T11:35:37Z</time>
      </trkpt>
      <trkpt lat="50.36592" lon="3.43325">
        <ele>34.2641602</ele>
        <time>2012-10-07T11:35:39Z</time>
      </trkpt>
      <trkpt lat="50.36606" lon="3.43286">
        <ele>35.2254639</ele>
        <time>2012-10-07T11:35:44Z</time>
      </trkpt>
      <trkpt lat="50.36613" lon="3.43278">
        <ele>36.6674805</ele>
        <time>2012-10-07T11:35:46Z</time>
      </trkpt>
      <trkpt lat="50.36621" lon="3.43283">
        <ele>38.109375</ele>
        <time>2012-10-07T11:35:49Z</time>
      </trkpt>
      <trkpt lat="50.36629" lon="3.43289">
        <ele>38.5900879</ele>
        <time>2012-10-07T11:35:51Z</time>
      </trkpt>
      <trkpt lat="50.36653" lon="3.43311">
        <ele>39.5512695</ele>
        <time>2012-10-07T11:35:57Z</time>
      </trkpt>
      <trkpt lat="50.36661" lon="3.43319">
        <ele>40.0321045</ele>
        <time>2012-10-07T11:35:59Z</time>
      </trkpt>
      <trkpt lat="50.36682" lon="3.43336">
        <ele>41.473999</ele>
        <time>2012-10-07T11:36:05Z</time>
      </trkpt>
      <trkpt lat="50.36684" lon="3.43339">
        <ele>41.9547119</ele>
        <time>2012-10-07T11:36:06Z</time>
      </trkpt>
      <trkpt lat="50.36704" lon="3.43354">
        <ele>42.9160156</ele>
        <time>2012-10-07T11:36:13Z</time>
      </trkpt>
      <trkpt lat="50.36708" lon="3.43356">
        <ele>42.9160156</ele>
        <time>2012-10-07T11:36:14Z</time>
      </trkpt>
      <trkpt lat="50.36718" lon="3.43344">
        <ele>43.3966064</ele>
        <time>2012-10-07T11:36:18Z</time>
      </trkpt>
      <trkpt lat="50.36734" lon="3.43292">
        <ele>41.473999</ele>
        <time>2012-10-07T11:36:26Z</time>
      </trkpt>
      <trkpt lat="50.3675" lon="3.43238">
        <ele>39.0706787</ele>
        <time>2012-10-07T11:36:34Z</time>
      </trkpt>
      <trkpt lat="50.36759" lon="3.43206">
        <ele>37.6286621</ele>
        <time>2012-10-07T11:36:40Z</time>
      </trkpt>
      <trkpt lat="50.3677" lon="3.43168">
        <ele>36.1867676</ele>
        <time>2012-10-07T11:36:49Z</time>
      </trkpt>
      <trkpt lat="50.36777" lon="3.43141">
        <ele>36.1867676</ele>
        <time>2012-10-07T11:36:55Z</time>
      </trkpt>
      <trkpt lat="50.36783" lon="3.43117">
        <ele>36.6674805</ele>
        <time>2012-10-07T11:37:01Z</time>
      </trkpt>
      <trkpt lat="50.36789" lon="3.43098">
        <ele>37.1480713</ele>
        <time>2012-10-07T11:37:06Z</time>
      </trkpt>
      <trkpt lat="50.36793" lon="3.43078">
        <ele>37.1480713</ele>
        <time>2012-10-07T11:37:11Z</time>
      </trkpt>
      <trkpt lat="50.36799" lon="3.4306">
        <ele>37.6286621</ele>
        <time>2012-10-07T11:37:17Z</time>
      </trkpt>
      <trkpt lat="50.36804" lon="3.43043">
        <ele>39.0706787</ele>
        <time>2012-10-07T11:37:22Z</time>
      </trkpt>
      <trkpt lat="50.36811" lon="3.4302">
        <ele>39.0706787</ele>
        <time>2012-10-07T11:37:28Z</time>
      </trkpt>
      <trkpt lat="50.36817" lon="3.42994">
        <ele>39.0706787</ele>
        <time>2012-10-07T11:37:34Z</time>
      </trkpt>
      <trkpt lat="50.36826" lon="3.42964">
        <ele>38.5900879</ele>
        <time>2012-10-07T11:37:41Z</time>
      </trkpt>
      <trkpt lat="50.36834" lon="3.42927">
        <ele>36.6674805</ele>
        <time>2012-10-07T11:37:47Z</time>
      </trkpt>
      <trkpt lat="50.36841" lon="3.42899">
        <ele>35.7060547</ele>
        <time>2012-10-07T11:37:51Z</time>
      </trkpt>
      <trkpt lat="50.36852" lon="3.42886">
        <ele>36.1867676</ele>
        <time>2012-10-07T11:37:55Z</time>
      </trkpt>
      <trkpt lat="50.36892" lon="3.429">
        <ele>37.6286621</ele>
        <time>2012-10-07T11:38:03Z</time>
      </trkpt>
      <trkpt lat="50.36923" lon="3.42912">
        <ele>38.5900879</ele>
        <time>2012-10-07T11:38:09Z</time>
      </trkpt>
      <trkpt lat="50.36973" lon="3.4293">
        <ele>40.0321045</ele>
        <time>2012-10-07T11:38:18Z</time>
      </trkpt>
      <trkpt lat="50.37017" lon="3.42955">
        <ele>40.9934082</ele>
        <time>2012-10-07T11:38:26Z</time>
      </trkpt>
      <trkpt lat="50.37063" lon="3.42981">
        <ele>40.0321045</ele>
        <time>2012-10-07T11:38:34Z</time>
      </trkpt>
      <trkpt lat="50.37104" lon="3.43">
        <ele>39.0706787</ele>
        <time>2012-10-07T11:38:41Z</time>
      </trkpt>
      <trkpt lat="50.37136" lon="3.43029">
        <ele>38.109375</ele>
        <time>2012-10-07T11:38:47Z</time>
      </trkpt>
      <trkpt lat="50.37149" lon="3.43037">
        <ele>38.109375</ele>
        <time>2012-10-07T11:38:49Z</time>
      </trkpt>
      <trkpt lat="50.37182" lon="3.43043">
        <ele>37.6286621</ele>
        <time>2012-10-07T11:38:54Z</time>
      </trkpt>
      <trkpt lat="50.37214" lon="3.43061">
        <ele>38.109375</ele>
        <time>2012-10-07T11:38:59Z</time>
      </trkpt>
      <trkpt lat="50.37248" lon="3.43066">
        <ele>38.109375</ele>
        <time>2012-10-07T11:39:04Z</time>
      </trkpt>
      <trkpt lat="50.37281" lon="3.43058">
        <ele>37.6286621</ele>
        <time>2012-10-07T11:39:09Z</time>
      </trkpt>
      <trkpt lat="50.37353" lon="3.43066">
        <ele>38.109375</ele>
        <time>2012-10-07T11:39:20Z</time>
      </trkpt>
      <trkpt lat="50.37398" lon="3.43071">
        <ele>38.109375</ele>
        <time>2012-10-07T11:39:27Z</time>
      </trkpt>
      <trkpt lat="50.37448" lon="3.4307">
        <ele>37.1480713</ele>
        <time>2012-10-07T11:39:35Z</time>
      </trkpt>
      <trkpt lat="50.37485" lon="3.43052">
        <ele>36.6674805</ele>
        <time>2012-10-07T11:39:41Z</time>
      </trkpt>
      <trkpt lat="50.37534" lon="3.43027">
        <ele>34.744873</ele>
        <time>2012-10-07T11:39:49Z</time>
      </trkpt>
      <trkpt lat="50.37598" lon="3.43009">
        <ele>33.3028564</ele>
        <time>2012-10-07T11:39:59Z</time>
      </trkpt>
      <trkpt lat="50.37654" lon="3.43002">
        <ele>32.8222656</ele>
        <time>2012-10-07T11:40:08Z</time>
      </trkpt>
      <trkpt lat="50.37703" lon="3.42994">
        <ele>32.8222656</ele>
        <time>2012-10-07T11:40:16Z</time>
      </trkpt>
      <trkpt lat="50.37747" lon="3.42977">
        <ele>33.3028564</ele>
        <time>2012-10-07T11:40:23Z</time>
      </trkpt>
      <trkpt lat="50.37759" lon="3.42974">
        <ele>33.3028564</ele>
        <time>2012-10-07T11:40:25Z</time>
      </trkpt>
      <trkpt lat="50.3778" lon="3.42988">
        <ele>32.8222656</ele>
        <time>2012-10-07T11:40:29Z</time>
      </trkpt>
      <trkpt lat="50.37787" lon="3.43003">
        <ele>32.8222656</ele>
        <time>2012-10-07T11:40:31Z</time>
      </trkpt>
      <trkpt lat="50.37808" lon="3.43072">
        <ele>35.7060547</ele>
        <time>2012-10-07T11:40:39Z</time>
      </trkpt>
      <trkpt lat="50.37816" lon="3.43098">
        <ele>36.1867676</ele>
        <time>2012-10-07T11:40:42Z</time>
      </trkpt>
      <trkpt lat="50.37833" lon="3.43124">
        <ele>36.6674805</ele>
        <time>2012-10-07T11:40:46Z</time>
      </trkpt>
      <trkpt lat="50.3785" lon="3.43126">
        <ele>37.6286621</ele>
        <time>2012-10-07T11:40:49Z</time>
      </trkpt>
      <trkpt lat="50.37895" lon="3.43113">
        <ele>38.109375</ele>
        <time>2012-10-07T11:40:56Z</time>
      </trkpt>
      <trkpt lat="50.37933" lon="3.43111">
        <ele>38.5900879</ele>
        <time>2012-10-07T11:41:02Z</time>
      </trkpt>
      <trkpt lat="50.37976" lon="3.43107">
        <ele>37.6286621</ele>
        <time>2012-10-07T11:41:09Z</time>
      </trkpt>
      <trkpt lat="50.3802" lon="3.43102">
        <ele>36.6674805</ele>
        <time>2012-10-07T11:41:16Z</time>
      </trkpt>
      <trkpt lat="50.38071" lon="3.431">
        <ele>36.6674805</ele>
        <time>2012-10-07T11:41:24Z</time>
      </trkpt>
      <trkpt lat="50.38083" lon="3.43098">
        <ele>36.6674805</ele>
        <time>2012-10-07T11:41:26Z</time>
      </trkpt>
      <trkpt lat="50.38135" lon="3.43097">
        <ele>35.2254639</ele>
        <time>2012-10-07T11:41:34Z</time>
      </trkpt>
      <trkpt lat="50.38164" lon="3.43093">
        <ele>35.2254639</ele>
        <time>2012-10-07T11:41:39Z</time>
      </trkpt>
      <trkpt lat="50.38197" lon="3.43077">
        <ele>33.3028564</ele>
        <time>2012-10-07T11:41:45Z</time>
      </trkpt>
      <trkpt lat="50.38226" lon="3.43043">
        <ele>35.2254639</ele>
        <time>2012-10-07T11:41:51Z</time>
      </trkpt>
      <trkpt lat="50.38273" lon="3.42991">
        <ele>33.3028564</ele>
        <time>2012-10-07T11:42:00Z</time>
      </trkpt>
      <trkpt lat="50.38312" lon="3.42956">
        <ele>32.8222656</ele>
        <time>2012-10-07T11:42:07Z</time>
      </trkpt>
      <trkpt lat="50.38347" lon="3.42913">
        <ele>34.2641602</ele>
        <time>2012-10-07T11:42:14Z</time>
      </trkpt>
      <trkpt lat="50.38378" lon="3.42879">
        <ele>32.8222656</ele>
        <time>2012-10-07T11:42:20Z</time>
      </trkpt>
      <trkpt lat="50.38394" lon="3.42862">
        <ele>32.3415527</ele>
        <time>2012-10-07T11:42:23Z</time>
      </trkpt>
      <trkpt lat="50.38432" lon="3.42823">
        <ele>30.8995361</ele>
        <time>2012-10-07T11:42:30Z</time>
      </trkpt>
      <trkpt lat="50.38476" lon="3.42779">
        <ele>29.4575195</ele>
        <time>2012-10-07T11:42:38Z</time>
      </trkpt>
      <trkpt lat="50.38531" lon="3.42729">
        <ele>26.0928955</ele>
        <time>2012-10-07T11:42:48Z</time>
      </trkpt>
      <trkpt lat="50.38562" lon="3.42695">
        <ele>25.1317139</ele>
        <time>2012-10-07T11:42:54Z</time>
      </trkpt>
      <trkpt lat="50.38609" lon="3.42642">
        <ele>23.6895752</ele>
        <time>2012-10-07T11:43:03Z</time>
      </trkpt>
      <trkpt lat="50.38672" lon="3.42575">
        <ele>20.3249512</ele>
        <time>2012-10-07T11:43:15Z</time>
      </trkpt>
      <trkpt lat="50.38728" lon="3.42516">
        <ele>17.9217529</ele>
        <time>2012-10-07T11:43:25Z</time>
      </trkpt>
      <trkpt lat="50.38765" lon="3.42478">
        <ele>16.9604492</ele>
        <time>2012-10-07T11:43:32Z</time>
      </trkpt>
      <trkpt lat="50.38805" lon="3.42439">
        <ele>16.9604492</ele>
        <time>2012-10-07T11:43:39Z</time>
      </trkpt>
      <trkpt lat="50.3883" lon="3.42411">
        <ele>16.4797363</ele>
        <time>2012-10-07T11:43:44Z</time>
      </trkpt>
      <trkpt lat="50.38839" lon="3.42404">
        <ele>16.9604492</ele>
        <time>2012-10-07T11:43:46Z</time>
      </trkpt>
      <trkpt lat="50.38849" lon="3.42396">
        <ele>16.9604492</ele>
        <time>2012-10-07T11:43:48Z</time>
      </trkpt>
      <trkpt lat="50.38869" lon="3.42372">
        <ele>17.9217529</ele>
        <time>2012-10-07T11:43:53Z</time>
      </trkpt>
      <trkpt lat="50.38893" lon="3.42349">
        <ele>18.4023438</ele>
        <time>2012-10-07T11:43:58Z</time>
      </trkpt>
      <trkpt lat="50.38911" lon="3.42329">
        <ele>19.3637695</ele>
        <time>2012-10-07T11:44:02Z</time>
      </trkpt>
      <trkpt lat="50.3893" lon="3.42305">
        <ele>19.3637695</ele>
        <time>2012-10-07T11:44:06Z</time>
      </trkpt>
      <trkpt lat="50.3895" lon="3.42281">
        <ele>18.8830566</ele>
        <time>2012-10-07T11:44:10Z</time>
      </trkpt>
      <trkpt lat="50.38981" lon="3.42247">
        <ele>16.4797363</ele>
        <time>2012-10-07T11:44:16Z</time>
      </trkpt>
      <trkpt lat="50.38991" lon="3.42236">
        <ele>16.4797363</ele>
        <time>2012-10-07T11:44:18Z</time>
      </trkpt>
      <trkpt lat="50.39015" lon="3.42218">
        <ele>20.8056641</ele>
        <time>2012-10-07T11:44:22Z</time>
      </trkpt>
      <trkpt lat="50.39051" lon="3.42177">
        <ele>26.5736084</ele>
        <time>2012-10-07T11:44:29Z</time>
      </trkpt>
      <trkpt lat="50.39086" lon="3.42145">
        <ele>24.651001</ele>
        <time>2012-10-07T11:44:35Z</time>
      </trkpt>
      <trkpt lat="50.39127" lon="3.42103">
        <ele>18.8830566</ele>
        <time>2012-10-07T11:44:42Z</time>
      </trkpt>
      <trkpt lat="50.39133" lon="3.42095">
        <ele>19.8443604</ele>
        <time>2012-10-07T11:44:43Z</time>
      </trkpt>
      <trkpt lat="50.39174" lon="3.42052">
        <ele>15.5184326</ele>
        <time>2012-10-07T11:44:50Z</time>
      </trkpt>
      <trkpt lat="50.3921" lon="3.42014">
        <ele>15.9990234</ele>
        <time>2012-10-07T11:44:56Z</time>
      </trkpt>
      <trkpt lat="50.39257" lon="3.41966">
        <ele>17.4411621</ele>
        <time>2012-10-07T11:45:04Z</time>
      </trkpt>
      <trkpt lat="50.39289" lon="3.4194">
        <ele>14.5570068</ele>
        <time>2012-10-07T11:45:09Z</time>
      </trkpt>
      <trkpt lat="50.39324" lon="3.41903">
        <ele>12.6343994</ele>
        <time>2012-10-07T11:45:15Z</time>
      </trkpt>
      <trkpt lat="50.39358" lon="3.41867">
        <ele>10.711792</ele>
        <time>2012-10-07T11:45:21Z</time>
      </trkpt>
      <trkpt lat="50.39395" lon="3.41827">
        <ele>8.3085938</ele>
        <time>2012-10-07T11:45:28Z</time>
      </trkpt>
      <trkpt lat="50.39427" lon="3.41792">
        <ele>6.3858643</ele>
        <time>2012-10-07T11:45:34Z</time>
      </trkpt>
      <trkpt lat="50.39447" lon="3.41769">
        <ele>5.9052734</ele>
        <time>2012-10-07T11:45:38Z</time>
      </trkpt>
      <trkpt lat="50.3948" lon="3.41737">
        <ele>5.9052734</ele>
        <time>2012-10-07T11:45:44Z</time>
      </trkpt>
      <trkpt lat="50.39518" lon="3.41693">
        <ele>9.2698975</ele>
        <time>2012-10-07T11:45:52Z</time>
      </trkpt>
      <trkpt lat="50.3955" lon="3.41661">
        <ele>8.3085938</ele>
        <time>2012-10-07T11:45:58Z</time>
      </trkpt>
      <trkpt lat="50.39582" lon="3.41628">
        <ele>7.8278809</ele>
        <time>2012-10-07T11:46:04Z</time>
      </trkpt>
      <trkpt lat="50.39615" lon="3.416">
        <ele>7.8278809</ele>
        <time>2012-10-07T11:46:10Z</time>
      </trkpt>
      <trkpt lat="50.39642" lon="3.4157">
        <ele>7.8278809</ele>
        <time>2012-10-07T11:46:15Z</time>
      </trkpt>
      <trkpt lat="50.39685" lon="3.41529">
        <ele>3.5019531</ele>
        <time>2012-10-07T11:46:23Z</time>
      </trkpt>
      <trkpt lat="50.39719" lon="3.41499">
        <ele>2.5406494</ele>
        <time>2012-10-07T11:46:29Z</time>
      </trkpt>
      <trkpt lat="50.39755" lon="3.41459">
        <ele>3.0212402</ele>
        <time>2012-10-07T11:46:36Z</time>
      </trkpt>
      <trkpt lat="50.39783" lon="3.41433">
        <ele>3.982666</ele>
        <time>2012-10-07T11:46:41Z</time>
      </trkpt>
      <trkpt lat="50.39822" lon="3.41389">
        <ele>8.3085938</ele>
        <time>2012-10-07T11:46:49Z</time>
      </trkpt>
      <trkpt lat="50.39856" lon="3.41355">
        <ele>8.3085938</ele>
        <time>2012-10-07T11:46:56Z</time>
      </trkpt>
      <trkpt lat="50.39889" lon="3.4132">
        <ele>7.347168</ele>
        <time>2012-10-07T11:47:03Z</time>
      </trkpt>
      <trkpt lat="50.39914" lon="3.41295">
        <ele>8.7891846</ele>
        <time>2012-10-07T11:47:08Z</time>
      </trkpt>
      <trkpt lat="50.39943" lon="3.41267">
        <ele>8.7891846</ele>
        <time>2012-10-07T11:47:14Z</time>
      </trkpt>
      <trkpt lat="50.39952" lon="3.41257">
        <ele>9.7506104</ele>
        <time>2012-10-07T11:47:16Z</time>
      </trkpt>
      <trkpt lat="50.39985" lon="3.41223">
        <ele>8.7891846</ele>
        <time>2012-10-07T11:47:23Z</time>
      </trkpt>
      <trkpt lat="50.40003" lon="3.41199">
        <ele>12.1538086</ele>
        <time>2012-10-07T11:47:27Z</time>
      </trkpt>
      <trkpt lat="50.40031" lon="3.41166">
        <ele>11.1925049</ele>
        <time>2012-10-07T11:47:33Z</time>
      </trkpt>
      <trkpt lat="50.40036" lon="3.4116">
        <ele>11.6732178</ele>
        <time>2012-10-07T11:47:34Z</time>
      </trkpt>
      <trkpt lat="50.40062" lon="3.41134">
        <ele>12.1538086</ele>
        <time>2012-10-07T11:47:39Z</time>
      </trkpt>
      <trkpt lat="50.4009" lon="3.41102">
        <ele>11.1925049</ele>
        <time>2012-10-07T11:47:45Z</time>
      </trkpt>
      <trkpt lat="50.40111" lon="3.41083">
        <ele>10.2312012</ele>
        <time>2012-10-07T11:47:49Z</time>
      </trkpt>
      <trkpt lat="50.40148" lon="3.41049">
        <ele>8.7891846</ele>
        <time>2012-10-07T11:47:56Z</time>
      </trkpt>
      <trkpt lat="50.40193" lon="3.41015">
        <ele>8.3085938</ele>
        <time>2012-10-07T11:48:04Z</time>
      </trkpt>
      <trkpt lat="50.40215" lon="3.40997">
        <ele>7.8278809</ele>
        <time>2012-10-07T11:48:08Z</time>
      </trkpt>
      <trkpt lat="50.40228" lon="3.4098">
        <ele>7.347168</ele>
        <time>2012-10-07T11:48:11Z</time>
      </trkpt>
      <trkpt lat="50.40246" lon="3.40956">
        <ele>6.8664551</ele>
        <time>2012-10-07T11:48:15Z</time>
      </trkpt>
      <trkpt lat="50.40288" lon="3.40904">
        <ele>8.3085938</ele>
        <time>2012-10-07T11:48:24Z</time>
      </trkpt>
      <trkpt lat="50.40318" lon="3.40868">
        <ele>9.7506104</ele>
        <time>2012-10-07T11:48:30Z</time>
      </trkpt>
      <trkpt lat="50.40359" lon="3.40823">
        <ele>9.7506104</ele>
        <time>2012-10-07T11:48:38Z</time>
      </trkpt>
      <trkpt lat="50.40387" lon="3.40797">
        <ele>8.7891846</ele>
        <time>2012-10-07T11:48:43Z</time>
      </trkpt>
      <trkpt lat="50.40426" lon="3.40761">
        <ele>6.3858643</ele>
        <time>2012-10-07T11:48:50Z</time>
      </trkpt>
      <trkpt lat="50.40461" lon="3.40721">
        <ele>8.7891846</ele>
        <time>2012-10-07T11:48:57Z</time>
      </trkpt>
      <trkpt lat="50.40496" lon="3.40682">
        <ele>12.6343994</ele>
        <time>2012-10-07T11:49:04Z</time>
      </trkpt>
      <trkpt lat="50.40531" lon="3.40644">
        <ele>15.0377197</ele>
        <time>2012-10-07T11:49:11Z</time>
      </trkpt>
      <trkpt lat="50.40557" lon="3.40616">
        <ele>16.9604492</ele>
        <time>2012-10-07T11:49:17Z</time>
      </trkpt>
      <trkpt lat="50.40579" lon="3.40597">
        <ele>16.4797363</ele>
        <time>2012-10-07T11:49:22Z</time>
      </trkpt>
      <trkpt lat="50.40598" lon="3.40583">
        <ele>15.0377197</ele>
        <time>2012-10-07T11:49:26Z</time>
      </trkpt>
      <trkpt lat="50.4064" lon="3.40562">
        <ele>13.5958252</ele>
        <time>2012-10-07T11:49:34Z</time>
      </trkpt>
      <trkpt lat="50.40684" lon="3.40539">
        <ele>12.1538086</ele>
        <time>2012-10-07T11:49:42Z</time>
      </trkpt>
      <trkpt lat="50.40706" lon="3.40526">
        <ele>11.6732178</ele>
        <time>2012-10-07T11:49:46Z</time>
      </trkpt>
      <trkpt lat="50.40722" lon="3.40512">
        <ele>11.1925049</ele>
        <time>2012-10-07T11:49:49Z</time>
      </trkpt>
      <trkpt lat="50.40764" lon="3.40477">
        <ele>10.2312012</ele>
        <time>2012-10-07T11:49:57Z</time>
      </trkpt>
      <trkpt lat="50.40793" lon="3.40448">
        <ele>10.2312012</ele>
        <time>2012-10-07T11:50:03Z</time>
      </trkpt>
      <trkpt lat="50.40831" lon="3.4041">
        <ele>10.711792</ele>
        <time>2012-10-07T11:50:11Z</time>
      </trkpt>
      <trkpt lat="50.40877" lon="3.40356">
        <ele>10.2312012</ele>
        <time>2012-10-07T11:50:21Z</time>
      </trkpt>
      <trkpt lat="50.40909" lon="3.40307">
        <ele>11.6732178</ele>
        <time>2012-10-07T11:50:29Z</time>
      </trkpt>
      <trkpt lat="50.4094" lon="3.40267">
        <ele>12.1538086</ele>
        <time>2012-10-07T11:50:36Z</time>
      </trkpt>
      <trkpt lat="50.40949" lon="3.40257">
        <ele>12.6343994</ele>
        <time>2012-10-07T11:50:38Z</time>
      </trkpt>
      <trkpt lat="50.40974" lon="3.40257">
        <ele>13.5958252</ele>
        <time>2012-10-07T11:50:42Z</time>
      </trkpt>
      <trkpt lat="50.41018" lon="3.40266">
        <ele>12.1538086</ele>
        <time>2012-10-07T11:50:50Z</time>
      </trkpt>
      <trkpt lat="50.4104" lon="3.40268">
        <ele>12.6343994</ele>
        <time>2012-10-07T11:50:54Z</time>
      </trkpt>
      <trkpt lat="50.411" lon="3.40261">
        <ele>11.6732178</ele>
        <time>2012-10-07T11:51:04Z</time>
      </trkpt>
      <trkpt lat="50.41135" lon="3.40255">
        <ele>10.2312012</ele>
        <time>2012-10-07T11:51:10Z</time>
      </trkpt>
      <trkpt lat="50.41176" lon="3.40256">
        <ele>12.1538086</ele>
        <time>2012-10-07T11:51:17Z</time>
      </trkpt>
      <trkpt lat="50.4122" lon="3.40263">
        <ele>12.6343994</ele>
        <time>2012-10-07T11:51:25Z</time>
      </trkpt>
      <trkpt lat="50.4126" lon="3.4027">
        <ele>13.1151123</ele>
        <time>2012-10-07T11:51:32Z</time>
      </trkpt>
      <trkpt lat="50.41294" lon="3.40269">
        <ele>12.1538086</ele>
        <time>2012-10-07T11:51:38Z</time>
      </trkpt>
      <trkpt lat="50.41333" lon="3.40256">
        <ele>12.1538086</ele>
        <time>2012-10-07T11:51:45Z</time>
      </trkpt>
      <trkpt lat="50.41387" lon="3.4023">
        <ele>11.6732178</ele>
        <time>2012-10-07T11:51:55Z</time>
      </trkpt>
      <trkpt lat="50.41429" lon="3.40206">
        <ele>12.1538086</ele>
        <time>2012-10-07T11:52:03Z</time>
      </trkpt>
      <trkpt lat="50.41466" lon="3.40183">
        <ele>12.1538086</ele>
        <time>2012-10-07T11:52:10Z</time>
      </trkpt>
      <trkpt lat="50.415" lon="3.40146">
        <ele>13.5958252</ele>
        <time>2012-10-07T11:52:18Z</time>
      </trkpt>
      <trkpt lat="50.41502" lon="3.40144">
        <ele>13.5958252</ele>
        <time>2012-10-07T11:52:19Z</time>
      </trkpt>
      <trkpt lat="50.41508" lon="3.40122">
        <ele>14.5570068</ele>
        <time>2012-10-07T11:52:24Z</time>
      </trkpt>
      <trkpt lat="50.41505" lon="3.40107">
        <ele>15.9990234</ele>
        <time>2012-10-07T11:52:26Z</time>
      </trkpt>
      <trkpt lat="50.41492" lon="3.40042">
        <ele>16.4797363</ele>
        <time>2012-10-07T11:52:34Z</time>
      </trkpt>
      <trkpt lat="50.41469" lon="3.39966">
        <ele>16.9604492</ele>
        <time>2012-10-07T11:52:43Z</time>
      </trkpt>
      <trkpt lat="50.41455" lon="3.39915">
        <ele>18.4023438</ele>
        <time>2012-10-07T11:52:49Z</time>
      </trkpt>
      <trkpt lat="50.41451" lon="3.39896">
        <ele>18.8830566</ele>
        <time>2012-10-07T11:52:51Z</time>
      </trkpt>
      <trkpt lat="50.4145" lon="3.39838">
        <ele>19.8443604</ele>
        <time>2012-10-07T11:52:57Z</time>
      </trkpt>
      <trkpt lat="50.41457" lon="3.39753">
        <ele>17.9217529</ele>
        <time>2012-10-07T11:53:06Z</time>
      </trkpt>
      <trkpt lat="50.41464" lon="3.39665">
        <ele>15.5184326</ele>
        <time>2012-10-07T11:53:15Z</time>
      </trkpt>
      <trkpt lat="50.41474" lon="3.39567">
        <ele>14.5570068</ele>
        <time>2012-10-07T11:53:25Z</time>
      </trkpt>
      <trkpt lat="50.41483" lon="3.39488">
        <ele>14.076416</ele>
        <time>2012-10-07T11:53:33Z</time>
      </trkpt>
      <trkpt lat="50.41491" lon="3.39429">
        <ele>14.5570068</ele>
        <time>2012-10-07T11:53:39Z</time>
      </trkpt>
      <trkpt lat="50.41501" lon="3.39342">
        <ele>14.5570068</ele>
        <time>2012-10-07T11:53:48Z</time>
      </trkpt>
      <trkpt lat="50.4151" lon="3.39264">
        <ele>13.5958252</ele>
        <time>2012-10-07T11:53:56Z</time>
      </trkpt>
      <trkpt lat="50.41521" lon="3.39198">
        <ele>13.1151123</ele>
        <time>2012-10-07T11:54:03Z</time>
      </trkpt>
      <trkpt lat="50.41531" lon="3.39173">
        <ele>13.5958252</ele>
        <time>2012-10-07T11:54:06Z</time>
      </trkpt>
      <trkpt lat="50.41547" lon="3.39142">
        <ele>13.5958252</ele>
        <time>2012-10-07T11:54:10Z</time>
      </trkpt>
      <trkpt lat="50.41559" lon="3.3912">
        <ele>13.5958252</ele>
        <time>2012-10-07T11:54:13Z</time>
      </trkpt>
      <trkpt lat="50.41584" lon="3.39078">
        <ele>14.076416</ele>
        <time>2012-10-07T11:54:19Z</time>
      </trkpt>
      <trkpt lat="50.41615" lon="3.39028">
        <ele>14.5570068</ele>
        <time>2012-10-07T11:54:26Z</time>
      </trkpt>
      <trkpt lat="50.41644" lon="3.38976">
        <ele>16.4797363</ele>
        <time>2012-10-07T11:54:33Z</time>
      </trkpt>
      <trkpt lat="50.41659" lon="3.38934">
        <ele>16.4797363</ele>
        <time>2012-10-07T11:54:38Z</time>
      </trkpt>
      <trkpt lat="50.4167" lon="3.3886">
        <ele>15.9990234</ele>
        <time>2012-10-07T11:54:46Z</time>
      </trkpt>
      <trkpt lat="50.41683" lon="3.38776">
        <ele>15.0377197</ele>
        <time>2012-10-07T11:54:55Z</time>
      </trkpt>
      <trkpt lat="50.41691" lon="3.3874">
        <ele>15.5184326</ele>
        <time>2012-10-07T11:54:59Z</time>
      </trkpt>
      <trkpt lat="50.41703" lon="3.38716">
        <ele>15.9990234</ele>
        <time>2012-10-07T11:55:02Z</time>
      </trkpt>
      <trkpt lat="50.41731" lon="3.38689">
        <ele>15.5184326</ele>
        <time>2012-10-07T11:55:07Z</time>
      </trkpt>
      <trkpt lat="50.41738" lon="3.3869">
        <ele>16.4797363</ele>
        <time>2012-10-07T11:55:08Z</time>
      </trkpt>
      <trkpt lat="50.41794" lon="3.38701">
        <ele>17.4411621</ele>
        <time>2012-10-07T11:55:16Z</time>
      </trkpt>
      <trkpt lat="50.41842" lon="3.38708">
        <ele>13.5958252</ele>
        <time>2012-10-07T11:55:24Z</time>
      </trkpt>
      <trkpt lat="50.4188" lon="3.38719">
        <ele>12.6343994</ele>
        <time>2012-10-07T11:55:30Z</time>
      </trkpt>
      <trkpt lat="50.41915" lon="3.38731">
        <ele>11.1925049</ele>
        <time>2012-10-07T11:55:36Z</time>
      </trkpt>
      <trkpt lat="50.41941" lon="3.38743">
        <ele>10.2312012</ele>
        <time>2012-10-07T11:55:40Z</time>
      </trkpt>
      <trkpt lat="50.41964" lon="3.38767">
        <ele>14.5570068</ele>
        <time>2012-10-07T11:55:45Z</time>
      </trkpt>
      <trkpt lat="50.41991" lon="3.38777">
        <ele>15.9990234</ele>
        <time>2012-10-07T11:55:50Z</time>
      </trkpt>
      <trkpt lat="50.42055" lon="3.38761">
        <ele>13.5958252</ele>
        <time>2012-10-07T11:56:00Z</time>
      </trkpt>
      <trkpt lat="50.42106" lon="3.38748">
        <ele>17.4411621</ele>
        <time>2012-10-07T11:56:08Z</time>
      </trkpt>
      <trkpt lat="50.42156" lon="3.38753">
        <ele>17.4411621</ele>
        <time>2012-10-07T11:56:16Z</time>
      </trkpt>
      <trkpt lat="50.42168" lon="3.38753">
        <ele>16.9604492</ele>
        <time>2012-10-07T11:56:18Z</time>
      </trkpt>
      <trkpt lat="50.42186" lon="3.38748">
        <ele>17.4411621</ele>
        <time>2012-10-07T11:56:21Z</time>
      </trkpt>
      <trkpt lat="50.42231" lon="3.38721">
        <ele>16.4797363</ele>
        <time>2012-10-07T11:56:29Z</time>
      </trkpt>
      <trkpt lat="50.42275" lon="3.38691">
        <ele>16.4797363</ele>
        <time>2012-10-07T11:56:37Z</time>
      </trkpt>
      <trkpt lat="50.42294" lon="3.38683">
        <ele>17.4411621</ele>
        <time>2012-10-07T11:56:40Z</time>
      </trkpt>
      <trkpt lat="50.42318" lon="3.3868">
        <ele>15.9990234</ele>
        <time>2012-10-07T11:56:44Z</time>
      </trkpt>
      <trkpt lat="50.42361" lon="3.38664">
        <ele>15.9990234</ele>
        <time>2012-10-07T11:56:51Z</time>
      </trkpt>
      <trkpt lat="50.4242" lon="3.38643">
        <ele>15.5184326</ele>
        <time>2012-10-07T11:57:01Z</time>
      </trkpt>
      <trkpt lat="50.42432" lon="3.38638">
        <ele>15.5184326</ele>
        <time>2012-10-07T11:57:03Z</time>
      </trkpt>
      <trkpt lat="50.42474" lon="3.38625">
        <ele>15.5184326</ele>
        <time>2012-10-07T11:57:10Z</time>
      </trkpt>
      <trkpt lat="50.42516" lon="3.38611">
        <ele>15.0377197</ele>
        <time>2012-10-07T11:57:17Z</time>
      </trkpt>
      <trkpt lat="50.42533" lon="3.38603">
        <ele>14.5570068</ele>
        <time>2012-10-07T11:57:20Z</time>
      </trkpt>
      <trkpt lat="50.42548" lon="3.38589">
        <ele>14.076416</ele>
        <time>2012-10-07T11:57:23Z</time>
      </trkpt>
      <trkpt lat="50.42565" lon="3.38554">
        <ele>13.1151123</ele>
        <time>2012-10-07T11:57:28Z</time>
      </trkpt>
      <trkpt lat="50.42592" lon="3.38481">
        <ele>12.1538086</ele>
        <time>2012-10-07T11:57:37Z</time>
      </trkpt>
      <trkpt lat="50.42615" lon="3.3841">
        <ele>13.1151123</ele>
        <time>2012-10-07T11:57:46Z</time>
      </trkpt>
      <trkpt lat="50.42617" lon="3.38403">
        <ele>13.1151123</ele>
        <time>2012-10-07T11:57:47Z</time>
      </trkpt>
      <trkpt lat="50.42623" lon="3.38367">
        <ele>13.1151123</ele>
        <time>2012-10-07T11:57:52Z</time>
      </trkpt>
      <trkpt lat="50.42621" lon="3.38336">
        <ele>14.076416</ele>
        <time>2012-10-07T11:57:56Z</time>
      </trkpt>
      <trkpt lat="50.42618" lon="3.38287">
        <ele>15.9990234</ele>
        <time>2012-10-07T11:58:02Z</time>
      </trkpt>
      <trkpt lat="50.42613" lon="3.38226">
        <ele>17.9217529</ele>
        <time>2012-10-07T11:58:09Z</time>
      </trkpt>
      <trkpt lat="50.42607" lon="3.38159">
        <ele>19.3637695</ele>
        <time>2012-10-07T11:58:17Z</time>
      </trkpt>
      <trkpt lat="50.42601" lon="3.38073">
        <ele>21.286377</ele>
        <time>2012-10-07T11:58:27Z</time>
      </trkpt>
      <trkpt lat="50.42592" lon="3.37974">
        <ele>24.1702881</ele>
        <time>2012-10-07T11:58:38Z</time>
      </trkpt>
      <trkpt lat="50.42589" lon="3.37938">
        <ele>25.1317139</ele>
        <time>2012-10-07T11:58:42Z</time>
      </trkpt>
      <trkpt lat="50.42588" lon="3.3792">
        <ele>25.1317139</ele>
        <time>2012-10-07T11:58:44Z</time>
      </trkpt>
      <trkpt lat="50.42576" lon="3.3784">
        <ele>25.6123047</ele>
        <time>2012-10-07T11:58:53Z</time>
      </trkpt>
      <trkpt lat="50.42568" lon="3.37785">
        <ele>25.6123047</ele>
        <time>2012-10-07T11:58:59Z</time>
      </trkpt>
      <trkpt lat="50.42558" lon="3.37721">
        <ele>26.0928955</ele>
        <time>2012-10-07T11:59:06Z</time>
      </trkpt>
      <trkpt lat="50.42551" lon="3.37676">
        <ele>26.0928955</ele>
        <time>2012-10-07T11:59:11Z</time>
      </trkpt>
      <trkpt lat="50.42547" lon="3.3765">
        <ele>26.5736084</ele>
        <time>2012-10-07T11:59:14Z</time>
      </trkpt>
      <trkpt lat="50.42541" lon="3.37626">
        <ele>26.5736084</ele>
        <time>2012-10-07T11:59:17Z</time>
      </trkpt>
      <trkpt lat="50.42528" lon="3.37545">
        <ele>26.0928955</ele>
        <time>2012-10-07T11:59:26Z</time>
      </trkpt>
      <trkpt lat="50.42519" lon="3.3751">
        <ele>26.0928955</ele>
        <time>2012-10-07T11:59:30Z</time>
      </trkpt>
      <trkpt lat="50.42486" lon="3.37434">
        <ele>22.2475586</ele>
        <time>2012-10-07T11:59:40Z</time>
      </trkpt>
      <trkpt lat="50.42476" lon="3.37411">
        <ele>21.7669678</ele>
        <time>2012-10-07T11:59:43Z</time>
      </trkpt>
      <trkpt lat="50.42438" lon="3.37339">
        <ele>19.8443604</ele>
        <time>2012-10-07T11:59:53Z</time>
      </trkpt>
      <trkpt lat="50.42407" lon="3.37293">
        <ele>18.4023438</ele>
        <time>2012-10-07T12:00:00Z</time>
      </trkpt>
      <trkpt lat="50.42376" lon="3.37251">
        <ele>17.9217529</ele>
        <time>2012-10-07T12:00:07Z</time>
      </trkpt>
      <trkpt lat="50.42341" lon="3.37201">
        <ele>16.9604492</ele>
        <time>2012-10-07T12:00:15Z</time>
      </trkpt>
      <trkpt lat="50.42302" lon="3.37147">
        <ele>16.4797363</ele>
        <time>2012-10-07T12:00:24Z</time>
      </trkpt>
      <trkpt lat="50.42262" lon="3.3709">
        <ele>15.9990234</ele>
        <time>2012-10-07T12:00:33Z</time>
      </trkpt>
      <trkpt lat="50.42229" lon="3.37035">
        <ele>15.5184326</ele>
        <time>2012-10-07T12:00:41Z</time>
      </trkpt>
      <trkpt lat="50.42209" lon="3.36976">
        <ele>15.0377197</ele>
        <time>2012-10-07T12:00:48Z</time>
      </trkpt>
      <trkpt lat="50.42184" lon="3.36899">
        <ele>14.076416</ele>
        <time>2012-10-07T12:00:57Z</time>
      </trkpt>
      <trkpt lat="50.42157" lon="3.36845">
        <ele>13.5958252</ele>
        <time>2012-10-07T12:01:04Z</time>
      </trkpt>
      <trkpt lat="50.42118" lon="3.3677">
        <ele>13.1151123</ele>
        <time>2012-10-07T12:01:14Z</time>
      </trkpt>
      <trkpt lat="50.42093" lon="3.36726">
        <ele>12.6343994</ele>
        <time>2012-10-07T12:01:20Z</time>
      </trkpt>
      <trkpt lat="50.42057" lon="3.36659">
        <ele>12.1538086</ele>
        <time>2012-10-07T12:01:29Z</time>
      </trkpt>
      <trkpt lat="50.42017" lon="3.36585">
        <ele>11.6732178</ele>
        <time>2012-10-07T12:01:39Z</time>
      </trkpt>
      <trkpt lat="50.41977" lon="3.3651">
        <ele>10.711792</ele>
        <time>2012-10-07T12:01:49Z</time>
      </trkpt>
      <trkpt lat="50.41939" lon="3.36441">
        <ele>10.2312012</ele>
        <time>2012-10-07T12:01:58Z</time>
      </trkpt>
      <trkpt lat="50.41901" lon="3.36374">
        <ele>9.2698975</ele>
        <time>2012-10-07T12:02:07Z</time>
      </trkpt>
      <trkpt lat="50.41875" lon="3.36336">
        <ele>11.6732178</ele>
        <time>2012-10-07T12:02:13Z</time>
      </trkpt>
      <trkpt lat="50.41853" lon="3.36306">
        <ele>11.6732178</ele>
        <time>2012-10-07T12:02:18Z</time>
      </trkpt>
      <trkpt lat="50.41817" lon="3.3626">
        <ele>15.5184326</ele>
        <time>2012-10-07T12:02:26Z</time>
      </trkpt>
      <trkpt lat="50.41775" lon="3.3621">
        <ele>19.8443604</ele>
        <time>2012-10-07T12:02:35Z</time>
      </trkpt>
      <trkpt lat="50.41753" lon="3.36182">
        <ele>23.2089844</ele>
        <time>2012-10-07T12:02:40Z</time>
      </trkpt>
      <trkpt lat="50.41744" lon="3.3617">
        <ele>25.1317139</ele>
        <time>2012-10-07T12:02:42Z</time>
      </trkpt>
      <trkpt lat="50.41725" lon="3.36132">
        <ele>28.0155029</ele>
        <time>2012-10-07T12:02:47Z</time>
      </trkpt>
      <trkpt lat="50.417" lon="3.36072">
        <ele>30.4188232</ele>
        <time>2012-10-07T12:02:54Z</time>
      </trkpt>
      <trkpt lat="50.41688" lon="3.36038">
        <ele>29.4575195</ele>
        <time>2012-10-07T12:02:58Z</time>
      </trkpt>
      <trkpt lat="50.4167" lon="3.35985">
        <ele>30.4188232</ele>
        <time>2012-10-07T12:03:04Z</time>
      </trkpt>
      <trkpt lat="50.41647" lon="3.35933">
        <ele>29.4575195</ele>
        <time>2012-10-07T12:03:10Z</time>
      </trkpt>
      <trkpt lat="50.41627" lon="3.35883">
        <ele>28.0155029</ele>
        <time>2012-10-07T12:03:16Z</time>
      </trkpt>
      <trkpt lat="50.41595" lon="3.35808">
        <ele>26.5736084</ele>
        <time>2012-10-07T12:03:25Z</time>
      </trkpt>
      <trkpt lat="50.41568" lon="3.35745">
        <ele>28.4962158</ele>
        <time>2012-10-07T12:03:33Z</time>
      </trkpt>
      <trkpt lat="50.41545" lon="3.3569">
        <ele>27.0543213</ele>
        <time>2012-10-07T12:03:40Z</time>
      </trkpt>
      <trkpt lat="50.41522" lon="3.35643">
        <ele>25.1317139</ele>
        <time>2012-10-07T12:03:46Z</time>
      </trkpt>
      <trkpt lat="50.41498" lon="3.3559">
        <ele>22.2475586</ele>
        <time>2012-10-07T12:03:53Z</time>
      </trkpt>
      <trkpt lat="50.41478" lon="3.35553">
        <ele>23.6895752</ele>
        <time>2012-10-07T12:03:58Z</time>
      </trkpt>
      <trkpt lat="50.41452" lon="3.35499">
        <ele>24.651001</ele>
        <time>2012-10-07T12:04:05Z</time>
      </trkpt>
      <trkpt lat="50.41429" lon="3.35452">
        <ele>24.651001</ele>
        <time>2012-10-07T12:04:11Z</time>
      </trkpt>
      <trkpt lat="50.41413" lon="3.35422">
        <ele>25.1317139</ele>
        <time>2012-10-07T12:04:15Z</time>
      </trkpt>
      <trkpt lat="50.41387" lon="3.35367">
        <ele>27.0543213</ele>
        <time>2012-10-07T12:04:22Z</time>
      </trkpt>
      <trkpt lat="50.41365" lon="3.35319">
        <ele>28.4962158</ele>
        <time>2012-10-07T12:04:28Z</time>
      </trkpt>
      <trkpt lat="50.41348" lon="3.35273">
        <ele>28.0155029</ele>
        <time>2012-10-07T12:04:34Z</time>
      </trkpt>
      <trkpt lat="50.41342" lon="3.35247">
        <ele>30.4188232</ele>
        <time>2012-10-07T12:04:38Z</time>
      </trkpt>
      <trkpt lat="50.41334" lon="3.35224">
        <ele>29.4575195</ele>
        <time>2012-10-07T12:04:42Z</time>
      </trkpt>
      <trkpt lat="50.41331" lon="3.35208">
        <ele>30.4188232</ele>
        <time>2012-10-07T12:04:46Z</time>
      </trkpt>
      <trkpt lat="50.41318" lon="3.35169">
        <ele>29.4575195</ele>
        <time>2012-10-07T12:04:52Z</time>
      </trkpt>
      <trkpt lat="50.41298" lon="3.35094">
        <ele>30.8995361</ele>
        <time>2012-10-07T12:05:02Z</time>
      </trkpt>
      <trkpt lat="50.41291" lon="3.35071">
        <ele>30.8995361</ele>
        <time>2012-10-07T12:05:05Z</time>
      </trkpt>
      <trkpt lat="50.41286" lon="3.35051">
        <ele>31.380127</ele>
        <time>2012-10-07T12:05:08Z</time>
      </trkpt>
      <trkpt lat="50.41278" lon="3.35029">
        <ele>30.4188232</ele>
        <time>2012-10-07T12:05:13Z</time>
      </trkpt>
      <trkpt lat="50.41271" lon="3.35003">
        <ele>31.380127</ele>
        <time>2012-10-07T12:05:19Z</time>
      </trkpt>
      <trkpt lat="50.41266" lon="3.34977">
        <ele>33.3028564</ele>
        <time>2012-10-07T12:05:23Z</time>
      </trkpt>
      <trkpt lat="50.41254" lon="3.34931">
        <ele>31.380127</ele>
        <time>2012-10-07T12:05:28Z</time>
      </trkpt>
      <trkpt lat="50.41237" lon="3.34873">
        <ele>28.0155029</ele>
        <time>2012-10-07T12:05:34Z</time>
      </trkpt>
      <trkpt lat="50.41215" lon="3.34796">
        <ele>26.0928955</ele>
        <time>2012-10-07T12:05:43Z</time>
      </trkpt>
      <trkpt lat="50.41206" lon="3.34767">
        <ele>26.5736084</ele>
        <time>2012-10-07T12:05:48Z</time>
      </trkpt>
      <trkpt lat="50.41205" lon="3.34768">
        <ele>26.5736084</ele>
        <time>2012-10-07T12:05:54Z</time>
      </trkpt>
      <trkpt lat="50.41196" lon="3.34754">
        <ele>26.5736084</ele>
        <time>2012-10-07T12:06:32Z</time>
      </trkpt>
      <trkpt lat="50.41191" lon="3.34736">
        <ele>27.5349121</ele>
        <time>2012-10-07T12:06:36Z</time>
      </trkpt>
      <trkpt lat="50.4118" lon="3.34698">
        <ele>27.5349121</ele>
        <time>2012-10-07T12:06:43Z</time>
      </trkpt>
      <trkpt lat="50.41167" lon="3.34652">
        <ele>23.6895752</ele>
        <time>2012-10-07T12:06:50Z</time>
      </trkpt>
      <trkpt lat="50.41161" lon="3.3463">
        <ele>22.2475586</ele>
        <time>2012-10-07T12:06:53Z</time>
      </trkpt>
      <trkpt lat="50.41151" lon="3.34579">
        <ele>22.2475586</ele>
        <time>2012-10-07T12:07:00Z</time>
      </trkpt>
      <trkpt lat="50.41143" lon="3.34542">
        <ele>21.7669678</ele>
        <time>2012-10-07T12:07:05Z</time>
      </trkpt>
      <trkpt lat="50.41124" lon="3.34484">
        <ele>23.6895752</ele>
        <time>2012-10-07T12:07:12Z</time>
      </trkpt>
      <trkpt lat="50.41107" lon="3.34424">
        <ele>26.0928955</ele>
        <time>2012-10-07T12:07:19Z</time>
      </trkpt>
      <trkpt lat="50.41089" lon="3.34355">
        <ele>27.5349121</ele>
        <time>2012-10-07T12:07:27Z</time>
      </trkpt>
      <trkpt lat="50.41071" lon="3.34284">
        <ele>28.4962158</ele>
        <time>2012-10-07T12:07:35Z</time>
      </trkpt>
      <trkpt lat="50.41048" lon="3.34198">
        <ele>28.9769287</ele>
        <time>2012-10-07T12:07:45Z</time>
      </trkpt>
      <trkpt lat="50.41033" lon="3.34137">
        <ele>27.5349121</ele>
        <time>2012-10-07T12:07:52Z</time>
      </trkpt>
      <trkpt lat="50.41016" lon="3.34075">
        <ele>26.0928955</ele>
        <time>2012-10-07T12:07:59Z</time>
      </trkpt>
      <trkpt lat="50.41001" lon="3.34022">
        <ele>25.6123047</ele>
        <time>2012-10-07T12:08:05Z</time>
      </trkpt>
      <trkpt lat="50.40977" lon="3.33931">
        <ele>24.651001</ele>
        <time>2012-10-07T12:08:15Z</time>
      </trkpt>
      <trkpt lat="50.40951" lon="3.33842">
        <ele>24.651001</ele>
        <time>2012-10-07T12:08:25Z</time>
      </trkpt>
      <trkpt lat="50.40929" lon="3.33761">
        <ele>25.6123047</ele>
        <time>2012-10-07T12:08:34Z</time>
      </trkpt>
      <trkpt lat="50.40909" lon="3.3368">
        <ele>27.0543213</ele>
        <time>2012-10-07T12:08:43Z</time>
      </trkpt>
      <trkpt lat="50.40885" lon="3.33592">
        <ele>28.9769287</ele>
        <time>2012-10-07T12:08:53Z</time>
      </trkpt>
      <trkpt lat="50.40866" lon="3.3353">
        <ele>28.9769287</ele>
        <time>2012-10-07T12:09:01Z</time>
      </trkpt>
      <trkpt lat="50.40862" lon="3.33518">
        <ele>28.9769287</ele>
        <time>2012-10-07T12:09:03Z</time>
      </trkpt>
      <trkpt lat="50.40852" lon="3.3347">
        <ele>28.9769287</ele>
        <time>2012-10-07T12:09:09Z</time>
      </trkpt>
      <trkpt lat="50.40839" lon="3.33428">
        <ele>29.4575195</ele>
        <time>2012-10-07T12:09:14Z</time>
      </trkpt>
      <trkpt lat="50.40827" lon="3.33404">
        <ele>28.9769287</ele>
        <time>2012-10-07T12:09:17Z</time>
      </trkpt>
      <trkpt lat="50.4082" lon="3.33374">
        <ele>29.4575195</ele>
        <time>2012-10-07T12:09:21Z</time>
      </trkpt>
      <trkpt lat="50.40817" lon="3.33362">
        <ele>29.4575195</ele>
        <time>2012-10-07T12:09:23Z</time>
      </trkpt>
      <trkpt lat="50.40816" lon="3.33353">
        <ele>28.4962158</ele>
        <time>2012-10-07T12:09:25Z</time>
      </trkpt>
      <trkpt lat="50.40811" lon="3.33329">
        <ele>27.0543213</ele>
        <time>2012-10-07T12:09:31Z</time>
      </trkpt>
      <trkpt lat="50.40803" lon="3.33296">
        <ele>27.5349121</ele>
        <time>2012-10-07T12:09:36Z</time>
      </trkpt>
      <trkpt lat="50.40795" lon="3.3326">
        <ele>28.9769287</ele>
        <time>2012-10-07T12:09:42Z</time>
      </trkpt>
      <trkpt lat="50.40791" lon="3.33241">
        <ele>28.4962158</ele>
        <time>2012-10-07T12:09:45Z</time>
      </trkpt>
      <trkpt lat="50.40786" lon="3.33203">
        <ele>28.4962158</ele>
        <time>2012-10-07T12:09:50Z</time>
      </trkpt>
      <trkpt lat="50.40775" lon="3.33124">
        <ele>30.4188232</ele>
        <time>2012-10-07T12:09:59Z</time>
      </trkpt>
      <trkpt lat="50.4077" lon="3.33077">
        <ele>31.380127</ele>
        <time>2012-10-07T12:10:04Z</time>
      </trkpt>
      <trkpt lat="50.40758" lon="3.32988">
        <ele>31.8607178</ele>
        <time>2012-10-07T12:10:13Z</time>
      </trkpt>
      <trkpt lat="50.40742" lon="3.32875">
        <ele>31.380127</ele>
        <time>2012-10-07T12:10:24Z</time>
      </trkpt>
      <trkpt lat="50.40729" lon="3.32783">
        <ele>30.4188232</ele>
        <time>2012-10-07T12:10:33Z</time>
      </trkpt>
      <trkpt lat="50.40717" lon="3.32705">
        <ele>29.9381104</ele>
        <time>2012-10-07T12:10:41Z</time>
      </trkpt>
      <trkpt lat="50.40706" lon="3.32625">
        <ele>29.9381104</ele>
        <time>2012-10-07T12:10:49Z</time>
      </trkpt>
      <trkpt lat="50.40694" lon="3.32546">
        <ele>30.8995361</ele>
        <time>2012-10-07T12:10:57Z</time>
      </trkpt>
      <trkpt lat="50.40687" lon="3.32486">
        <ele>31.380127</ele>
        <time>2012-10-07T12:11:03Z</time>
      </trkpt>
      <trkpt lat="50.40675" lon="3.32428">
        <ele>31.8607178</ele>
        <time>2012-10-07T12:11:09Z</time>
      </trkpt>
      <trkpt lat="50.40654" lon="3.32378">
        <ele>31.8607178</ele>
        <time>2012-10-07T12:11:15Z</time>
      </trkpt>
      <trkpt lat="50.40613" lon="3.32316">
        <ele>32.3415527</ele>
        <time>2012-10-07T12:11:24Z</time>
      </trkpt>
      <trkpt lat="50.40589" lon="3.32279">
        <ele>36.1867676</ele>
        <time>2012-10-07T12:11:30Z</time>
      </trkpt>
      <trkpt lat="50.40562" lon="3.32237">
        <ele>36.6674805</ele>
        <time>2012-10-07T12:11:36Z</time>
      </trkpt>
      <trkpt lat="50.40526" lon="3.32182">
        <ele>36.1867676</ele>
        <time>2012-10-07T12:11:43Z</time>
      </trkpt>
      <trkpt lat="50.40498" lon="3.32135">
        <ele>34.2641602</ele>
        <time>2012-10-07T12:11:49Z</time>
      </trkpt>
      <trkpt lat="50.4048" lon="3.32077">
        <ele>31.8607178</ele>
        <time>2012-10-07T12:11:55Z</time>
      </trkpt>
      <trkpt lat="50.40467" lon="3.31989">
        <ele>29.9381104</ele>
        <time>2012-10-07T12:12:04Z</time>
      </trkpt>
      <trkpt lat="50.40458" lon="3.31912">
        <ele>32.3415527</ele>
        <time>2012-10-07T12:12:12Z</time>
      </trkpt>
      <trkpt lat="50.40445" lon="3.31816">
        <ele>32.8222656</ele>
        <time>2012-10-07T12:12:22Z</time>
      </trkpt>
      <trkpt lat="50.40436" lon="3.31749">
        <ele>33.7834473</ele>
        <time>2012-10-07T12:12:29Z</time>
      </trkpt>
      <trkpt lat="50.40425" lon="3.31673">
        <ele>33.7834473</ele>
        <time>2012-10-07T12:12:37Z</time>
      </trkpt>
      <trkpt lat="50.40417" lon="3.31615">
        <ele>33.7834473</ele>
        <time>2012-10-07T12:12:43Z</time>
      </trkpt>
      <trkpt lat="50.40412" lon="3.31587">
        <ele>32.3415527</ele>
        <time>2012-10-07T12:12:46Z</time>
      </trkpt>
      <trkpt lat="50.40406" lon="3.3153">
        <ele>30.8995361</ele>
        <time>2012-10-07T12:12:52Z</time>
      </trkpt>
      <trkpt lat="50.40398" lon="3.31471">
        <ele>30.8995361</ele>
        <time>2012-10-07T12:12:58Z</time>
      </trkpt>
      <trkpt lat="50.40388" lon="3.31411">
        <ele>29.4575195</ele>
        <time>2012-10-07T12:13:04Z</time>
      </trkpt>
      <trkpt lat="50.40377" lon="3.31332">
        <ele>28.9769287</ele>
        <time>2012-10-07T12:13:12Z</time>
      </trkpt>
      <trkpt lat="50.40366" lon="3.31253">
        <ele>29.9381104</ele>
        <time>2012-10-07T12:13:20Z</time>
      </trkpt>
      <trkpt lat="50.40358" lon="3.31194">
        <ele>31.8607178</ele>
        <time>2012-10-07T12:13:26Z</time>
      </trkpt>
      <trkpt lat="50.40348" lon="3.31125">
        <ele>31.380127</ele>
        <time>2012-10-07T12:13:33Z</time>
      </trkpt>
      <trkpt lat="50.40341" lon="3.31077">
        <ele>31.380127</ele>
        <time>2012-10-07T12:13:38Z</time>
      </trkpt>
      <trkpt lat="50.4033" lon="3.3099">
        <ele>35.7060547</ele>
        <time>2012-10-07T12:13:47Z</time>
      </trkpt>
      <trkpt lat="50.40316" lon="3.30886">
        <ele>37.6286621</ele>
        <time>2012-10-07T12:13:58Z</time>
      </trkpt>
      <trkpt lat="50.40311" lon="3.30859">
        <ele>38.109375</ele>
        <time>2012-10-07T12:14:01Z</time>
      </trkpt>
      <trkpt lat="50.40303" lon="3.30833">
        <ele>35.2254639</ele>
        <time>2012-10-07T12:14:05Z</time>
      </trkpt>
      <trkpt lat="50.403" lon="3.30816">
        <ele>34.2641602</ele>
        <time>2012-10-07T12:14:09Z</time>
      </trkpt>
      <trkpt lat="50.40296" lon="3.30794">
        <ele>30.8995361</ele>
        <time>2012-10-07T12:14:13Z</time>
      </trkpt>
      <trkpt lat="50.40295" lon="3.30789">
        <ele>29.9381104</ele>
        <time>2012-10-07T12:14:14Z</time>
      </trkpt>
      <trkpt lat="50.40292" lon="3.30753">
        <ele>28.4962158</ele>
        <time>2012-10-07T12:14:20Z</time>
      </trkpt>
      <trkpt lat="50.4029" lon="3.30721">
        <ele>27.5349121</ele>
        <time>2012-10-07T12:14:24Z</time>
      </trkpt>
      <trkpt lat="50.40285" lon="3.30663">
        <ele>27.0543213</ele>
        <time>2012-10-07T12:14:31Z</time>
      </trkpt>
      <trkpt lat="50.40281" lon="3.30617">
        <ele>26.0928955</ele>
        <time>2012-10-07T12:14:37Z</time>
      </trkpt>
      <trkpt lat="50.40276" lon="3.30569">
        <ele>26.5736084</ele>
        <time>2012-10-07T12:14:44Z</time>
      </trkpt>
      <trkpt lat="50.40271" lon="3.30502">
        <ele>26.5736084</ele>
        <time>2012-10-07T12:14:52Z</time>
      </trkpt>
      <trkpt lat="50.40267" lon="3.30436">
        <ele>25.6123047</ele>
        <time>2012-10-07T12:14:59Z</time>
      </trkpt>
      <trkpt lat="50.40263" lon="3.30363">
        <ele>27.0543213</ele>
        <time>2012-10-07T12:15:07Z</time>
      </trkpt>
      <trkpt lat="50.4026" lon="3.30323">
        <ele>26.5736084</ele>
        <time>2012-10-07T12:15:12Z</time>
      </trkpt>
      <trkpt lat="50.40256" lon="3.30308">
        <ele>27.0543213</ele>
        <time>2012-10-07T12:15:16Z</time>
      </trkpt>
      <trkpt lat="50.40255" lon="3.30305">
        <ele>27.0543213</ele>
        <time>2012-10-07T12:15:17Z</time>
      </trkpt>
      <trkpt lat="50.40257" lon="3.30273">
        <ele>26.5736084</ele>
        <time>2012-10-07T12:15:23Z</time>
      </trkpt>
      <trkpt lat="50.40255" lon="3.30227">
        <ele>26.5736084</ele>
        <time>2012-10-07T12:15:29Z</time>
      </trkpt>
      <trkpt lat="50.40254" lon="3.30205">
        <ele>27.5349121</ele>
        <time>2012-10-07T12:15:32Z</time>
      </trkpt>
      <trkpt lat="50.40251" lon="3.30186">
        <ele>28.9769287</ele>
        <time>2012-10-07T12:15:35Z</time>
      </trkpt>
      <trkpt lat="50.40252" lon="3.30159">
        <ele>28.4962158</ele>
        <time>2012-10-07T12:15:40Z</time>
      </trkpt>
      <trkpt lat="50.40251" lon="3.30153">
        <ele>28.4962158</ele>
        <time>2012-10-07T12:15:41Z</time>
      </trkpt>
      <trkpt lat="50.40243" lon="3.30105">
        <ele>30.8995361</ele>
        <time>2012-10-07T12:15:48Z</time>
      </trkpt>
      <trkpt lat="50.4024" lon="3.30091">
        <ele>31.8607178</ele>
        <time>2012-10-07T12:15:50Z</time>
      </trkpt>
      <trkpt lat="50.40236" lon="3.30076">
        <ele>32.8222656</ele>
        <time>2012-10-07T12:15:52Z</time>
      </trkpt>
      <trkpt lat="50.40232" lon="3.30061">
        <ele>34.2641602</ele>
        <time>2012-10-07T12:15:54Z</time>
      </trkpt>
      <trkpt lat="50.40212" lon="3.29991">
        <ele>35.7060547</ele>
        <time>2012-10-07T12:16:03Z</time>
      </trkpt>
      <trkpt lat="50.40192" lon="3.2993">
        <ele>32.3415527</ele>
        <time>2012-10-07T12:16:10Z</time>
      </trkpt>
      <trkpt lat="50.40176" lon="3.29878">
        <ele>30.8995361</ele>
        <time>2012-10-07T12:16:16Z</time>
      </trkpt>
      <trkpt lat="50.40164" lon="3.29824">
        <ele>31.8607178</ele>
        <time>2012-10-07T12:16:22Z</time>
      </trkpt>
      <trkpt lat="50.40161" lon="3.29798">
        <ele>33.3028564</ele>
        <time>2012-10-07T12:16:25Z</time>
      </trkpt>
      <trkpt lat="50.4016" lon="3.29771">
        <ele>35.7060547</ele>
        <time>2012-10-07T12:16:28Z</time>
      </trkpt>
      <trkpt lat="50.40155" lon="3.29704">
        <ele>36.1867676</ele>
        <time>2012-10-07T12:16:35Z</time>
      </trkpt>
      <trkpt lat="50.40152" lon="3.29648">
        <ele>38.109375</ele>
        <time>2012-10-07T12:16:41Z</time>
      </trkpt>
      <trkpt lat="50.40154" lon="3.29592">
        <ele>40.0321045</ele>
        <time>2012-10-07T12:16:47Z</time>
      </trkpt>
      <trkpt lat="50.40147" lon="3.29555">
        <ele>38.109375</ele>
        <time>2012-10-07T12:16:52Z</time>
      </trkpt>
      <trkpt lat="50.40147" lon="3.29545">
        <ele>36.6674805</ele>
        <time>2012-10-07T12:16:55Z</time>
      </trkpt>
      <trkpt lat="50.40144" lon="3.29543">
        <ele>36.6674805</ele>
        <time>2012-10-07T12:16:57Z</time>
      </trkpt>
      <trkpt lat="50.40129" lon="3.29543">
        <ele>29.4575195</ele>
        <time>2012-10-07T12:17:03Z</time>
      </trkpt>
      <trkpt lat="50.40109" lon="3.29544">
        <ele>22.7282715</ele>
        <time>2012-10-07T12:17:09Z</time>
      </trkpt>
      <trkpt lat="50.40085" lon="3.29542">
        <ele>18.4023438</ele>
        <time>2012-10-07T12:17:13Z</time>
      </trkpt>
      <trkpt lat="50.4006" lon="3.2954">
        <ele>14.5570068</ele>
        <time>2012-10-07T12:17:17Z</time>
      </trkpt>
      <trkpt lat="50.40022" lon="3.29541">
        <ele>11.6732178</ele>
        <time>2012-10-07T12:17:23Z</time>
      </trkpt>
      <trkpt lat="50.39968" lon="3.29544">
        <ele>10.711792</ele>
        <time>2012-10-07T12:17:31Z</time>
      </trkpt>
      <trkpt lat="50.39922" lon="3.29541">
        <ele>2.0600586</ele>
        <time>2012-10-07T12:17:38Z</time>
      </trkpt>
      <trkpt lat="50.39894" lon="3.2954">
        <ele>-0.8240967</ele>
        <time>2012-10-07T12:17:42Z</time>
      </trkpt>
      <trkpt lat="50.39849" lon="3.29539">
        <ele>-6.1112061</ele>
        <time>2012-10-07T12:17:49Z</time>
      </trkpt>
      <trkpt lat="50.39809" lon="3.29539">
        <ele>-2.7467041</ele>
        <time>2012-10-07T12:17:55Z</time>
      </trkpt>
      <trkpt lat="50.39767" lon="3.2954">
        <ele>3.5019531</ele>
        <time>2012-10-07T12:18:02Z</time>
      </trkpt>
      <trkpt lat="50.39754" lon="3.29542">
        <ele>4.9438477</ele>
        <time>2012-10-07T12:18:06Z</time>
      </trkpt>
      <trkpt lat="50.39744" lon="3.29542">
        <ele>6.3858643</ele>
        <time>2012-10-07T12:18:11Z</time>
      </trkpt>
      <trkpt lat="50.39738" lon="3.2954">
        <ele>7.8278809</ele>
        <time>2012-10-07T12:18:13Z</time>
      </trkpt>
      <trkpt lat="50.39715" lon="3.29539">
        <ele>12.6343994</ele>
        <time>2012-10-07T12:18:19Z</time>
      </trkpt>
      <trkpt lat="50.39679" lon="3.29542">
        <ele>16.9604492</ele>
        <time>2012-10-07T12:18:26Z</time>
      </trkpt>
      <trkpt lat="50.3964" lon="3.29545">
        <ele>20.8056641</ele>
        <time>2012-10-07T12:18:33Z</time>
      </trkpt>
      <trkpt lat="50.39614" lon="3.29545">
        <ele>21.7669678</ele>
        <time>2012-10-07T12:18:38Z</time>
      </trkpt>
      <trkpt lat="50.39592" lon="3.29548">
        <ele>21.7669678</ele>
        <time>2012-10-07T12:18:42Z</time>
      </trkpt>
      <trkpt lat="50.39578" lon="3.29551">
        <ele>22.2475586</ele>
        <time>2012-10-07T12:18:45Z</time>
      </trkpt>
      <trkpt lat="50.39559" lon="3.29556">
        <ele>22.7282715</ele>
        <time>2012-10-07T12:18:49Z</time>
      </trkpt>
      <trkpt lat="50.39547" lon="3.29556">
        <ele>20.8056641</ele>
        <time>2012-10-07T12:18:52Z</time>
      </trkpt>
      <trkpt lat="50.39535" lon="3.29562">
        <ele>21.7669678</ele>
        <time>2012-10-07T12:18:58Z</time>
      </trkpt>
      <trkpt lat="50.39534" lon="3.29559">
        <ele>21.7669678</ele>
        <time>2012-10-07T12:19:03Z</time>
      </trkpt>
      <trkpt lat="50.39535" lon="3.29565">
        <ele>20.8056641</ele>
        <time>2012-10-07T12:19:07Z</time>
      </trkpt>
      <trkpt lat="50.39534" lon="3.29562">
        <ele>21.286377</ele>
        <time>2012-10-07T12:19:12Z</time>
      </trkpt>
      <trkpt lat="50.39536" lon="3.29566">
        <ele>21.286377</ele>
        <time>2012-10-07T12:19:16Z</time>
      </trkpt>
      <trkpt lat="50.39532" lon="3.29582">
        <ele>21.286377</ele>
        <time>2012-10-07T12:19:21Z</time>
      </trkpt>
      <trkpt lat="50.39532" lon="3.29592">
        <ele>20.8056641</ele>
        <time>2012-10-07T12:19:23Z</time>
      </trkpt>
      <trkpt lat="50.39538" lon="3.29648">
        <ele>17.4411621</ele>
        <time>2012-10-07T12:19:31Z</time>
      </trkpt>
      <trkpt lat="50.39542" lon="3.29704">
        <ele>18.8830566</ele>
        <time>2012-10-07T12:19:39Z</time>
      </trkpt>
      <trkpt lat="50.39548" lon="3.29757">
        <ele>19.3637695</ele>
        <time>2012-10-07T12:19:46Z</time>
      </trkpt>
      <trkpt lat="50.39551" lon="3.29771">
        <ele>19.8443604</ele>
        <time>2012-10-07T12:19:48Z</time>
      </trkpt>
      <trkpt lat="50.3956" lon="3.29833">
        <ele>20.8056641</ele>
        <time>2012-10-07T12:19:57Z</time>
      </trkpt>
      <trkpt lat="50.39563" lon="3.29848">
        <ele>20.8056641</ele>
        <time>2012-10-07T12:19:59Z</time>
      </trkpt>
      <trkpt lat="50.39565" lon="3.29874">
        <ele>19.3637695</ele>
        <time>2012-10-07T12:20:03Z</time>
      </trkpt>
      <trkpt lat="50.39568" lon="3.29912">
        <ele>18.8830566</ele>
        <time>2012-10-07T12:20:10Z</time>
      </trkpt>
      <trkpt lat="50.39574" lon="3.29965">
        <ele>17.9217529</ele>
        <time>2012-10-07T12:20:17Z</time>
      </trkpt>
      <trkpt lat="50.39577" lon="3.29995">
        <ele>17.9217529</ele>
        <time>2012-10-07T12:20:21Z</time>
      </trkpt>
      <trkpt lat="50.39581" lon="3.30025">
        <ele>17.4411621</ele>
        <time>2012-10-07T12:20:25Z</time>
      </trkpt>
      <trkpt lat="50.39573" lon="3.30036">
        <ele>17.4411621</ele>
        <time>2012-10-07T12:20:29Z</time>
      </trkpt>
      <trkpt lat="50.39552" lon="3.30042">
        <ele>17.4411621</ele>
        <time>2012-10-07T12:20:34Z</time>
      </trkpt>
      <trkpt lat="50.39538" lon="3.30047">
        <ele>16.9604492</ele>
        <time>2012-10-07T12:20:37Z</time>
      </trkpt>
      <trkpt lat="50.39514" lon="3.30056">
        <ele>16.9604492</ele>
        <time>2012-10-07T12:20:42Z</time>
      </trkpt>
      <trkpt lat="50.39481" lon="3.30063">
        <ele>16.9604492</ele>
        <time>2012-10-07T12:20:49Z</time>
      </trkpt>
      <trkpt lat="50.3944" lon="3.30072">
        <ele>19.3637695</ele>
        <time>2012-10-07T12:20:57Z</time>
      </trkpt>
      <trkpt lat="50.3942" lon="3.30078">
        <ele>19.8443604</ele>
        <time>2012-10-07T12:21:01Z</time>
      </trkpt>
      <trkpt lat="50.3941" lon="3.30082">
        <ele>21.286377</ele>
        <time>2012-10-07T12:21:03Z</time>
      </trkpt>
      <trkpt lat="50.39389" lon="3.30089">
        <ele>22.2475586</ele>
        <time>2012-10-07T12:21:08Z</time>
      </trkpt>
      <trkpt lat="50.3936" lon="3.30097">
        <ele>26.0928955</ele>
        <time>2012-10-07T12:21:14Z</time>
      </trkpt>
      <trkpt lat="50.39352" lon="3.301">
        <ele>27.0543213</ele>
        <time>2012-10-07T12:21:16Z</time>
      </trkpt>
      <trkpt lat="50.3932" lon="3.30111">
        <ele>23.2089844</ele>
        <time>2012-10-07T12:21:22Z</time>
      </trkpt>
      <trkpt lat="50.39271" lon="3.30122">
        <ele>19.8443604</ele>
        <time>2012-10-07T12:21:30Z</time>
      </trkpt>
      <trkpt lat="50.39224" lon="3.30133">
        <ele>17.9217529</ele>
        <time>2012-10-07T12:21:38Z</time>
      </trkpt>
      <trkpt lat="50.39186" lon="3.30142">
        <ele>16.9604492</ele>
        <time>2012-10-07T12:21:45Z</time>
      </trkpt>
      <trkpt lat="50.39172" lon="3.3016">
        <ele>18.8830566</ele>
        <time>2012-10-07T12:21:49Z</time>
      </trkpt>
      <trkpt lat="50.39173" lon="3.30181">
        <ele>19.8443604</ele>
        <time>2012-10-07T12:21:52Z</time>
      </trkpt>
      <trkpt lat="50.39174" lon="3.30188">
        <ele>19.8443604</ele>
        <time>2012-10-07T12:21:53Z</time>
      </trkpt>
      <trkpt lat="50.39176" lon="3.3024">
        <ele>18.8830566</ele>
        <time>2012-10-07T12:22:01Z</time>
      </trkpt>
      <trkpt lat="50.39179" lon="3.30281">
        <ele>18.4023438</ele>
        <time>2012-10-07T12:22:07Z</time>
      </trkpt>
      <trkpt lat="50.39183" lon="3.30334">
        <ele>17.9217529</ele>
        <time>2012-10-07T12:22:15Z</time>
      </trkpt>
      <trkpt lat="50.39186" lon="3.30381">
        <ele>16.9604492</ele>
        <time>2012-10-07T12:22:22Z</time>
      </trkpt>
      <trkpt lat="50.3919" lon="3.30435">
        <ele>16.4797363</ele>
        <time>2012-10-07T12:22:30Z</time>
      </trkpt>
      <trkpt lat="50.39195" lon="3.3049">
        <ele>15.9990234</ele>
        <time>2012-10-07T12:22:38Z</time>
      </trkpt>
      <trkpt lat="50.39199" lon="3.30529">
        <ele>16.4797363</ele>
        <time>2012-10-07T12:22:44Z</time>
      </trkpt>
      <trkpt lat="50.39192" lon="3.30555">
        <ele>16.9604492</ele>
        <time>2012-10-07T12:22:49Z</time>
      </trkpt>
      <trkpt lat="50.39183" lon="3.3056">
        <ele>17.4411621</ele>
        <time>2012-10-07T12:22:52Z</time>
      </trkpt>
      <trkpt lat="50.39152" lon="3.30568">
        <ele>19.3637695</ele>
        <time>2012-10-07T12:23:00Z</time>
      </trkpt>
      <trkpt lat="50.39128" lon="3.30574">
        <ele>19.8443604</ele>
        <time>2012-10-07T12:23:06Z</time>
      </trkpt>
      <trkpt lat="50.391" lon="3.3058">
        <ele>19.8443604</ele>
        <time>2012-10-07T12:23:13Z</time>
      </trkpt>
      <trkpt lat="50.39068" lon="3.30587">
        <ele>20.8056641</ele>
        <time>2012-10-07T12:23:22Z</time>
      </trkpt>
      <trkpt lat="50.3905" lon="3.3058">
        <ele>20.3249512</ele>
        <time>2012-10-07T12:23:28Z</time>
      </trkpt>
      <trkpt lat="50.39017" lon="3.30555">
        <ele>21.286377</ele>
        <time>2012-10-07T12:23:37Z</time>
      </trkpt>
      <trkpt lat="50.38991" lon="3.30535">
        <ele>20.3249512</ele>
        <time>2012-10-07T12:23:44Z</time>
      </trkpt>
      <trkpt lat="50.3897" lon="3.30516">
        <ele>20.3249512</ele>
        <time>2012-10-07T12:23:50Z</time>
      </trkpt>
      <trkpt lat="50.38947" lon="3.30495">
        <ele>19.3637695</ele>
        <time>2012-10-07T12:23:57Z</time>
      </trkpt>
      <trkpt lat="50.38916" lon="3.30467">
        <ele>18.8830566</ele>
        <time>2012-10-07T12:24:06Z</time>
      </trkpt>
      <trkpt lat="50.38892" lon="3.30442">
        <ele>19.8443604</ele>
        <time>2012-10-07T12:24:13Z</time>
      </trkpt>
      <trkpt lat="50.38879" lon="3.30429">
        <ele>20.3249512</ele>
        <time>2012-10-07T12:24:17Z</time>
      </trkpt>
      <trkpt lat="50.38863" lon="3.30418">
        <ele>21.7669678</ele>
        <time>2012-10-07T12:24:25Z</time>
      </trkpt>
      <trkpt lat="50.38849" lon="3.30411">
        <ele>22.2475586</ele>
        <time>2012-10-07T12:24:29Z</time>
      </trkpt>
      <trkpt lat="50.38831" lon="3.30396">
        <ele>23.2089844</ele>
        <time>2012-10-07T12:24:34Z</time>
      </trkpt>
      <trkpt lat="50.38807" lon="3.30381">
        <ele>23.2089844</ele>
        <time>2012-10-07T12:24:40Z</time>
      </trkpt>
      <trkpt lat="50.38773" lon="3.30361">
        <ele>23.2089844</ele>
        <time>2012-10-07T12:24:48Z</time>
      </trkpt>
      <trkpt lat="50.38737" lon="3.30337">
        <ele>23.2089844</ele>
        <time>2012-10-07T12:24:57Z</time>
      </trkpt>
      <trkpt lat="50.38705" lon="3.30315">
        <ele>23.2089844</ele>
        <time>2012-10-07T12:25:05Z</time>
      </trkpt>
      <trkpt lat="50.38681" lon="3.30299">
        <ele>23.6895752</ele>
        <time>2012-10-07T12:25:11Z</time>
      </trkpt>
      <trkpt lat="50.38644" lon="3.30279">
        <ele>24.1702881</ele>
        <time>2012-10-07T12:25:20Z</time>
      </trkpt>
      <trkpt lat="50.38624" lon="3.30268">
        <ele>24.651001</ele>
        <time>2012-10-07T12:25:25Z</time>
      </trkpt>
      <trkpt lat="50.38597" lon="3.3025">
        <ele>25.1317139</ele>
        <time>2012-10-07T12:25:32Z</time>
      </trkpt>
      <trkpt lat="50.38579" lon="3.30239">
        <ele>25.1317139</ele>
        <time>2012-10-07T12:25:37Z</time>
      </trkpt>
      <trkpt lat="50.38546" lon="3.3022">
        <ele>24.651001</ele>
        <time>2012-10-07T12:25:46Z</time>
      </trkpt>
      <trkpt lat="50.38527" lon="3.30206">
        <ele>25.1317139</ele>
        <time>2012-10-07T12:25:53Z</time>
      </trkpt>
      <trkpt lat="50.38508" lon="3.30192">
        <ele>25.6123047</ele>
        <time>2012-10-07T12:25:59Z</time>
      </trkpt>
      <trkpt lat="50.38491" lon="3.30176">
        <ele>26.0928955</ele>
        <time>2012-10-07T12:26:04Z</time>
      </trkpt>
      <trkpt lat="50.38474" lon="3.30166">
        <ele>25.6123047</ele>
        <time>2012-10-07T12:26:08Z</time>
      </trkpt>
      <trkpt lat="50.38463" lon="3.30157">
        <ele>25.6123047</ele>
        <time>2012-10-07T12:26:11Z</time>
      </trkpt>
      <trkpt lat="50.38444" lon="3.30144">
        <ele>25.6123047</ele>
        <time>2012-10-07T12:26:16Z</time>
      </trkpt>
      <trkpt lat="50.38423" lon="3.30132">
        <ele>26.5736084</ele>
        <time>2012-10-07T12:26:21Z</time>
      </trkpt>
      <trkpt lat="50.38393" lon="3.30112">
        <ele>26.0928955</ele>
        <time>2012-10-07T12:26:28Z</time>
      </trkpt>
      <trkpt lat="50.38359" lon="3.30069">
        <ele>26.5736084</ele>
        <time>2012-10-07T12:26:37Z</time>
      </trkpt>
      <trkpt lat="50.38337" lon="3.30044">
        <ele>26.5736084</ele>
        <time>2012-10-07T12:26:43Z</time>
      </trkpt>
      <trkpt lat="50.38334" lon="3.30041">
        <ele>26.5736084</ele>
        <time>2012-10-07T12:26:44Z</time>
      </trkpt>
      <trkpt lat="50.38321" lon="3.30042">
        <ele>25.1317139</ele>
        <time>2012-10-07T12:26:48Z</time>
      </trkpt>
      <trkpt lat="50.38316" lon="3.30048">
        <ele>24.651001</ele>
        <time>2012-10-07T12:26:51Z</time>
      </trkpt>
      <trkpt lat="50.38311" lon="3.30051">
        <ele>24.651001</ele>
        <time>2012-10-07T12:26:53Z</time>
      </trkpt>
      <trkpt lat="50.38277" lon="3.30074">
        <ele>24.1702881</ele>
        <time>2012-10-07T12:27:01Z</time>
      </trkpt>
      <trkpt lat="50.38234" lon="3.30105">
        <ele>24.651001</ele>
        <time>2012-10-07T12:27:10Z</time>
      </trkpt>
      <trkpt lat="50.382" lon="3.3013">
        <ele>23.6895752</ele>
        <time>2012-10-07T12:27:17Z</time>
      </trkpt>
      <trkpt lat="50.38154" lon="3.30165">
        <ele>24.651001</ele>
        <time>2012-10-07T12:27:26Z</time>
      </trkpt>
      <trkpt lat="50.38103" lon="3.30211">
        <ele>25.6123047</ele>
        <time>2012-10-07T12:27:36Z</time>
      </trkpt>
      <trkpt lat="50.38054" lon="3.30251">
        <ele>26.0928955</ele>
        <time>2012-10-07T12:27:45Z</time>
      </trkpt>
      <trkpt lat="50.38005" lon="3.30287">
        <ele>25.6123047</ele>
        <time>2012-10-07T12:27:54Z</time>
      </trkpt>
      <trkpt lat="50.37984" lon="3.30301">
        <ele>25.6123047</ele>
        <time>2012-10-07T12:27:58Z</time>
      </trkpt>
      <trkpt lat="50.37979" lon="3.30305">
        <ele>26.0928955</ele>
        <time>2012-10-07T12:28:03Z</time>
      </trkpt>
      <trkpt lat="50.37979" lon="3.30305">
        <ele>25.6123047</ele>
        <time>2012-10-07T12:28:04Z</time>
      </trkpt>
      <trkpt lat="50.37975" lon="3.30308">
        <ele>26.5736084</ele>
        <time>2012-10-07T12:28:12Z</time>
      </trkpt>
      <trkpt lat="50.37963" lon="3.30317">
        <ele>26.5736084</ele>
        <time>2012-10-07T12:28:15Z</time>
      </trkpt>
      <trkpt lat="50.37931" lon="3.30336">
        <ele>27.0543213</ele>
        <time>2012-10-07T12:28:22Z</time>
      </trkpt>
      <trkpt lat="50.37898" lon="3.3036">
        <ele>27.0543213</ele>
        <time>2012-10-07T12:28:29Z</time>
      </trkpt>
      <trkpt lat="50.37879" lon="3.30376">
        <ele>27.5349121</ele>
        <time>2012-10-07T12:28:33Z</time>
      </trkpt>
      <trkpt lat="50.37856" lon="3.30385">
        <ele>28.4962158</ele>
        <time>2012-10-07T12:28:37Z</time>
      </trkpt>
      <trkpt lat="50.37809" lon="3.30413">
        <ele>28.9769287</ele>
        <time>2012-10-07T12:28:46Z</time>
      </trkpt>
      <trkpt lat="50.37791" lon="3.30423">
        <ele>28.9769287</ele>
        <time>2012-10-07T12:28:50Z</time>
      </trkpt>
      <trkpt lat="50.37772" lon="3.30432">
        <ele>28.0155029</ele>
        <time>2012-10-07T12:28:56Z</time>
      </trkpt>
      <trkpt lat="50.37749" lon="3.30443">
        <ele>27.5349121</ele>
        <time>2012-10-07T12:29:01Z</time>
      </trkpt>
      <trkpt lat="50.37696" lon="3.30471">
        <ele>28.0155029</ele>
        <time>2012-10-07T12:29:11Z</time>
      </trkpt>
      <trkpt lat="50.37663" lon="3.30488">
        <ele>28.0155029</ele>
        <time>2012-10-07T12:29:17Z</time>
      </trkpt>
      <trkpt lat="50.37616" lon="3.3051">
        <ele>28.4962158</ele>
        <time>2012-10-07T12:29:25Z</time>
      </trkpt>
      <trkpt lat="50.37599" lon="3.30522">
        <ele>28.9769287</ele>
        <time>2012-10-07T12:29:28Z</time>
      </trkpt>
      <trkpt lat="50.3754" lon="3.30552">
        <ele>30.4188232</ele>
        <time>2012-10-07T12:29:38Z</time>
      </trkpt>
      <trkpt lat="50.37504" lon="3.30567">
        <ele>31.380127</ele>
        <time>2012-10-07T12:29:44Z</time>
      </trkpt>
      <trkpt lat="50.37451" lon="3.30586">
        <ele>30.8995361</ele>
        <time>2012-10-07T12:29:53Z</time>
      </trkpt>
      <trkpt lat="50.37399" lon="3.30609">
        <ele>31.8607178</ele>
        <time>2012-10-07T12:30:02Z</time>
      </trkpt>
      <trkpt lat="50.37389" lon="3.30614">
        <ele>31.380127</ele>
        <time>2012-10-07T12:30:04Z</time>
      </trkpt>
      <trkpt lat="50.37377" lon="3.30625">
        <ele>29.9381104</ele>
        <time>2012-10-07T12:30:07Z</time>
      </trkpt>
      <trkpt lat="50.37362" lon="3.30647">
        <ele>28.4962158</ele>
        <time>2012-10-07T12:30:12Z</time>
      </trkpt>
      <trkpt lat="50.37358" lon="3.30649">
        <ele>28.0155029</ele>
        <time>2012-10-07T12:30:13Z</time>
      </trkpt>
      <trkpt lat="50.37338" lon="3.30659">
        <ele>25.6123047</ele>
        <time>2012-10-07T12:30:19Z</time>
      </trkpt>
      <trkpt lat="50.37312" lon="3.30671">
        <ele>26.0928955</ele>
        <time>2012-10-07T12:30:24Z</time>
      </trkpt>
      <trkpt lat="50.37257" lon="3.30698">
        <ele>27.5349121</ele>
        <time>2012-10-07T12:30:34Z</time>
      </trkpt>
      <trkpt lat="50.37217" lon="3.30717">
        <ele>28.9769287</ele>
        <time>2012-10-07T12:30:41Z</time>
      </trkpt>
      <trkpt lat="50.37181" lon="3.3074">
        <ele>28.4962158</ele>
        <time>2012-10-07T12:30:48Z</time>
      </trkpt>
      <trkpt lat="50.37142" lon="3.30759">
        <ele>28.9769287</ele>
        <time>2012-10-07T12:30:56Z</time>
      </trkpt>
      <trkpt lat="50.37108" lon="3.30781">
        <ele>28.9769287</ele>
        <time>2012-10-07T12:31:04Z</time>
      </trkpt>
      <trkpt lat="50.37101" lon="3.30785">
        <ele>28.9769287</ele>
        <time>2012-10-07T12:31:06Z</time>
      </trkpt>
      <trkpt lat="50.37094" lon="3.30786">
        <ele>28.0155029</ele>
        <time>2012-10-07T12:31:11Z</time>
      </trkpt>
      <trkpt lat="50.37088" lon="3.30789">
        <ele>28.4962158</ele>
        <time>2012-10-07T12:31:14Z</time>
      </trkpt>
      <trkpt lat="50.37078" lon="3.30794">
        <ele>28.0155029</ele>
        <time>2012-10-07T12:31:18Z</time>
      </trkpt>
      <trkpt lat="50.37066" lon="3.30797">
        <ele>28.4962158</ele>
        <time>2012-10-07T12:31:23Z</time>
      </trkpt>
      <trkpt lat="50.37036" lon="3.30811">
        <ele>28.4962158</ele>
        <time>2012-10-07T12:31:30Z</time>
      </trkpt>
      <trkpt lat="50.36998" lon="3.30827">
        <ele>29.4575195</ele>
        <time>2012-10-07T12:31:37Z</time>
      </trkpt>
      <trkpt lat="50.36968" lon="3.30842">
        <ele>29.4575195</ele>
        <time>2012-10-07T12:31:43Z</time>
      </trkpt>
      <trkpt lat="50.36917" lon="3.3086">
        <ele>31.8607178</ele>
        <time>2012-10-07T12:31:52Z</time>
      </trkpt>
      <trkpt lat="50.3688" lon="3.30871">
        <ele>31.8607178</ele>
        <time>2012-10-07T12:31:59Z</time>
      </trkpt>
      <trkpt lat="50.36851" lon="3.30878">
        <ele>29.9381104</ele>
        <time>2012-10-07T12:32:06Z</time>
      </trkpt>
      <trkpt lat="50.36847" lon="3.30892">
        <ele>28.9769287</ele>
        <time>2012-10-07T12:32:10Z</time>
      </trkpt>
      <trkpt lat="50.36848" lon="3.30933">
        <ele>27.5349121</ele>
        <time>2012-10-07T12:32:16Z</time>
      </trkpt>
      <trkpt lat="50.36849" lon="3.30995">
        <ele>25.6123047</ele>
        <time>2012-10-07T12:32:23Z</time>
      </trkpt>
      <trkpt lat="50.36841" lon="3.31055">
        <ele>25.1317139</ele>
        <time>2012-10-07T12:32:30Z</time>
      </trkpt>
      <trkpt lat="50.36839" lon="3.31064">
        <ele>25.6123047</ele>
        <time>2012-10-07T12:32:31Z</time>
      </trkpt>
      <trkpt lat="50.36823" lon="3.31085">
        <ele>25.6123047</ele>
        <time>2012-10-07T12:32:35Z</time>
      </trkpt>
      <trkpt lat="50.36818" lon="3.31085">
        <ele>25.6123047</ele>
        <time>2012-10-07T12:32:36Z</time>
      </trkpt>
      <trkpt lat="50.36767" lon="3.31076">
        <ele>26.5736084</ele>
        <time>2012-10-07T12:32:45Z</time>
      </trkpt>
      <trkpt lat="50.36708" lon="3.31063">
        <ele>27.5349121</ele>
        <time>2012-10-07T12:32:55Z</time>
      </trkpt>
      <trkpt lat="50.36658" lon="3.31053">
        <ele>28.0155029</ele>
        <time>2012-10-07T12:33:03Z</time>
      </trkpt>
      <trkpt lat="50.36608" lon="3.31041">
        <ele>28.4962158</ele>
        <time>2012-10-07T12:33:11Z</time>
      </trkpt>
      <trkpt lat="50.36566" lon="3.31032">
        <ele>29.4575195</ele>
        <time>2012-10-07T12:33:18Z</time>
      </trkpt>
      <trkpt lat="50.36526" lon="3.31026">
        <ele>29.9381104</ele>
        <time>2012-10-07T12:33:25Z</time>
      </trkpt>
      <trkpt lat="50.3649" lon="3.31021">
        <ele>30.4188232</ele>
        <time>2012-10-07T12:33:32Z</time>
      </trkpt>
      <trkpt lat="50.36456" lon="3.31018">
        <ele>29.9381104</ele>
        <time>2012-10-07T12:33:39Z</time>
      </trkpt>
      <trkpt lat="50.3641" lon="3.31008">
        <ele>30.8995361</ele>
        <time>2012-10-07T12:33:48Z</time>
      </trkpt>
      <trkpt lat="50.36359" lon="3.30999">
        <ele>31.380127</ele>
        <time>2012-10-07T12:33:58Z</time>
      </trkpt>
      <trkpt lat="50.36345" lon="3.30996">
        <ele>31.8607178</ele>
        <time>2012-10-07T12:34:01Z</time>
      </trkpt>
      <trkpt lat="50.36338" lon="3.30994">
        <ele>31.380127</ele>
        <time>2012-10-07T12:34:03Z</time>
      </trkpt>
      <trkpt lat="50.36332" lon="3.31007">
        <ele>31.380127</ele>
        <time>2012-10-07T12:34:07Z</time>
      </trkpt>
      <trkpt lat="50.36332" lon="3.3102">
        <ele>31.380127</ele>
        <time>2012-10-07T12:34:09Z</time>
      </trkpt>
      <trkpt lat="50.36328" lon="3.31084">
        <ele>32.3415527</ele>
        <time>2012-10-07T12:34:17Z</time>
      </trkpt>
      <trkpt lat="50.36324" lon="3.31107">
        <ele>31.380127</ele>
        <time>2012-10-07T12:34:20Z</time>
      </trkpt>
      <trkpt lat="50.3632" lon="3.31128">
        <ele>30.8995361</ele>
        <time>2012-10-07T12:34:23Z</time>
      </trkpt>
      <trkpt lat="50.36314" lon="3.31149">
        <ele>28.9769287</ele>
        <time>2012-10-07T12:34:29Z</time>
      </trkpt>
      <trkpt lat="50.36313" lon="3.31153">
        <ele>28.4962158</ele>
        <time>2012-10-07T12:34:31Z</time>
      </trkpt>
      <trkpt lat="50.3632" lon="3.31163">
        <ele>28.9769287</ele>
        <time>2012-10-07T12:34:35Z</time>
      </trkpt>
      <trkpt lat="50.36327" lon="3.31181">
        <ele>28.4962158</ele>
        <time>2012-10-07T12:34:38Z</time>
      </trkpt>
      <trkpt lat="50.36328" lon="3.31188">
        <ele>28.0155029</ele>
        <time>2012-10-07T12:34:39Z</time>
      </trkpt>
      <trkpt lat="50.36329" lon="3.31233">
        <ele>25.6123047</ele>
        <time>2012-10-07T12:34:46Z</time>
      </trkpt>
      <trkpt lat="50.36327" lon="3.31236">
        <ele>24.651001</ele>
        <time>2012-10-07T12:34:48Z</time>
      </trkpt>
      <trkpt lat="50.36333" lon="3.3125">
        <ele>22.7282715</ele>
        <time>2012-10-07T12:34:53Z</time>
      </trkpt>
      <trkpt lat="50.36335" lon="3.31252">
        <ele>22.7282715</ele>
        <time>2012-10-07T12:34:54Z</time>
      </trkpt>
      <trkpt lat="50.36338" lon="3.31273">
        <ele>20.8056641</ele>
        <time>2012-10-07T12:35:00Z</time>
      </trkpt>
      <trkpt lat="50.36342" lon="3.31314">
        <ele>20.3249512</ele>
        <time>2012-10-07T12:35:06Z</time>
      </trkpt>
      <trkpt lat="50.36348" lon="3.31369">
        <ele>20.8056641</ele>
        <time>2012-10-07T12:35:13Z</time>
      </trkpt>
      <trkpt lat="50.36351" lon="3.314">
        <ele>21.286377</ele>
        <time>2012-10-07T12:35:17Z</time>
      </trkpt>
      <trkpt lat="50.36352" lon="3.31423">
        <ele>21.7669678</ele>
        <time>2012-10-07T12:35:20Z</time>
      </trkpt>
      <trkpt lat="50.36356" lon="3.31454">
        <ele>23.2089844</ele>
        <time>2012-10-07T12:35:24Z</time>
      </trkpt>
      <trkpt lat="50.36363" lon="3.31492">
        <ele>25.6123047</ele>
        <time>2012-10-07T12:35:29Z</time>
      </trkpt>
      <trkpt lat="50.36374" lon="3.31541">
        <ele>26.5736084</ele>
        <time>2012-10-07T12:35:37Z</time>
      </trkpt>
      <trkpt lat="50.36375" lon="3.31547">
        <ele>25.1317139</ele>
        <time>2012-10-07T12:35:40Z</time>
      </trkpt>
      <trkpt lat="50.36373" lon="3.31555">
        <ele>25.1317139</ele>
        <time>2012-10-07T12:35:43Z</time>
      </trkpt>
      <trkpt lat="50.36375" lon="3.31567">
        <ele>24.651001</ele>
        <time>2012-10-07T12:35:48Z</time>
      </trkpt>
      <trkpt lat="50.3638" lon="3.31597">
        <ele>24.1702881</ele>
        <time>2012-10-07T12:35:53Z</time>
      </trkpt>
      <trkpt lat="50.3639" lon="3.31658">
        <ele>22.2475586</ele>
        <time>2012-10-07T12:36:01Z</time>
      </trkpt>
      <trkpt lat="50.36394" lon="3.3168">
        <ele>23.6895752</ele>
        <time>2012-10-07T12:36:04Z</time>
      </trkpt>
      <trkpt lat="50.36396" lon="3.31696">
        <ele>23.2089844</ele>
        <time>2012-10-07T12:36:08Z</time>
      </trkpt>
      <trkpt lat="50.36389" lon="3.31705">
        <ele>23.2089844</ele>
        <time>2012-10-07T12:36:11Z</time>
      </trkpt>
      <trkpt lat="50.36364" lon="3.31732">
        <ele>26.0928955</ele>
        <time>2012-10-07T12:36:19Z</time>
      </trkpt>
      <trkpt lat="50.36335" lon="3.31763">
        <ele>30.4188232</ele>
        <time>2012-10-07T12:36:26Z</time>
      </trkpt>
      <trkpt lat="50.36298" lon="3.31801">
        <ele>31.380127</ele>
        <time>2012-10-07T12:36:34Z</time>
      </trkpt>
      <trkpt lat="50.3626" lon="3.31824">
        <ele>30.8995361</ele>
        <time>2012-10-07T12:36:41Z</time>
      </trkpt>
      <trkpt lat="50.36216" lon="3.31834">
        <ele>30.8995361</ele>
        <time>2012-10-07T12:36:49Z</time>
      </trkpt>
      <trkpt lat="50.36183" lon="3.31834">
        <ele>30.4188232</ele>
        <time>2012-10-07T12:36:55Z</time>
      </trkpt>
      <trkpt lat="50.36143" lon="3.31835">
        <ele>31.8607178</ele>
        <time>2012-10-07T12:37:02Z</time>
      </trkpt>
      <trkpt lat="50.36103" lon="3.31832">
        <ele>33.3028564</ele>
        <time>2012-10-07T12:37:09Z</time>
      </trkpt>
      <trkpt lat="50.36068" lon="3.31828">
        <ele>30.8995361</ele>
        <time>2012-10-07T12:37:16Z</time>
      </trkpt>
      <trkpt lat="50.36059" lon="3.31827">
        <ele>29.4575195</ele>
        <time>2012-10-07T12:37:18Z</time>
      </trkpt>
      <trkpt lat="50.36048" lon="3.31825">
        <ele>27.5349121</ele>
        <time>2012-10-07T12:37:23Z</time>
      </trkpt>
      <trkpt lat="50.36041" lon="3.31822">
        <ele>26.5736084</ele>
        <time>2012-10-07T12:37:26Z</time>
      </trkpt>
      <trkpt lat="50.36014" lon="3.31822">
        <ele>28.4962158</ele>
        <time>2012-10-07T12:37:32Z</time>
      </trkpt>
      <trkpt lat="50.35976" lon="3.31822">
        <ele>33.7834473</ele>
        <time>2012-10-07T12:37:39Z</time>
      </trkpt>
      <trkpt lat="50.35932" lon="3.31823">
        <ele>33.7834473</ele>
        <time>2012-10-07T12:37:47Z</time>
      </trkpt>
      <trkpt lat="50.35878" lon="3.31825">
        <ele>32.8222656</ele>
        <time>2012-10-07T12:37:57Z</time>
      </trkpt>
      <trkpt lat="50.35862" lon="3.31826">
        <ele>30.8995361</ele>
        <time>2012-10-07T12:38:00Z</time>
      </trkpt>
      <trkpt lat="50.35795" lon="3.31836">
        <ele>30.8995361</ele>
        <time>2012-10-07T12:38:12Z</time>
      </trkpt>
      <trkpt lat="50.35746" lon="3.31843">
        <ele>28.4962158</ele>
        <time>2012-10-07T12:38:21Z</time>
      </trkpt>
      <trkpt lat="50.35697" lon="3.3185">
        <ele>30.4188232</ele>
        <time>2012-10-07T12:38:30Z</time>
      </trkpt>
      <trkpt lat="50.35654" lon="3.31856">
        <ele>28.0155029</ele>
        <time>2012-10-07T12:38:38Z</time>
      </trkpt>
      <trkpt lat="50.35593" lon="3.31858">
        <ele>26.0928955</ele>
        <time>2012-10-07T12:38:49Z</time>
      </trkpt>
      <trkpt lat="50.35526" lon="3.31849">
        <ele>28.9769287</ele>
        <time>2012-10-07T12:39:01Z</time>
      </trkpt>
      <trkpt lat="50.35482" lon="3.31843">
        <ele>30.8995361</ele>
        <time>2012-10-07T12:39:09Z</time>
      </trkpt>
      <trkpt lat="50.35427" lon="3.31835">
        <ele>36.6674805</ele>
        <time>2012-10-07T12:39:19Z</time>
      </trkpt>
      <trkpt lat="50.35378" lon="3.31831">
        <ele>40.9934082</ele>
        <time>2012-10-07T12:39:28Z</time>
      </trkpt>
      <trkpt lat="50.35322" lon="3.31827">
        <ele>44.3580322</ele>
        <time>2012-10-07T12:39:38Z</time>
      </trkpt>
      <trkpt lat="50.35274" lon="3.31828">
        <ele>43.8773193</ele>
        <time>2012-10-07T12:39:46Z</time>
      </trkpt>
      <trkpt lat="50.35253" lon="3.3183">
        <ele>45.7999268</ele>
        <time>2012-10-07T12:39:50Z</time>
      </trkpt>
      <trkpt lat="50.35221" lon="3.3184">
        <ele>49.1645508</ele>
        <time>2012-10-07T12:39:56Z</time>
      </trkpt>
      <trkpt lat="50.35213" lon="3.3184">
        <ele>49.1645508</ele>
        <time>2012-10-07T12:39:58Z</time>
      </trkpt>
      <trkpt lat="50.35205" lon="3.31841">
        <ele>49.6452637</ele>
        <time>2012-10-07T12:40:00Z</time>
      </trkpt>
      <trkpt lat="50.35195" lon="3.31842">
        <ele>49.1645508</ele>
        <time>2012-10-07T12:40:04Z</time>
      </trkpt>
      <trkpt lat="50.35181" lon="3.3185">
        <ele>49.1645508</ele>
        <time>2012-10-07T12:40:11Z</time>
      </trkpt>
      <trkpt lat="50.35163" lon="3.31857">
        <ele>49.6452637</ele>
        <time>2012-10-07T12:40:16Z</time>
      </trkpt>
      <trkpt lat="50.35124" lon="3.31873">
        <ele>49.1645508</ele>
        <time>2012-10-07T12:40:25Z</time>
      </trkpt>
      <trkpt lat="50.35082" lon="3.31889">
        <ele>50.1259766</ele>
        <time>2012-10-07T12:40:34Z</time>
      </trkpt>
      <trkpt lat="50.35034" lon="3.31904">
        <ele>51.5678711</ele>
        <time>2012-10-07T12:40:44Z</time>
      </trkpt>
      <trkpt lat="50.34987" lon="3.31925">
        <ele>52.5291748</ele>
        <time>2012-10-07T12:40:54Z</time>
      </trkpt>
      <trkpt lat="50.34943" lon="3.31952">
        <ele>53.9711914</ele>
        <time>2012-10-07T12:41:04Z</time>
      </trkpt>
      <trkpt lat="50.34903" lon="3.31974">
        <ele>54.932373</ele>
        <time>2012-10-07T12:41:13Z</time>
      </trkpt>
      <trkpt lat="50.34868" lon="3.31994">
        <ele>55.4130859</ele>
        <time>2012-10-07T12:41:21Z</time>
      </trkpt>
      <trkpt lat="50.34823" lon="3.32017">
        <ele>56.3745117</ele>
        <time>2012-10-07T12:41:31Z</time>
      </trkpt>
      <trkpt lat="50.34785" lon="3.32038">
        <ele>56.3745117</ele>
        <time>2012-10-07T12:41:40Z</time>
      </trkpt>
      <trkpt lat="50.34757" lon="3.32055">
        <ele>56.3745117</ele>
        <time>2012-10-07T12:41:47Z</time>
      </trkpt>
      <trkpt lat="50.34718" lon="3.32084">
        <ele>56.8551025</ele>
        <time>2012-10-07T12:41:56Z</time>
      </trkpt>
      <trkpt lat="50.34678" lon="3.32113">
        <ele>57.3358154</ele>
        <time>2012-10-07T12:42:05Z</time>
      </trkpt>
      <trkpt lat="50.34636" lon="3.3214">
        <ele>56.8551025</ele>
        <time>2012-10-07T12:42:14Z</time>
      </trkpt>
      <trkpt lat="50.3459" lon="3.32169">
        <ele>57.8165283</ele>
        <time>2012-10-07T12:42:24Z</time>
      </trkpt>
      <trkpt lat="50.34543" lon="3.32198">
        <ele>57.8165283</ele>
        <time>2012-10-07T12:42:34Z</time>
      </trkpt>
      <trkpt lat="50.34489" lon="3.32232">
        <ele>58.77771</ele>
        <time>2012-10-07T12:42:45Z</time>
      </trkpt>
      <trkpt lat="50.34479" lon="3.32239">
        <ele>58.77771</ele>
        <time>2012-10-07T12:42:47Z</time>
      </trkpt>
      <trkpt lat="50.34466" lon="3.32253">
        <ele>59.2584229</ele>
        <time>2012-10-07T12:42:50Z</time>
      </trkpt>
      <trkpt lat="50.34452" lon="3.32277">
        <ele>59.7391357</ele>
        <time>2012-10-07T12:42:54Z</time>
      </trkpt>
      <trkpt lat="50.34425" lon="3.32325">
        <ele>59.7391357</ele>
        <time>2012-10-07T12:43:02Z</time>
      </trkpt>
      <trkpt lat="50.34418" lon="3.32337">
        <ele>60.2197266</ele>
        <time>2012-10-07T12:43:04Z</time>
      </trkpt>
      <trkpt lat="50.34385" lon="3.32375">
        <ele>59.2584229</ele>
        <time>2012-10-07T12:43:12Z</time>
      </trkpt>
      <trkpt lat="50.34345" lon="3.32413">
        <ele>58.77771</ele>
        <time>2012-10-07T12:43:21Z</time>
      </trkpt>
      <trkpt lat="50.34307" lon="3.32444">
        <ele>58.2971191</ele>
        <time>2012-10-07T12:43:29Z</time>
      </trkpt>
      <trkpt lat="50.34268" lon="3.32471">
        <ele>56.3745117</ele>
        <time>2012-10-07T12:43:37Z</time>
      </trkpt>
      <trkpt lat="50.34229" lon="3.32501">
        <ele>56.3745117</ele>
        <time>2012-10-07T12:43:45Z</time>
      </trkpt>
      <trkpt lat="50.34188" lon="3.32531">
        <ele>54.932373</ele>
        <time>2012-10-07T12:43:54Z</time>
      </trkpt>
      <trkpt lat="50.34158" lon="3.32552">
        <ele>53.9711914</ele>
        <time>2012-10-07T12:44:01Z</time>
      </trkpt>
      <trkpt lat="50.34145" lon="3.32562">
        <ele>53.4904785</ele>
        <time>2012-10-07T12:44:04Z</time>
      </trkpt>
      <trkpt lat="50.34134" lon="3.32575">
        <ele>53.4904785</ele>
        <time>2012-10-07T12:44:07Z</time>
      </trkpt>
      <trkpt lat="50.34125" lon="3.32594">
        <ele>51.5678711</ele>
        <time>2012-10-07T12:44:12Z</time>
      </trkpt>
      <trkpt lat="50.34129" lon="3.32589">
        <ele>51.0871582</ele>
        <time>2012-10-07T12:44:15Z</time>
      </trkpt>
      <trkpt lat="50.34126" lon="3.32572">
        <ele>51.5678711</ele>
        <time>2012-10-07T12:44:19Z</time>
      </trkpt>
      <trkpt lat="50.34124" lon="3.32554">
        <ele>52.5291748</ele>
        <time>2012-10-07T12:44:23Z</time>
      </trkpt>
      <trkpt lat="50.34113" lon="3.32518">
        <ele>53.0097656</ele>
        <time>2012-10-07T12:44:29Z</time>
      </trkpt>
      <trkpt lat="50.34106" lon="3.32491">
        <ele>53.0097656</ele>
        <time>2012-10-07T12:44:33Z</time>
      </trkpt>
      <trkpt lat="50.34099" lon="3.32459">
        <ele>55.4130859</ele>
        <time>2012-10-07T12:44:39Z</time>
      </trkpt>
      <trkpt lat="50.34098" lon="3.32453">
        <ele>57.8165283</ele>
        <time>2012-10-07T12:44:43Z</time>
      </trkpt>
      <trkpt lat="50.34098" lon="3.32453">
        <ele>58.2971191</ele>
        <time>2012-10-07T12:44:44Z</time>
      </trkpt>
      <trkpt lat="50.34097" lon="3.32467">
        <ele>66.9489746</ele>
        <time>2012-10-07T12:45:22Z</time>
      </trkpt>
      <trkpt lat="50.34097" lon="3.32483">
        <ele>64.0650635</ele>
        <time>2012-10-07T12:45:25Z</time>
      </trkpt>
      <trkpt lat="50.34092" lon="3.32486">
        <ele>64.5456543</ele>
        <time>2012-10-07T12:45:27Z</time>
      </trkpt>
      <trkpt lat="50.34069" lon="3.32485">
        <ele>61.6617432</ele>
        <time>2012-10-07T12:45:34Z</time>
      </trkpt>
      <trkpt lat="50.34057" lon="3.3247">
        <ele>62.6229248</ele>
        <time>2012-10-07T12:45:39Z</time>
      </trkpt>
      <trkpt lat="50.34053" lon="3.32465">
        <ele>60.2197266</ele>
        <time>2012-10-07T12:45:41Z</time>
      </trkpt>
      <trkpt lat="50.34041" lon="3.32469">
        <ele>56.8551025</ele>
        <time>2012-10-07T12:45:45Z</time>
      </trkpt>
      <trkpt lat="50.34014" lon="3.32479">
        <ele>56.8551025</ele>
        <time>2012-10-07T12:45:51Z</time>
      </trkpt>
      <trkpt lat="50.33994" lon="3.32486">
        <ele>55.8937988</ele>
        <time>2012-10-07T12:45:55Z</time>
      </trkpt>
      <trkpt lat="50.33978" lon="3.32505">
        <ele>58.2971191</ele>
        <time>2012-10-07T12:45:59Z</time>
      </trkpt>
      <trkpt lat="50.33958" lon="3.32529">
        <ele>57.3358154</ele>
        <time>2012-10-07T12:46:04Z</time>
      </trkpt>
      <trkpt lat="50.33945" lon="3.32544">
        <ele>58.2971191</ele>
        <time>2012-10-07T12:46:07Z</time>
      </trkpt>
      <trkpt lat="50.33904" lon="3.32578">
        <ele>57.3358154</ele>
        <time>2012-10-07T12:46:15Z</time>
      </trkpt>
      <trkpt lat="50.3388" lon="3.32589">
        <ele>56.8551025</ele>
        <time>2012-10-07T12:46:19Z</time>
      </trkpt>
      <trkpt lat="50.33859" lon="3.32584">
        <ele>56.3745117</ele>
        <time>2012-10-07T12:46:23Z</time>
      </trkpt>
      <trkpt lat="50.33851" lon="3.32564">
        <ele>56.3745117</ele>
        <time>2012-10-07T12:46:26Z</time>
      </trkpt>
      <trkpt lat="50.33851" lon="3.32555">
        <ele>55.8937988</ele>
        <time>2012-10-07T12:46:27Z</time>
      </trkpt>
      <trkpt lat="50.33852" lon="3.32487">
        <ele>56.8551025</ele>
        <time>2012-10-07T12:46:35Z</time>
      </trkpt>
      <trkpt lat="50.33854" lon="3.32429">
        <ele>57.3358154</ele>
        <time>2012-10-07T12:46:42Z</time>
      </trkpt>
      <trkpt lat="50.33854" lon="3.32393">
        <ele>57.3358154</ele>
        <time>2012-10-07T12:46:47Z</time>
      </trkpt>
      <trkpt lat="50.33853" lon="3.32358">
        <ele>57.3358154</ele>
        <time>2012-10-07T12:46:52Z</time>
      </trkpt>
      <trkpt lat="50.33852" lon="3.32344">
        <ele>56.8551025</ele>
        <time>2012-10-07T12:46:54Z</time>
      </trkpt>
      <trkpt lat="50.33851" lon="3.32311">
        <ele>57.3358154</ele>
        <time>2012-10-07T12:46:58Z</time>
      </trkpt>
      <trkpt lat="50.33847" lon="3.32263">
        <ele>59.7391357</ele>
        <time>2012-10-07T12:47:04Z</time>
      </trkpt>
      <trkpt lat="50.33848" lon="3.3223">
        <ele>58.77771</ele>
        <time>2012-10-07T12:47:08Z</time>
      </trkpt>
      <trkpt lat="50.33845" lon="3.32203">
        <ele>56.3745117</ele>
        <time>2012-10-07T12:47:12Z</time>
      </trkpt>
      <trkpt lat="50.33838" lon="3.32207">
        <ele>55.8937988</ele>
        <time>2012-10-07T12:47:14Z</time>
      </trkpt>
      <trkpt lat="50.3383" lon="3.32213">
        <ele>56.8551025</ele>
        <time>2012-10-07T12:47:16Z</time>
      </trkpt>
      <trkpt lat="50.33823" lon="3.32217">
        <ele>56.8551025</ele>
        <time>2012-10-07T12:47:18Z</time>
      </trkpt>
      <trkpt lat="50.33804" lon="3.32222">
        <ele>54.932373</ele>
        <time>2012-10-07T12:47:23Z</time>
      </trkpt>
      <trkpt lat="50.33799" lon="3.32209">
        <ele>52.048584</ele>
        <time>2012-10-07T12:47:27Z</time>
      </trkpt>
      <trkpt lat="50.33799" lon="3.32179">
        <ele>52.048584</ele>
        <time>2012-10-07T12:47:32Z</time>
      </trkpt>
      <trkpt lat="50.33799" lon="3.3214">
        <ele>51.5678711</ele>
        <time>2012-10-07T12:47:37Z</time>
      </trkpt>
      <trkpt lat="50.33798" lon="3.32097">
        <ele>50.1259766</ele>
        <time>2012-10-07T12:47:42Z</time>
      </trkpt>
      <trkpt lat="50.338" lon="3.32014">
        <ele>53.9711914</ele>
        <time>2012-10-07T12:47:51Z</time>
      </trkpt>
      <trkpt lat="50.33799" lon="3.32004">
        <ele>54.4517822</ele>
        <time>2012-10-07T12:47:52Z</time>
      </trkpt>
      <trkpt lat="50.33797" lon="3.31984">
        <ele>54.4517822</ele>
        <time>2012-10-07T12:47:54Z</time>
      </trkpt>
      <trkpt lat="50.33794" lon="3.31946">
        <ele>55.4130859</ele>
        <time>2012-10-07T12:47:59Z</time>
      </trkpt>
      <trkpt lat="50.33787" lon="3.319">
        <ele>53.9711914</ele>
        <time>2012-10-07T12:48:07Z</time>
      </trkpt>
      <trkpt lat="50.33787" lon="3.31901">
        <ele>51.0871582</ele>
        <time>2012-10-07T12:48:11Z</time>
      </trkpt>
      <trkpt lat="50.33786" lon="3.31899">
        <ele>48.2033691</ele>
        <time>2012-10-07T12:48:16Z</time>
      </trkpt>
      <trkpt lat="50.33786" lon="3.31892">
        <ele>49.6452637</ele>
        <time>2012-10-07T12:48:21Z</time>
      </trkpt>
      <trkpt lat="50.33786" lon="3.31877">
        <ele>49.6452637</ele>
        <time>2012-10-07T12:48:25Z</time>
      </trkpt>
      <trkpt lat="50.33788" lon="3.31857">
        <ele>46.2806396</ele>
        <time>2012-10-07T12:48:30Z</time>
      </trkpt>
      <trkpt lat="50.3379" lon="3.31836">
        <ele>47.2418213</ele>
        <time>2012-10-07T12:48:35Z</time>
      </trkpt>
      <trkpt lat="50.33788" lon="3.31808">
        <ele>51.0871582</ele>
        <time>2012-10-07T12:48:41Z</time>
      </trkpt>
      <trkpt lat="50.33785" lon="3.31788">
        <ele>53.9711914</ele>
        <time>2012-10-07T12:48:46Z</time>
      </trkpt>
      <trkpt lat="50.33782" lon="3.3178">
        <ele>55.4130859</ele>
        <time>2012-10-07T12:48:49Z</time>
      </trkpt>
      <trkpt lat="50.33778" lon="3.31776">
        <ele>56.3745117</ele>
        <time>2012-10-07T12:48:55Z</time>
      </trkpt>
      <trkpt lat="50.33774" lon="3.31775">
        <ele>53.0097656</ele>
        <time>2012-10-07T12:49:14Z</time>
      </trkpt>
      <trkpt lat="50.3376" lon="3.3177">
        <ele>53.0097656</ele>
        <time>2012-10-07T12:49:17Z</time>
      </trkpt>
      <trkpt lat="50.33736" lon="3.31766">
        <ele>53.4904785</ele>
        <time>2012-10-07T12:49:22Z</time>
      </trkpt>
      <trkpt lat="50.33728" lon="3.31785">
        <ele>53.4904785</ele>
        <time>2012-10-07T12:49:26Z</time>
      </trkpt>
      <trkpt lat="50.33724" lon="3.31796">
        <ele>53.9711914</ele>
        <time>2012-10-07T12:49:28Z</time>
      </trkpt>
      <trkpt lat="50.3372" lon="3.31808">
        <ele>54.932373</ele>
        <time>2012-10-07T12:49:30Z</time>
      </trkpt>
      <trkpt lat="50.33706" lon="3.31826">
        <ele>56.8551025</ele>
        <time>2012-10-07T12:49:34Z</time>
      </trkpt>
      <trkpt lat="50.33667" lon="3.31843">
        <ele>57.3358154</ele>
        <time>2012-10-07T12:49:42Z</time>
      </trkpt>
      <trkpt lat="50.33637" lon="3.31835">
        <ele>56.8551025</ele>
        <time>2012-10-07T12:49:48Z</time>
      </trkpt>
      <trkpt lat="50.33627" lon="3.31816">
        <ele>56.8551025</ele>
        <time>2012-10-07T12:49:51Z</time>
      </trkpt>
      <trkpt lat="50.33623" lon="3.31791">
        <ele>56.3745117</ele>
        <time>2012-10-07T12:49:54Z</time>
      </trkpt>
      <trkpt lat="50.3362" lon="3.31747">
        <ele>56.3745117</ele>
        <time>2012-10-07T12:49:59Z</time>
      </trkpt>
      <trkpt lat="50.33605" lon="3.31702">
        <ele>56.3745117</ele>
        <time>2012-10-07T12:50:05Z</time>
      </trkpt>
      <trkpt lat="50.33595" lon="3.31692">
        <ele>56.3745117</ele>
        <time>2012-10-07T12:50:07Z</time>
      </trkpt>
      <trkpt lat="50.33569" lon="3.31652">
        <ele>54.932373</ele>
        <time>2012-10-07T12:50:13Z</time>
      </trkpt>
      <trkpt lat="50.33549" lon="3.31611">
        <ele>52.048584</ele>
        <time>2012-10-07T12:50:18Z</time>
      </trkpt>
      <trkpt lat="50.33555" lon="3.31579">
        <ele>49.6452637</ele>
        <time>2012-10-07T12:50:21Z</time>
      </trkpt>
      <trkpt lat="50.33559" lon="3.3157">
        <ele>49.1645508</ele>
        <time>2012-10-07T12:50:22Z</time>
      </trkpt>
      <trkpt lat="50.33567" lon="3.31551">
        <ele>47.7225342</ele>
        <time>2012-10-07T12:50:24Z</time>
      </trkpt>
      <trkpt lat="50.33577" lon="3.31512">
        <ele>47.2418213</ele>
        <time>2012-10-07T12:50:28Z</time>
      </trkpt>
      <trkpt lat="50.33576" lon="3.31502">
        <ele>47.2418213</ele>
        <time>2012-10-07T12:50:29Z</time>
      </trkpt>
      <trkpt lat="50.33573" lon="3.31433">
        <ele>41.9547119</ele>
        <time>2012-10-07T12:50:35Z</time>
      </trkpt>
      <trkpt lat="50.33576" lon="3.31422">
        <ele>41.9547119</ele>
        <time>2012-10-07T12:50:36Z</time>
      </trkpt>
      <trkpt lat="50.33583" lon="3.31366">
        <ele>39.5512695</ele>
        <time>2012-10-07T12:50:42Z</time>
      </trkpt>
      <trkpt lat="50.33581" lon="3.31347">
        <ele>39.5512695</ele>
        <time>2012-10-07T12:50:44Z</time>
      </trkpt>
      <trkpt lat="50.33568" lon="3.31325">
        <ele>41.473999</ele>
        <time>2012-10-07T12:50:48Z</time>
      </trkpt>
      <trkpt lat="50.33553" lon="3.31324">
        <ele>42.4354248</ele>
        <time>2012-10-07T12:50:51Z</time>
      </trkpt>
      <trkpt lat="50.33543" lon="3.3133">
        <ele>42.9160156</ele>
        <time>2012-10-07T12:50:53Z</time>
      </trkpt>
      <trkpt lat="50.33534" lon="3.31337">
        <ele>42.9160156</ele>
        <time>2012-10-07T12:50:55Z</time>
      </trkpt>
      <trkpt lat="50.3352" lon="3.31368">
        <ele>49.6452637</ele>
        <time>2012-10-07T12:51:00Z</time>
      </trkpt>
      <trkpt lat="50.33513" lon="3.31386">
        <ele>51.5678711</ele>
        <time>2012-10-07T12:51:04Z</time>
      </trkpt>
      <trkpt lat="50.3351" lon="3.3141">
        <ele>53.9711914</ele>
        <time>2012-10-07T12:51:11Z</time>
      </trkpt>
      <trkpt lat="50.33514" lon="3.31419">
        <ele>51.5678711</ele>
        <time>2012-10-07T12:51:13Z</time>
      </trkpt>
      <trkpt lat="50.33533" lon="3.31447">
        <ele>44.838623</ele>
        <time>2012-10-07T12:51:17Z</time>
      </trkpt>
      <trkpt lat="50.33557" lon="3.31451">
        <ele>38.109375</ele>
        <time>2012-10-07T12:51:21Z</time>
      </trkpt>
      <trkpt lat="50.33569" lon="3.31435">
        <ele>37.6286621</ele>
        <time>2012-10-07T12:51:24Z</time>
      </trkpt>
      <trkpt lat="50.33581" lon="3.3139">
        <ele>36.1867676</ele>
        <time>2012-10-07T12:51:31Z</time>
      </trkpt>
      <trkpt lat="50.33581" lon="3.31365">
        <ele>37.1480713</ele>
        <time>2012-10-07T12:51:34Z</time>
      </trkpt>
      <trkpt lat="50.33579" lon="3.31351">
        <ele>37.1480713</ele>
        <time>2012-10-07T12:51:36Z</time>
      </trkpt>
      <trkpt lat="50.33587" lon="3.31343">
        <ele>37.6286621</ele>
        <time>2012-10-07T12:51:40Z</time>
      </trkpt>
      <trkpt lat="50.336" lon="3.31351">
        <ele>36.1867676</ele>
        <time>2012-10-07T12:51:45Z</time>
      </trkpt>
      <trkpt lat="50.33609" lon="3.31349">
        <ele>35.2254639</ele>
        <time>2012-10-07T12:51:48Z</time>
      </trkpt>
      <trkpt lat="50.3361" lon="3.3134">
        <ele>36.1867676</ele>
        <time>2012-10-07T12:51:50Z</time>
      </trkpt>
      <trkpt lat="50.33613" lon="3.31304">
        <ele>37.6286621</ele>
        <time>2012-10-07T12:51:56Z</time>
      </trkpt>
      <trkpt lat="50.33612" lon="3.31283">
        <ele>40.5128174</ele>
        <time>2012-10-07T12:52:01Z</time>
      </trkpt>
      <trkpt lat="50.33613" lon="3.3126">
        <ele>39.5512695</ele>
        <time>2012-10-07T12:52:06Z</time>
      </trkpt>
      <trkpt lat="50.33616" lon="3.31239">
        <ele>37.6286621</ele>
        <time>2012-10-07T12:52:12Z</time>
      </trkpt>
      <trkpt lat="50.33618" lon="3.31232">
        <ele>37.1480713</ele>
        <time>2012-10-07T12:52:15Z</time>
      </trkpt>
      <trkpt lat="50.33619" lon="3.31215">
        <ele>36.1867676</ele>
        <time>2012-10-07T12:52:22Z</time>
      </trkpt>
      <trkpt lat="50.33621" lon="3.31199">
        <ele>37.1480713</ele>
        <time>2012-10-07T12:52:28Z</time>
      </trkpt>
      <trkpt lat="50.33622" lon="3.31182">
        <ele>40.9934082</ele>
        <time>2012-10-07T12:52:33Z</time>
      </trkpt>
      <trkpt lat="50.33618" lon="3.31162">
        <ele>45.7999268</ele>
        <time>2012-10-07T12:52:38Z</time>
      </trkpt>
      <trkpt lat="50.33606" lon="3.31148">
        <ele>50.6065674</ele>
        <time>2012-10-07T12:52:43Z</time>
      </trkpt>
      <trkpt lat="50.33589" lon="3.31126">
        <ele>55.4130859</ele>
        <time>2012-10-07T12:52:49Z</time>
      </trkpt>
      <trkpt lat="50.33567" lon="3.31122">
        <ele>56.8551025</ele>
        <time>2012-10-07T12:52:55Z</time>
      </trkpt>
      <trkpt lat="50.33533" lon="3.31128">
        <ele>58.2971191</ele>
        <time>2012-10-07T12:53:03Z</time>
      </trkpt>
      <trkpt lat="50.33492" lon="3.31131">
        <ele>58.2971191</ele>
        <time>2012-10-07T12:53:12Z</time>
      </trkpt>
      <trkpt lat="50.33449" lon="3.31136">
        <ele>58.77771</ele>
        <time>2012-10-07T12:53:21Z</time>
      </trkpt>
      <trkpt lat="50.33405" lon="3.31144">
        <ele>59.7391357</ele>
        <time>2012-10-07T12:53:30Z</time>
      </trkpt>
      <trkpt lat="50.33371" lon="3.31149">
        <ele>60.7003174</ele>
        <time>2012-10-07T12:53:37Z</time>
      </trkpt>
      <trkpt lat="50.33332" lon="3.31159">
        <ele>61.6617432</ele>
        <time>2012-10-07T12:53:45Z</time>
      </trkpt>
      <trkpt lat="50.33299" lon="3.31173">
        <ele>62.142334</ele>
        <time>2012-10-07T12:53:52Z</time>
      </trkpt>
      <trkpt lat="50.33261" lon="3.31191">
        <ele>62.6229248</ele>
        <time>2012-10-07T12:54:00Z</time>
      </trkpt>
      <trkpt lat="50.33228" lon="3.31201">
        <ele>62.6229248</ele>
        <time>2012-10-07T12:54:07Z</time>
      </trkpt>
      <trkpt lat="50.33224" lon="3.31202">
        <ele>62.6229248</ele>
        <time>2012-10-07T12:54:08Z</time>
      </trkpt>
      <trkpt lat="50.33211" lon="3.31209">
        <ele>62.142334</ele>
        <time>2012-10-07T12:54:12Z</time>
      </trkpt>
      <trkpt lat="50.33188" lon="3.31216">
        <ele>62.142334</ele>
        <time>2012-10-07T12:54:20Z</time>
      </trkpt>
      <trkpt lat="50.33176" lon="3.31199">
        <ele>61.6617432</ele>
        <time>2012-10-07T12:54:25Z</time>
      </trkpt>
      <trkpt lat="50.33167" lon="3.31178">
        <ele>62.6229248</ele>
        <time>2012-10-07T12:54:29Z</time>
      </trkpt>
      <trkpt lat="50.33156" lon="3.31178">
        <ele>62.6229248</ele>
        <time>2012-10-07T12:54:32Z</time>
      </trkpt>
      <trkpt lat="50.33121" lon="3.31178">
        <ele>61.6617432</ele>
        <time>2012-10-07T12:54:40Z</time>
      </trkpt>
      <trkpt lat="50.33117" lon="3.31177">
        <ele>62.142334</ele>
        <time>2012-10-07T12:54:41Z</time>
      </trkpt>
      <trkpt lat="50.33085" lon="3.31176">
        <ele>61.1810303</ele>
        <time>2012-10-07T12:54:48Z</time>
      </trkpt>
      <trkpt lat="50.33048" lon="3.31175">
        <ele>60.7003174</ele>
        <time>2012-10-07T12:54:56Z</time>
      </trkpt>
      <trkpt lat="50.33029" lon="3.31174">
        <ele>60.7003174</ele>
        <time>2012-10-07T12:55:00Z</time>
      </trkpt>
      <trkpt lat="50.32989" lon="3.31173">
        <ele>60.7003174</ele>
        <time>2012-10-07T12:55:08Z</time>
      </trkpt>
      <trkpt lat="50.32958" lon="3.31172">
        <ele>61.1810303</ele>
        <time>2012-10-07T12:55:14Z</time>
      </trkpt>
      <trkpt lat="50.32942" lon="3.3117">
        <ele>61.1810303</ele>
        <time>2012-10-07T12:55:17Z</time>
      </trkpt>
      <trkpt lat="50.32923" lon="3.31162">
        <ele>61.1810303</ele>
        <time>2012-10-07T12:55:21Z</time>
      </trkpt>
      <trkpt lat="50.32909" lon="3.31154">
        <ele>61.6617432</ele>
        <time>2012-10-07T12:55:24Z</time>
      </trkpt>
      <trkpt lat="50.32887" lon="3.31139">
        <ele>62.142334</ele>
        <time>2012-10-07T12:55:29Z</time>
      </trkpt>
      <trkpt lat="50.32857" lon="3.31116">
        <ele>61.6617432</ele>
        <time>2012-10-07T12:55:36Z</time>
      </trkpt>
      <trkpt lat="50.3283" lon="3.31095">
        <ele>61.1810303</ele>
        <time>2012-10-07T12:55:42Z</time>
      </trkpt>
      <trkpt lat="50.32822" lon="3.31086">
        <ele>61.6617432</ele>
        <time>2012-10-07T12:55:44Z</time>
      </trkpt>
      <trkpt lat="50.32792" lon="3.31059">
        <ele>63.1036377</ele>
        <time>2012-10-07T12:55:51Z</time>
      </trkpt>
      <trkpt lat="50.32756" lon="3.3103">
        <ele>65.0263672</ele>
        <time>2012-10-07T12:55:59Z</time>
      </trkpt>
      <trkpt lat="50.32746" lon="3.31023">
        <ele>65.9876709</ele>
        <time>2012-10-07T12:56:01Z</time>
      </trkpt>
      <trkpt lat="50.32715" lon="3.31008">
        <ele>66.9489746</ele>
        <time>2012-10-07T12:56:07Z</time>
      </trkpt>
      <trkpt lat="50.32688" lon="3.31006">
        <ele>66.9489746</ele>
        <time>2012-10-07T12:56:12Z</time>
      </trkpt>
      <trkpt lat="50.32673" lon="3.31008">
        <ele>66.9489746</ele>
        <time>2012-10-07T12:56:15Z</time>
      </trkpt>
      <trkpt lat="50.32658" lon="3.31017">
        <ele>64.0650635</ele>
        <time>2012-10-07T12:56:20Z</time>
      </trkpt>
      <trkpt lat="50.32627" lon="3.31044">
        <ele>65.5070801</ele>
        <time>2012-10-07T12:56:28Z</time>
      </trkpt>
      <trkpt lat="50.32617" lon="3.31058">
        <ele>66.4682617</ele>
        <time>2012-10-07T12:56:31Z</time>
      </trkpt>
      <trkpt lat="50.32609" lon="3.31074">
        <ele>67.9102783</ele>
        <time>2012-10-07T12:56:34Z</time>
      </trkpt>
      <trkpt lat="50.32595" lon="3.31105">
        <ele>68.871582</ele>
        <time>2012-10-07T12:56:39Z</time>
      </trkpt>
      <trkpt lat="50.32583" lon="3.31108">
        <ele>65.9876709</ele>
        <time>2012-10-07T12:56:43Z</time>
      </trkpt>
      <trkpt lat="50.32582" lon="3.31087">
        <ele>62.6229248</ele>
        <time>2012-10-07T12:56:46Z</time>
      </trkpt>
      <trkpt lat="50.3258" lon="3.31064">
        <ele>58.77771</ele>
        <time>2012-10-07T12:56:49Z</time>
      </trkpt>
      <trkpt lat="50.32579" lon="3.3105">
        <ele>54.932373</ele>
        <time>2012-10-07T12:56:53Z</time>
      </trkpt>
      <trkpt lat="50.32576" lon="3.3104">
        <ele>55.8937988</ele>
        <time>2012-10-07T12:56:56Z</time>
      </trkpt>
      <trkpt lat="50.32563" lon="3.31034">
        <ele>57.3358154</ele>
        <time>2012-10-07T12:57:00Z</time>
      </trkpt>
      <trkpt lat="50.32544" lon="3.31045">
        <ele>60.2197266</ele>
        <time>2012-10-07T12:57:06Z</time>
      </trkpt>
      <trkpt lat="50.32541" lon="3.31049">
        <ele>59.2584229</ele>
        <time>2012-10-07T12:57:11Z</time>
      </trkpt>
      <trkpt lat="50.3254" lon="3.31049">
        <ele>58.77771</ele>
        <time>2012-10-07T12:57:12Z</time>
      </trkpt>
      <trkpt lat="50.32527" lon="3.31056">
        <ele>58.77771</ele>
        <time>2012-10-07T12:57:17Z</time>
      </trkpt>
      <trkpt lat="50.32514" lon="3.31063">
        <ele>59.2584229</ele>
        <time>2012-10-07T12:57:21Z</time>
      </trkpt>
      <trkpt lat="50.32506" lon="3.31087">
        <ele>58.77771</ele>
        <time>2012-10-07T12:57:26Z</time>
      </trkpt>
      <trkpt lat="50.3249" lon="3.3112">
        <ele>57.8165283</ele>
        <time>2012-10-07T12:57:32Z</time>
      </trkpt>
      <trkpt lat="50.32487" lon="3.31125">
        <ele>57.8165283</ele>
        <time>2012-10-07T12:57:33Z</time>
      </trkpt>
      <trkpt lat="50.32466" lon="3.31141">
        <ele>57.8165283</ele>
        <time>2012-10-07T12:57:38Z</time>
      </trkpt>
      <trkpt lat="50.32447" lon="3.31134">
        <ele>58.2971191</ele>
        <time>2012-10-07T12:57:42Z</time>
      </trkpt>
      <trkpt lat="50.32434" lon="3.31123">
        <ele>58.2971191</ele>
        <time>2012-10-07T12:57:45Z</time>
      </trkpt>
      <trkpt lat="50.32411" lon="3.31106">
        <ele>57.3358154</ele>
        <time>2012-10-07T12:57:50Z</time>
      </trkpt>
      <trkpt lat="50.32396" lon="3.31098">
        <ele>58.77771</ele>
        <time>2012-10-07T12:57:54Z</time>
      </trkpt>
      <trkpt lat="50.32371" lon="3.31091">
        <ele>59.2584229</ele>
        <time>2012-10-07T12:58:00Z</time>
      </trkpt>
      <trkpt lat="50.32356" lon="3.31077">
        <ele>57.8165283</ele>
        <time>2012-10-07T12:58:04Z</time>
      </trkpt>
      <trkpt lat="50.32348" lon="3.31061">
        <ele>53.9711914</ele>
        <time>2012-10-07T12:58:07Z</time>
      </trkpt>
      <trkpt lat="50.32347" lon="3.31049">
        <ele>52.048584</ele>
        <time>2012-10-07T12:58:09Z</time>
      </trkpt>
      <trkpt lat="50.32349" lon="3.30989">
        <ele>55.8937988</ele>
        <time>2012-10-07T12:58:17Z</time>
      </trkpt>
      <trkpt lat="50.32357" lon="3.30967">
        <ele>52.048584</ele>
        <time>2012-10-07T12:58:21Z</time>
      </trkpt>
      <trkpt lat="50.32373" lon="3.30952">
        <ele>48.68396</ele>
        <time>2012-10-07T12:58:25Z</time>
      </trkpt>
      <trkpt lat="50.32385" lon="3.30926">
        <ele>49.6452637</ele>
        <time>2012-10-07T12:58:29Z</time>
      </trkpt>
      <trkpt lat="50.32387" lon="3.30893">
        <ele>53.0097656</ele>
        <time>2012-10-07T12:58:33Z</time>
      </trkpt>
      <trkpt lat="50.32386" lon="3.30884">
        <ele>53.4904785</ele>
        <time>2012-10-07T12:58:34Z</time>
      </trkpt>
      <trkpt lat="50.32376" lon="3.30849">
        <ele>53.9711914</ele>
        <time>2012-10-07T12:58:39Z</time>
      </trkpt>
      <trkpt lat="50.3237" lon="3.30837">
        <ele>54.4517822</ele>
        <time>2012-10-07T12:58:41Z</time>
      </trkpt>
      <trkpt lat="50.32362" lon="3.30805">
        <ele>54.932373</ele>
        <time>2012-10-07T12:58:46Z</time>
      </trkpt>
      <trkpt lat="50.32361" lon="3.30791">
        <ele>54.932373</ele>
        <time>2012-10-07T12:58:48Z</time>
      </trkpt>
      <trkpt lat="50.32361" lon="3.30777">
        <ele>55.4130859</ele>
        <time>2012-10-07T12:58:50Z</time>
      </trkpt>
      <trkpt lat="50.32368" lon="3.30732">
        <ele>54.4517822</ele>
        <time>2012-10-07T12:58:56Z</time>
      </trkpt>
      <trkpt lat="50.32379" lon="3.30692">
        <ele>51.5678711</ele>
        <time>2012-10-07T12:59:02Z</time>
      </trkpt>
      <trkpt lat="50.32384" lon="3.30679">
        <ele>51.0871582</ele>
        <time>2012-10-07T12:59:04Z</time>
      </trkpt>
      <trkpt lat="50.32385" lon="3.30658">
        <ele>51.0871582</ele>
        <time>2012-10-07T12:59:08Z</time>
      </trkpt>
      <trkpt lat="50.32378" lon="3.30647">
        <ele>51.5678711</ele>
        <time>2012-10-07T12:59:12Z</time>
      </trkpt>
      <trkpt lat="50.32376" lon="3.30645">
        <ele>53.9711914</ele>
        <time>2012-10-07T12:59:15Z</time>
      </trkpt>
      <trkpt lat="50.3237" lon="3.30645">
        <ele>56.3745117</ele>
        <time>2012-10-07T12:59:19Z</time>
      </trkpt>
      <trkpt lat="50.3235" lon="3.30645">
        <ele>58.77771</ele>
        <time>2012-10-07T12:59:25Z</time>
      </trkpt>
      <trkpt lat="50.32323" lon="3.30652">
        <ele>61.1810303</ele>
        <time>2012-10-07T12:59:31Z</time>
      </trkpt>
      <trkpt lat="50.32303" lon="3.3066">
        <ele>60.2197266</ele>
        <time>2012-10-07T12:59:36Z</time>
      </trkpt>
      <trkpt lat="50.32291" lon="3.30663">
        <ele>59.2584229</ele>
        <time>2012-10-07T12:59:39Z</time>
      </trkpt>
      <trkpt lat="50.32267" lon="3.30664">
        <ele>59.2584229</ele>
        <time>2012-10-07T12:59:44Z</time>
      </trkpt>
      <trkpt lat="50.3224" lon="3.3066">
        <ele>58.77771</ele>
        <time>2012-10-07T12:59:49Z</time>
      </trkpt>
      <trkpt lat="50.32227" lon="3.3065">
        <ele>58.2971191</ele>
        <time>2012-10-07T12:59:52Z</time>
      </trkpt>
      <trkpt lat="50.32219" lon="3.30643">
        <ele>56.8551025</ele>
        <time>2012-10-07T12:59:54Z</time>
      </trkpt>
      <trkpt lat="50.32211" lon="3.30638">
        <ele>56.3745117</ele>
        <time>2012-10-07T12:59:56Z</time>
      </trkpt>
      <trkpt lat="50.32195" lon="3.3062">
        <ele>54.4517822</ele>
        <time>2012-10-07T13:00:01Z</time>
      </trkpt>
      <trkpt lat="50.32189" lon="3.30609">
        <ele>54.4517822</ele>
        <time>2012-10-07T13:00:05Z</time>
      </trkpt>
      <trkpt lat="50.32183" lon="3.30602">
        <ele>54.4517822</ele>
        <time>2012-10-07T13:00:08Z</time>
      </trkpt>
      <trkpt lat="50.32169" lon="3.30579">
        <ele>54.4517822</ele>
        <time>2012-10-07T13:00:15Z</time>
      </trkpt>
      <trkpt lat="50.32164" lon="3.30566">
        <ele>52.5291748</ele>
        <time>2012-10-07T13:00:20Z</time>
      </trkpt>
      <trkpt lat="50.32164" lon="3.30562">
        <ele>52.048584</ele>
        <time>2012-10-07T13:00:22Z</time>
      </trkpt>
      <trkpt lat="50.32163" lon="3.30561">
        <ele>52.048584</ele>
        <time>2012-10-07T13:00:25Z</time>
      </trkpt>
      <trkpt lat="50.32166" lon="3.3057">
        <ele>45.3192139</ele>
        <time>2012-10-07T13:00:59Z</time>
      </trkpt>
      <trkpt lat="50.3217" lon="3.30586">
        <ele>43.8773193</ele>
        <time>2012-10-07T13:01:04Z</time>
      </trkpt>
      <trkpt lat="50.32186" lon="3.30609">
        <ele>40.0321045</ele>
        <time>2012-10-07T13:01:12Z</time>
      </trkpt>
      <trkpt lat="50.32191" lon="3.30621">
        <ele>39.0706787</ele>
        <time>2012-10-07T13:01:17Z</time>
      </trkpt>
      <trkpt lat="50.32199" lon="3.30633">
        <ele>38.109375</ele>
        <time>2012-10-07T13:01:22Z</time>
      </trkpt>
      <trkpt lat="50.3221" lon="3.30643">
        <ele>37.1480713</ele>
        <time>2012-10-07T13:01:27Z</time>
      </trkpt>
      <trkpt lat="50.32224" lon="3.30654">
        <ele>36.6674805</ele>
        <time>2012-10-07T13:01:33Z</time>
      </trkpt>
      <trkpt lat="50.32235" lon="3.30665">
        <ele>36.1867676</ele>
        <time>2012-10-07T13:01:38Z</time>
      </trkpt>
      <trkpt lat="50.3225" lon="3.30668">
        <ele>36.1867676</ele>
        <time>2012-10-07T13:01:43Z</time>
      </trkpt>
      <trkpt lat="50.32266" lon="3.3067">
        <ele>38.109375</ele>
        <time>2012-10-07T13:01:50Z</time>
      </trkpt>
      <trkpt lat="50.32282" lon="3.30669">
        <ele>39.5512695</ele>
        <time>2012-10-07T13:01:56Z</time>
      </trkpt>
      <trkpt lat="50.32302" lon="3.30665">
        <ele>40.5128174</ele>
        <time>2012-10-07T13:02:03Z</time>
      </trkpt>
      <trkpt lat="50.3232" lon="3.30655">
        <ele>40.9934082</ele>
        <time>2012-10-07T13:02:09Z</time>
      </trkpt>
      <trkpt lat="50.32334" lon="3.30651">
        <ele>40.9934082</ele>
        <time>2012-10-07T13:02:14Z</time>
      </trkpt>
      <trkpt lat="50.32345" lon="3.30648">
        <ele>41.473999</ele>
        <time>2012-10-07T13:02:19Z</time>
      </trkpt>
      <trkpt lat="50.32358" lon="3.30647">
        <ele>43.3966064</ele>
        <time>2012-10-07T13:02:25Z</time>
      </trkpt>
      <trkpt lat="50.32371" lon="3.30645">
        <ele>44.3580322</ele>
        <time>2012-10-07T13:02:31Z</time>
      </trkpt>
      <trkpt lat="50.32374" lon="3.30645">
        <ele>44.3580322</ele>
        <time>2012-10-07T13:02:33Z</time>
      </trkpt>
      <trkpt lat="50.32378" lon="3.30647">
        <ele>44.838623</ele>
        <time>2012-10-07T13:02:39Z</time>
      </trkpt>
      <trkpt lat="50.32384" lon="3.30658">
        <ele>45.3192139</ele>
        <time>2012-10-07T13:02:43Z</time>
      </trkpt>
      <trkpt lat="50.32394" lon="3.30654">
        <ele>43.8773193</ele>
        <time>2012-10-07T13:02:47Z</time>
      </trkpt>
      <trkpt lat="50.32396" lon="3.30644">
        <ele>44.838623</ele>
        <time>2012-10-07T13:02:49Z</time>
      </trkpt>
      <trkpt lat="50.324" lon="3.30601">
        <ele>51.0871582</ele>
        <time>2012-10-07T13:02:57Z</time>
      </trkpt>
      <trkpt lat="50.32397" lon="3.30572">
        <ele>55.8937988</ele>
        <time>2012-10-07T13:03:03Z</time>
      </trkpt>
      <trkpt lat="50.32394" lon="3.30537">
        <ele>59.2584229</ele>
        <time>2012-10-07T13:03:10Z</time>
      </trkpt>
      <trkpt lat="50.32401" lon="3.30504">
        <ele>61.6617432</ele>
        <time>2012-10-07T13:03:17Z</time>
      </trkpt>
      <trkpt lat="50.32408" lon="3.3048">
        <ele>60.7003174</ele>
        <time>2012-10-07T13:03:24Z</time>
      </trkpt>
      <trkpt lat="50.3241" lon="3.30452">
        <ele>61.6617432</ele>
        <time>2012-10-07T13:03:29Z</time>
      </trkpt>
      <trkpt lat="50.32409" lon="3.3038">
        <ele>63.1036377</ele>
        <time>2012-10-07T13:03:40Z</time>
      </trkpt>
      <trkpt lat="50.32408" lon="3.30316">
        <ele>65.9876709</ele>
        <time>2012-10-07T13:03:49Z</time>
      </trkpt>
      <trkpt lat="50.32409" lon="3.30243">
        <ele>68.3908691</ele>
        <time>2012-10-07T13:03:59Z</time>
      </trkpt>
      <trkpt lat="50.32415" lon="3.30209">
        <ele>67.4296875</ele>
        <time>2012-10-07T13:04:04Z</time>
      </trkpt>
      <trkpt lat="50.32411" lon="3.30189">
        <ele>67.9102783</ele>
        <time>2012-10-07T13:04:08Z</time>
      </trkpt>
      <trkpt lat="50.32399" lon="3.30172">
        <ele>67.9102783</ele>
        <time>2012-10-07T13:04:12Z</time>
      </trkpt>
      <trkpt lat="50.3239" lon="3.30144">
        <ele>67.4296875</ele>
        <time>2012-10-07T13:04:18Z</time>
      </trkpt>
      <trkpt lat="50.32388" lon="3.30134">
        <ele>67.9102783</ele>
        <time>2012-10-07T13:04:21Z</time>
      </trkpt>
      <trkpt lat="50.32387" lon="3.30129">
        <ele>69.3522949</ele>
        <time>2012-10-07T13:04:24Z</time>
      </trkpt>
      <trkpt lat="50.32385" lon="3.30126">
        <ele>69.3522949</ele>
        <time>2012-10-07T13:04:29Z</time>
      </trkpt>
      <trkpt lat="50.3239" lon="3.30146">
        <ele>68.871582</ele>
        <time>2012-10-07T13:04:35Z</time>
      </trkpt>
      <trkpt lat="50.32398" lon="3.3017">
        <ele>65.9876709</ele>
        <time>2012-10-07T13:04:40Z</time>
      </trkpt>
      <trkpt lat="50.3241" lon="3.30186">
        <ele>63.1036377</ele>
        <time>2012-10-07T13:04:44Z</time>
      </trkpt>
      <trkpt lat="50.32424" lon="3.30183">
        <ele>59.2584229</ele>
        <time>2012-10-07T13:04:48Z</time>
      </trkpt>
      <trkpt lat="50.32444" lon="3.30142">
        <ele>56.8551025</ele>
        <time>2012-10-07T13:04:56Z</time>
      </trkpt>
      <trkpt lat="50.32466" lon="3.30092">
        <ele>56.8551025</ele>
        <time>2012-10-07T13:05:05Z</time>
      </trkpt>
      <trkpt lat="50.32489" lon="3.3004">
        <ele>57.3358154</ele>
        <time>2012-10-07T13:05:14Z</time>
      </trkpt>
      <trkpt lat="50.32515" lon="3.29989">
        <ele>58.2971191</ele>
        <time>2012-10-07T13:05:23Z</time>
      </trkpt>
      <trkpt lat="50.32532" lon="3.29946">
        <ele>58.77771</ele>
        <time>2012-10-07T13:05:30Z</time>
      </trkpt>
      <trkpt lat="50.32535" lon="3.29935">
        <ele>59.2584229</ele>
        <time>2012-10-07T13:05:32Z</time>
      </trkpt>
      <trkpt lat="50.32536" lon="3.29906">
        <ele>62.6229248</ele>
        <time>2012-10-07T13:05:38Z</time>
      </trkpt>
      <trkpt lat="50.32536" lon="3.29903">
        <ele>64.0650635</ele>
        <time>2012-10-07T13:05:41Z</time>
      </trkpt>
      <trkpt lat="50.32542" lon="3.299">
        <ele>65.9876709</ele>
        <time>2012-10-07T13:06:03Z</time>
      </trkpt>
      <trkpt lat="50.32539" lon="3.29879">
        <ele>66.9489746</ele>
        <time>2012-10-07T13:06:07Z</time>
      </trkpt>
      <trkpt lat="50.32538" lon="3.29839">
        <ele>70.3134766</ele>
        <time>2012-10-07T13:06:13Z</time>
      </trkpt>
      <trkpt lat="50.32536" lon="3.29785">
        <ele>70.7941895</ele>
        <time>2012-10-07T13:06:21Z</time>
      </trkpt>
      <trkpt lat="50.32535" lon="3.29734">
        <ele>70.3134766</ele>
        <time>2012-10-07T13:06:28Z</time>
      </trkpt>
      <trkpt lat="50.32535" lon="3.29727">
        <ele>70.7941895</ele>
        <time>2012-10-07T13:06:29Z</time>
      </trkpt>
      <trkpt lat="50.32534" lon="3.29714">
        <ele>70.3134766</ele>
        <time>2012-10-07T13:06:31Z</time>
      </trkpt>
      <trkpt lat="50.32532" lon="3.29686">
        <ele>67.4296875</ele>
        <time>2012-10-07T13:06:37Z</time>
      </trkpt>
      <trkpt lat="50.32533" lon="3.29666">
        <ele>63.1036377</ele>
        <time>2012-10-07T13:06:42Z</time>
      </trkpt>
      <trkpt lat="50.32535" lon="3.2966">
        <ele>62.142334</ele>
        <time>2012-10-07T13:06:46Z</time>
      </trkpt>
      <trkpt lat="50.32535" lon="3.2966">
        <ele>62.142334</ele>
        <time>2012-10-07T13:06:47Z</time>
      </trkpt>
      <trkpt lat="50.32536" lon="3.29652">
        <ele>64.0650635</ele>
        <time>2012-10-07T13:07:00Z</time>
      </trkpt>
      <trkpt lat="50.32524" lon="3.2964">
        <ele>65.9876709</ele>
        <time>2012-10-07T13:07:04Z</time>
      </trkpt>
      <trkpt lat="50.32512" lon="3.29646">
        <ele>66.9489746</ele>
        <time>2012-10-07T13:07:07Z</time>
      </trkpt>
      <trkpt lat="50.32487" lon="3.29674">
        <ele>70.7941895</ele>
        <time>2012-10-07T13:07:14Z</time>
      </trkpt>
      <trkpt lat="50.32461" lon="3.29715">
        <ele>74.6395264</ele>
        <time>2012-10-07T13:07:22Z</time>
      </trkpt>
      <trkpt lat="50.32433" lon="3.29754">
        <ele>76.0814209</ele>
        <time>2012-10-07T13:07:29Z</time>
      </trkpt>
      <trkpt lat="50.32394" lon="3.29793">
        <ele>76.5621338</ele>
        <time>2012-10-07T13:07:37Z</time>
      </trkpt>
      <trkpt lat="50.32348" lon="3.29834">
        <ele>77.0428467</ele>
        <time>2012-10-07T13:07:46Z</time>
      </trkpt>
      <trkpt lat="50.32307" lon="3.29868">
        <ele>77.5234375</ele>
        <time>2012-10-07T13:07:54Z</time>
      </trkpt>
      <trkpt lat="50.32249" lon="3.29916">
        <ele>78.4847412</ele>
        <time>2012-10-07T13:08:05Z</time>
      </trkpt>
      <trkpt lat="50.32206" lon="3.29948">
        <ele>78.0040283</ele>
        <time>2012-10-07T13:08:13Z</time>
      </trkpt>
      <trkpt lat="50.32151" lon="3.29977">
        <ele>77.0428467</ele>
        <time>2012-10-07T13:08:23Z</time>
      </trkpt>
      <trkpt lat="50.32093" lon="3.30004">
        <ele>74.6395264</ele>
        <time>2012-10-07T13:08:33Z</time>
      </trkpt>
      <trkpt lat="50.32037" lon="3.30031">
        <ele>74.1588135</ele>
        <time>2012-10-07T13:08:43Z</time>
      </trkpt>
      <trkpt lat="50.31985" lon="3.30058">
        <ele>73.1976318</ele>
        <time>2012-10-07T13:08:52Z</time>
      </trkpt>
      <trkpt lat="50.31918" lon="3.30091">
        <ele>71.2749023</ele>
        <time>2012-10-07T13:09:03Z</time>
      </trkpt>
      <trkpt lat="50.31905" lon="3.30095">
        <ele>70.7941895</ele>
        <time>2012-10-07T13:09:05Z</time>
      </trkpt>
      <trkpt lat="50.31871" lon="3.30088">
        <ele>66.9489746</ele>
        <time>2012-10-07T13:09:10Z</time>
      </trkpt>
      <trkpt lat="50.31797" lon="3.30072">
        <ele>58.77771</ele>
        <time>2012-10-07T13:09:20Z</time>
      </trkpt>
      <trkpt lat="50.3179" lon="3.30071">
        <ele>57.8165283</ele>
        <time>2012-10-07T13:09:21Z</time>
      </trkpt>
      <trkpt lat="50.31757" lon="3.30084">
        <ele>55.4130859</ele>
        <time>2012-10-07T13:09:26Z</time>
      </trkpt>
      <trkpt lat="50.31706" lon="3.30138">
        <ele>54.4517822</ele>
        <time>2012-10-07T13:09:35Z</time>
      </trkpt>
      <trkpt lat="50.31652" lon="3.30188">
        <ele>55.8937988</ele>
        <time>2012-10-07T13:09:44Z</time>
      </trkpt>
      <trkpt lat="50.31617" lon="3.30217">
        <ele>58.2971191</ele>
        <time>2012-10-07T13:09:50Z</time>
      </trkpt>
      <trkpt lat="50.31547" lon="3.30258">
        <ele>61.6617432</ele>
        <time>2012-10-07T13:10:01Z</time>
      </trkpt>
      <trkpt lat="50.31471" lon="3.30311">
        <ele>62.142334</ele>
        <time>2012-10-07T13:10:13Z</time>
      </trkpt>
      <trkpt lat="50.31421" lon="3.30347">
        <ele>61.1810303</ele>
        <time>2012-10-07T13:10:21Z</time>
      </trkpt>
      <trkpt lat="50.31354" lon="3.30395">
        <ele>59.7391357</ele>
        <time>2012-10-07T13:10:32Z</time>
      </trkpt>
      <trkpt lat="50.313" lon="3.30433">
        <ele>58.77771</ele>
        <time>2012-10-07T13:10:41Z</time>
      </trkpt>
      <trkpt lat="50.31268" lon="3.30457">
        <ele>58.77771</ele>
        <time>2012-10-07T13:10:47Z</time>
      </trkpt>
      <trkpt lat="50.31254" lon="3.30452">
        <ele>59.2584229</ele>
        <time>2012-10-07T13:10:51Z</time>
      </trkpt>
      <trkpt lat="50.31247" lon="3.30431">
        <ele>60.7003174</ele>
        <time>2012-10-07T13:10:55Z</time>
      </trkpt>
      <trkpt lat="50.31244" lon="3.30419">
        <ele>60.7003174</ele>
        <time>2012-10-07T13:10:57Z</time>
      </trkpt>
      <trkpt lat="50.31226" lon="3.30376">
        <ele>59.2584229</ele>
        <time>2012-10-07T13:11:03Z</time>
      </trkpt>
      <trkpt lat="50.31195" lon="3.30294">
        <ele>57.8165283</ele>
        <time>2012-10-07T13:11:13Z</time>
      </trkpt>
      <trkpt lat="50.31175" lon="3.30238">
        <ele>55.8937988</ele>
        <time>2012-10-07T13:11:20Z</time>
      </trkpt>
      <trkpt lat="50.31163" lon="3.30204">
        <ele>54.4517822</ele>
        <time>2012-10-07T13:11:24Z</time>
      </trkpt>
      <trkpt lat="50.31151" lon="3.30166">
        <ele>53.0097656</ele>
        <time>2012-10-07T13:11:29Z</time>
      </trkpt>
      <trkpt lat="50.31148" lon="3.3016">
        <ele>53.0097656</ele>
        <time>2012-10-07T13:11:30Z</time>
      </trkpt>
      <trkpt lat="50.31128" lon="3.3011">
        <ele>53.4904785</ele>
        <time>2012-10-07T13:11:37Z</time>
      </trkpt>
      <trkpt lat="50.31117" lon="3.30079">
        <ele>53.4904785</ele>
        <time>2012-10-07T13:11:41Z</time>
      </trkpt>
      <trkpt lat="50.31106" lon="3.3005">
        <ele>53.0097656</ele>
        <time>2012-10-07T13:11:45Z</time>
      </trkpt>
      <trkpt lat="50.31089" lon="3.30035">
        <ele>53.0097656</ele>
        <time>2012-10-07T13:11:49Z</time>
      </trkpt>
      <trkpt lat="50.31073" lon="3.30044">
        <ele>52.048584</ele>
        <time>2012-10-07T13:11:52Z</time>
      </trkpt>
      <trkpt lat="50.3102" lon="3.30095">
        <ele>50.1259766</ele>
        <time>2012-10-07T13:12:02Z</time>
      </trkpt>
      <trkpt lat="50.30966" lon="3.30144">
        <ele>51.5678711</ele>
        <time>2012-10-07T13:12:12Z</time>
      </trkpt>
      <trkpt lat="50.30932" lon="3.30176">
        <ele>51.0871582</ele>
        <time>2012-10-07T13:12:18Z</time>
      </trkpt>
      <trkpt lat="50.30899" lon="3.30207">
        <ele>50.6065674</ele>
        <time>2012-10-07T13:12:24Z</time>
      </trkpt>
      <trkpt lat="50.30863" lon="3.30236">
        <ele>50.1259766</ele>
        <time>2012-10-07T13:12:31Z</time>
      </trkpt>
      <trkpt lat="50.30837" lon="3.30257">
        <ele>50.1259766</ele>
        <time>2012-10-07T13:12:36Z</time>
      </trkpt>
      <trkpt lat="50.30826" lon="3.30264">
        <ele>50.1259766</ele>
        <time>2012-10-07T13:12:39Z</time>
      </trkpt>
      <trkpt lat="50.30824" lon="3.30268">
        <ele>48.68396</ele>
        <time>2012-10-07T13:12:43Z</time>
      </trkpt>
      <trkpt lat="50.30844" lon="3.30254">
        <ele>46.2806396</ele>
        <time>2012-10-07T13:12:49Z</time>
      </trkpt>
      <trkpt lat="50.30872" lon="3.30232">
        <ele>43.3966064</ele>
        <time>2012-10-07T13:12:55Z</time>
      </trkpt>
      <trkpt lat="50.30896" lon="3.30213">
        <ele>42.4354248</ele>
        <time>2012-10-07T13:13:00Z</time>
      </trkpt>
      <trkpt lat="50.30925" lon="3.30189">
        <ele>41.473999</ele>
        <time>2012-10-07T13:13:06Z</time>
      </trkpt>
      <trkpt lat="50.30958" lon="3.30162">
        <ele>41.9547119</ele>
        <time>2012-10-07T13:13:13Z</time>
      </trkpt>
      <trkpt lat="50.30995" lon="3.30127">
        <ele>42.9160156</ele>
        <time>2012-10-07T13:13:21Z</time>
      </trkpt>
      <trkpt lat="50.31035" lon="3.30092">
        <ele>43.8773193</ele>
        <time>2012-10-07T13:13:29Z</time>
      </trkpt>
      <trkpt lat="50.31066" lon="3.30059">
        <ele>45.3192139</ele>
        <time>2012-10-07T13:13:36Z</time>
      </trkpt>
      <trkpt lat="50.31087" lon="3.30039">
        <ele>45.7999268</ele>
        <time>2012-10-07T13:13:41Z</time>
      </trkpt>
      <trkpt lat="50.31093" lon="3.30018">
        <ele>45.7999268</ele>
        <time>2012-10-07T13:13:45Z</time>
      </trkpt>
      <trkpt lat="50.31088" lon="3.30002">
        <ele>45.7999268</ele>
        <time>2012-10-07T13:13:48Z</time>
      </trkpt>
      <trkpt lat="50.31077" lon="3.29966">
        <ele>45.7999268</ele>
        <time>2012-10-07T13:13:55Z</time>
      </trkpt>
      <trkpt lat="50.31065" lon="3.29928">
        <ele>48.2033691</ele>
        <time>2012-10-07T13:14:02Z</time>
      </trkpt>
      <trkpt lat="50.31063" lon="3.29921">
        <ele>48.68396</ele>
        <time>2012-10-07T13:14:03Z</time>
      </trkpt>
      <trkpt lat="50.31059" lon="3.29908">
        <ele>49.6452637</ele>
        <time>2012-10-07T13:14:05Z</time>
      </trkpt>
      <trkpt lat="50.31041" lon="3.29843">
        <ele>51.0871582</ele>
        <time>2012-10-07T13:14:14Z</time>
      </trkpt>
      <trkpt lat="50.31025" lon="3.29789">
        <ele>51.5678711</ele>
        <time>2012-10-07T13:14:21Z</time>
      </trkpt>
      <trkpt lat="50.31007" lon="3.29741">
        <ele>52.048584</ele>
        <time>2012-10-07T13:14:28Z</time>
      </trkpt>
      <trkpt lat="50.31" lon="3.29728">
        <ele>52.048584</ele>
        <time>2012-10-07T13:14:30Z</time>
      </trkpt>
      <trkpt lat="50.3097" lon="3.29662">
        <ele>51.5678711</ele>
        <time>2012-10-07T13:14:39Z</time>
      </trkpt>
      <trkpt lat="50.30939" lon="3.29592">
        <ele>50.6065674</ele>
        <time>2012-10-07T13:14:48Z</time>
      </trkpt>
      <trkpt lat="50.30906" lon="3.2952">
        <ele>49.6452637</ele>
        <time>2012-10-07T13:14:57Z</time>
      </trkpt>
      <trkpt lat="50.30877" lon="3.2946">
        <ele>48.68396</ele>
        <time>2012-10-07T13:15:05Z</time>
      </trkpt>
      <trkpt lat="50.30861" lon="3.29448">
        <ele>48.2033691</ele>
        <time>2012-10-07T13:15:09Z</time>
      </trkpt>
      <trkpt lat="50.30852" lon="3.2946">
        <ele>48.68396</ele>
        <time>2012-10-07T13:15:12Z</time>
      </trkpt>
      <trkpt lat="50.30845" lon="3.29487">
        <ele>48.68396</ele>
        <time>2012-10-07T13:15:16Z</time>
      </trkpt>
      <trkpt lat="50.30829" lon="3.29549">
        <ele>46.2806396</ele>
        <time>2012-10-07T13:15:23Z</time>
      </trkpt>
      <trkpt lat="50.3081" lon="3.29614">
        <ele>43.8773193</ele>
        <time>2012-10-07T13:15:30Z</time>
      </trkpt>
      <trkpt lat="50.30789" lon="3.29678">
        <ele>42.4354248</ele>
        <time>2012-10-07T13:15:37Z</time>
      </trkpt>
      <trkpt lat="50.3076" lon="3.29754">
        <ele>40.0321045</ele>
        <time>2012-10-07T13:15:45Z</time>
      </trkpt>
      <trkpt lat="50.30733" lon="3.29828">
        <ele>39.0706787</ele>
        <time>2012-10-07T13:15:53Z</time>
      </trkpt>
      <trkpt lat="50.30713" lon="3.29882">
        <ele>40.0321045</ele>
        <time>2012-10-07T13:16:00Z</time>
      </trkpt>
      <trkpt lat="50.3069" lon="3.29942">
        <ele>39.5512695</ele>
        <time>2012-10-07T13:16:08Z</time>
      </trkpt>
      <trkpt lat="50.30662" lon="3.29988">
        <ele>36.1867676</ele>
        <time>2012-10-07T13:16:15Z</time>
      </trkpt>
      <trkpt lat="50.30628" lon="3.30045">
        <ele>35.2254639</ele>
        <time>2012-10-07T13:16:24Z</time>
      </trkpt>
      <trkpt lat="50.30624" lon="3.3005">
        <ele>35.2254639</ele>
        <time>2012-10-07T13:16:25Z</time>
      </trkpt>
      <trkpt lat="50.30613" lon="3.30086">
        <ele>34.744873</ele>
        <time>2012-10-07T13:16:30Z</time>
      </trkpt>
      <trkpt lat="50.30596" lon="3.30116">
        <ele>34.2641602</ele>
        <time>2012-10-07T13:16:35Z</time>
      </trkpt>
      <trkpt lat="50.30584" lon="3.30129">
        <ele>34.2641602</ele>
        <time>2012-10-07T13:16:38Z</time>
      </trkpt>
      <trkpt lat="50.30555" lon="3.30169">
        <ele>34.744873</ele>
        <time>2012-10-07T13:16:45Z</time>
      </trkpt>
      <trkpt lat="50.3054" lon="3.30185">
        <ele>33.7834473</ele>
        <time>2012-10-07T13:16:48Z</time>
      </trkpt>
      <trkpt lat="50.305" lon="3.30218">
        <ele>35.2254639</ele>
        <time>2012-10-07T13:16:56Z</time>
      </trkpt>
      <trkpt lat="50.30467" lon="3.30244">
        <ele>35.2254639</ele>
        <time>2012-10-07T13:17:03Z</time>
      </trkpt>
      <trkpt lat="50.3046" lon="3.30252">
        <ele>35.2254639</ele>
        <time>2012-10-07T13:17:05Z</time>
      </trkpt>
      <trkpt lat="50.30436" lon="3.30292">
        <ele>35.2254639</ele>
        <time>2012-10-07T13:17:12Z</time>
      </trkpt>
      <trkpt lat="50.3041" lon="3.30338">
        <ele>32.8222656</ele>
        <time>2012-10-07T13:17:19Z</time>
      </trkpt>
      <trkpt lat="50.30366" lon="3.30412">
        <ele>32.3415527</ele>
        <time>2012-10-07T13:17:30Z</time>
      </trkpt>
      <trkpt lat="50.30332" lon="3.30463">
        <ele>32.8222656</ele>
        <time>2012-10-07T13:17:38Z</time>
      </trkpt>
      <trkpt lat="50.30299" lon="3.30496">
        <ele>34.744873</ele>
        <time>2012-10-07T13:17:45Z</time>
      </trkpt>
      <trkpt lat="50.3026" lon="3.30529">
        <ele>37.1480713</ele>
        <time>2012-10-07T13:17:53Z</time>
      </trkpt>
      <trkpt lat="50.30211" lon="3.30568">
        <ele>41.9547119</ele>
        <time>2012-10-07T13:18:03Z</time>
      </trkpt>
      <trkpt lat="50.30172" lon="3.30601">
        <ele>43.3966064</ele>
        <time>2012-10-07T13:18:11Z</time>
      </trkpt>
      <trkpt lat="50.30127" lon="3.30637">
        <ele>42.9160156</ele>
        <time>2012-10-07T13:18:20Z</time>
      </trkpt>
      <trkpt lat="50.30062" lon="3.30689">
        <ele>42.9160156</ele>
        <time>2012-10-07T13:18:33Z</time>
      </trkpt>
      <trkpt lat="50.30014" lon="3.30727">
        <ele>43.3966064</ele>
        <time>2012-10-07T13:18:43Z</time>
      </trkpt>
      <trkpt lat="50.29989" lon="3.30747">
        <ele>43.3966064</ele>
        <time>2012-10-07T13:18:50Z</time>
      </trkpt>
      <trkpt lat="50.29975" lon="3.30763">
        <ele>43.3966064</ele>
        <time>2012-10-07T13:18:57Z</time>
      </trkpt>
      <trkpt lat="50.29964" lon="3.30785">
        <ele>43.3966064</ele>
        <time>2012-10-07T13:19:04Z</time>
      </trkpt>
      <trkpt lat="50.29954" lon="3.308">
        <ele>42.9160156</ele>
        <time>2012-10-07T13:19:08Z</time>
      </trkpt>
      <trkpt lat="50.29929" lon="3.30815">
        <ele>42.4354248</ele>
        <time>2012-10-07T13:19:14Z</time>
      </trkpt>
      <trkpt lat="50.2988" lon="3.30845">
        <ele>41.473999</ele>
        <time>2012-10-07T13:19:24Z</time>
      </trkpt>
      <trkpt lat="50.29865" lon="3.30852">
        <ele>41.473999</ele>
        <time>2012-10-07T13:19:27Z</time>
      </trkpt>
      <trkpt lat="50.2984" lon="3.30867">
        <ele>41.473999</ele>
        <time>2012-10-07T13:19:32Z</time>
      </trkpt>
      <trkpt lat="50.29792" lon="3.30883">
        <ele>40.9934082</ele>
        <time>2012-10-07T13:19:41Z</time>
      </trkpt>
      <trkpt lat="50.29756" lon="3.30899">
        <ele>40.9934082</ele>
        <time>2012-10-07T13:19:48Z</time>
      </trkpt>
      <trkpt lat="50.29716" lon="3.30922">
        <ele>40.9934082</ele>
        <time>2012-10-07T13:19:56Z</time>
      </trkpt>
      <trkpt lat="50.29685" lon="3.30947">
        <ele>41.473999</ele>
        <time>2012-10-07T13:20:03Z</time>
      </trkpt>
      <trkpt lat="50.29648" lon="3.30986">
        <ele>41.473999</ele>
        <time>2012-10-07T13:20:12Z</time>
      </trkpt>
      <trkpt lat="50.29606" lon="3.31038">
        <ele>42.9160156</ele>
        <time>2012-10-07T13:20:23Z</time>
      </trkpt>
      <trkpt lat="50.2957" lon="3.31082">
        <ele>45.3192139</ele>
        <time>2012-10-07T13:20:32Z</time>
      </trkpt>
      <trkpt lat="50.29546" lon="3.31121">
        <ele>45.7999268</ele>
        <time>2012-10-07T13:20:39Z</time>
      </trkpt>
      <trkpt lat="50.29536" lon="3.31168">
        <ele>43.8773193</ele>
        <time>2012-10-07T13:20:45Z</time>
      </trkpt>
      <trkpt lat="50.29527" lon="3.31265">
        <ele>38.109375</ele>
        <time>2012-10-07T13:20:56Z</time>
      </trkpt>
      <trkpt lat="50.29523" lon="3.31331">
        <ele>39.0706787</ele>
        <time>2012-10-07T13:21:03Z</time>
      </trkpt>
      <trkpt lat="50.29522" lon="3.31377">
        <ele>39.5512695</ele>
        <time>2012-10-07T13:21:08Z</time>
      </trkpt>
      <trkpt lat="50.29519" lon="3.31444">
        <ele>38.109375</ele>
        <time>2012-10-07T13:21:15Z</time>
      </trkpt>
      <trkpt lat="50.29516" lon="3.31513">
        <ele>36.1867676</ele>
        <time>2012-10-07T13:21:22Z</time>
      </trkpt>
      <trkpt lat="50.29512" lon="3.31593">
        <ele>35.2254639</ele>
        <time>2012-10-07T13:21:30Z</time>
      </trkpt>
      <trkpt lat="50.29508" lon="3.31641">
        <ele>35.2254639</ele>
        <time>2012-10-07T13:21:35Z</time>
      </trkpt>
      <trkpt lat="50.29505" lon="3.31699">
        <ele>35.2254639</ele>
        <time>2012-10-07T13:21:42Z</time>
      </trkpt>
      <trkpt lat="50.29501" lon="3.31761">
        <ele>29.9381104</ele>
        <time>2012-10-07T13:21:49Z</time>
      </trkpt>
      <trkpt lat="50.29497" lon="3.31833">
        <ele>31.8607178</ele>
        <time>2012-10-07T13:21:57Z</time>
      </trkpt>
      <trkpt lat="50.29497" lon="3.31851">
        <ele>33.3028564</ele>
        <time>2012-10-07T13:21:59Z</time>
      </trkpt>
      <trkpt lat="50.29494" lon="3.31915">
        <ele>31.8607178</ele>
        <time>2012-10-07T13:22:06Z</time>
      </trkpt>
      <trkpt lat="50.2949" lon="3.31969">
        <ele>30.8995361</ele>
        <time>2012-10-07T13:22:12Z</time>
      </trkpt>
      <trkpt lat="50.29489" lon="3.31978">
        <ele>30.4188232</ele>
        <time>2012-10-07T13:22:13Z</time>
      </trkpt>
      <trkpt lat="50.29472" lon="3.32016">
        <ele>29.9381104</ele>
        <time>2012-10-07T13:22:18Z</time>
      </trkpt>
      <trkpt lat="50.29457" lon="3.32018">
        <ele>30.4188232</ele>
        <time>2012-10-07T13:22:21Z</time>
      </trkpt>
      <trkpt lat="50.29433" lon="3.31999">
        <ele>33.7834473</ele>
        <time>2012-10-07T13:22:27Z</time>
      </trkpt>
      <trkpt lat="50.29392" lon="3.31967">
        <ele>34.2641602</ele>
        <time>2012-10-07T13:22:36Z</time>
      </trkpt>
      <trkpt lat="50.29352" lon="3.31947">
        <ele>36.6674805</ele>
        <time>2012-10-07T13:22:44Z</time>
      </trkpt>
      <trkpt lat="50.29307" lon="3.31939">
        <ele>40.0321045</ele>
        <time>2012-10-07T13:22:52Z</time>
      </trkpt>
      <trkpt lat="50.2929" lon="3.31935">
        <ele>40.5128174</ele>
        <time>2012-10-07T13:22:55Z</time>
      </trkpt>
      <trkpt lat="50.29269" lon="3.31942">
        <ele>40.9934082</ele>
        <time>2012-10-07T13:22:59Z</time>
      </trkpt>
      <trkpt lat="50.29263" lon="3.31957">
        <ele>40.5128174</ele>
        <time>2012-10-07T13:23:01Z</time>
      </trkpt>
      <trkpt lat="50.29237" lon="3.32031">
        <ele>38.109375</ele>
        <time>2012-10-07T13:23:10Z</time>
      </trkpt>
      <trkpt lat="50.29217" lon="3.32097">
        <ele>36.6674805</ele>
        <time>2012-10-07T13:23:18Z</time>
      </trkpt>
      <trkpt lat="50.29198" lon="3.32167">
        <ele>34.744873</ele>
        <time>2012-10-07T13:23:26Z</time>
      </trkpt>
      <trkpt lat="50.29189" lon="3.32201">
        <ele>33.3028564</ele>
        <time>2012-10-07T13:23:30Z</time>
      </trkpt>
      <trkpt lat="50.29187" lon="3.32218">
        <ele>34.2641602</ele>
        <time>2012-10-07T13:23:32Z</time>
      </trkpt>
      <trkpt lat="50.29183" lon="3.32235">
        <ele>34.2641602</ele>
        <time>2012-10-07T13:23:34Z</time>
      </trkpt>
      <trkpt lat="50.29173" lon="3.32264">
        <ele>33.7834473</ele>
        <time>2012-10-07T13:23:38Z</time>
      </trkpt>
      <trkpt lat="50.2916" lon="3.32283">
        <ele>33.7834473</ele>
        <time>2012-10-07T13:23:41Z</time>
      </trkpt>
      <trkpt lat="50.29137" lon="3.32306">
        <ele>34.744873</ele>
        <time>2012-10-07T13:23:46Z</time>
      </trkpt>
      <trkpt lat="50.29113" lon="3.32308">
        <ele>38.109375</ele>
        <time>2012-10-07T13:23:51Z</time>
      </trkpt>
      <trkpt lat="50.291" lon="3.32308">
        <ele>38.5900879</ele>
        <time>2012-10-07T13:23:54Z</time>
      </trkpt>
      <trkpt lat="50.29063" lon="3.32311">
        <ele>38.5900879</ele>
        <time>2012-10-07T13:24:02Z</time>
      </trkpt>
      <trkpt lat="50.29035" lon="3.32316">
        <ele>39.5512695</ele>
        <time>2012-10-07T13:24:08Z</time>
      </trkpt>
      <trkpt lat="50.2903" lon="3.32317">
        <ele>39.5512695</ele>
        <time>2012-10-07T13:24:09Z</time>
      </trkpt>
      <trkpt lat="50.29008" lon="3.32318">
        <ele>38.109375</ele>
        <time>2012-10-07T13:24:13Z</time>
      </trkpt>
      <trkpt lat="50.28961" lon="3.32317">
        <ele>37.1480713</ele>
        <time>2012-10-07T13:24:22Z</time>
      </trkpt>
      <trkpt lat="50.28931" lon="3.32319">
        <ele>38.109375</ele>
        <time>2012-10-07T13:24:28Z</time>
      </trkpt>
      <trkpt lat="50.28898" lon="3.32325">
        <ele>40.0321045</ele>
        <time>2012-10-07T13:24:35Z</time>
      </trkpt>
      <trkpt lat="50.28867" lon="3.32333">
        <ele>43.8773193</ele>
        <time>2012-10-07T13:24:42Z</time>
      </trkpt>
      <trkpt lat="50.28858" lon="3.32337">
        <ele>44.3580322</ele>
        <time>2012-10-07T13:24:44Z</time>
      </trkpt>
      <trkpt lat="50.28841" lon="3.32337">
        <ele>41.9547119</ele>
        <time>2012-10-07T13:24:47Z</time>
      </trkpt>
      <trkpt lat="50.2883" lon="3.32335">
        <ele>40.5128174</ele>
        <time>2012-10-07T13:24:49Z</time>
      </trkpt>
      <trkpt lat="50.2882" lon="3.32335">
        <ele>41.473999</ele>
        <time>2012-10-07T13:24:51Z</time>
      </trkpt>
      <trkpt lat="50.28791" lon="3.32325">
        <ele>39.0706787</ele>
        <time>2012-10-07T13:24:56Z</time>
      </trkpt>
      <trkpt lat="50.28771" lon="3.32315">
        <ele>39.5512695</ele>
        <time>2012-10-07T13:25:00Z</time>
      </trkpt>
      <trkpt lat="50.28735" lon="3.32294">
        <ele>39.0706787</ele>
        <time>2012-10-07T13:25:08Z</time>
      </trkpt>
      <trkpt lat="50.28699" lon="3.32269">
        <ele>37.6286621</ele>
        <time>2012-10-07T13:25:16Z</time>
      </trkpt>
      <trkpt lat="50.28695" lon="3.32265">
        <ele>37.6286621</ele>
        <time>2012-10-07T13:25:17Z</time>
      </trkpt>
      <trkpt lat="50.28682" lon="3.32258">
        <ele>37.6286621</ele>
        <time>2012-10-07T13:25:20Z</time>
      </trkpt>
      <trkpt lat="50.28653" lon="3.32244">
        <ele>36.6674805</ele>
        <time>2012-10-07T13:25:26Z</time>
      </trkpt>
      <trkpt lat="50.28642" lon="3.32245">
        <ele>37.1480713</ele>
        <time>2012-10-07T13:25:30Z</time>
      </trkpt>
      <trkpt lat="50.28635" lon="3.32263">
        <ele>36.1867676</ele>
        <time>2012-10-07T13:25:35Z</time>
      </trkpt>
      <trkpt lat="50.28633" lon="3.32268">
        <ele>36.1867676</ele>
        <time>2012-10-07T13:25:36Z</time>
      </trkpt>
      <trkpt lat="50.28614" lon="3.32317">
        <ele>32.3415527</ele>
        <time>2012-10-07T13:25:45Z</time>
      </trkpt>
      <trkpt lat="50.286" lon="3.32352">
        <ele>32.3415527</ele>
        <time>2012-10-07T13:25:51Z</time>
      </trkpt>
      <trkpt lat="50.28598" lon="3.32359">
        <ele>32.3415527</ele>
        <time>2012-10-07T13:25:52Z</time>
      </trkpt>
      <trkpt lat="50.28583" lon="3.32399">
        <ele>32.3415527</ele>
        <time>2012-10-07T13:25:58Z</time>
      </trkpt>
      <trkpt lat="50.28579" lon="3.32421">
        <ele>32.8222656</ele>
        <time>2012-10-07T13:26:01Z</time>
      </trkpt>
      <trkpt lat="50.28584" lon="3.32445">
        <ele>32.8222656</ele>
        <time>2012-10-07T13:26:04Z</time>
      </trkpt>
      <trkpt lat="50.28598" lon="3.3247">
        <ele>32.3415527</ele>
        <time>2012-10-07T13:26:08Z</time>
      </trkpt>
      <trkpt lat="50.28603" lon="3.32474">
        <ele>32.3415527</ele>
        <time>2012-10-07T13:26:09Z</time>
      </trkpt>
      <trkpt lat="50.28625" lon="3.325">
        <ele>32.3415527</ele>
        <time>2012-10-07T13:26:14Z</time>
      </trkpt>
      <trkpt lat="50.28652" lon="3.32564">
        <ele>31.8607178</ele>
        <time>2012-10-07T13:26:23Z</time>
      </trkpt>
      <trkpt lat="50.28681" lon="3.32619">
        <ele>30.8995361</ele>
        <time>2012-10-07T13:26:31Z</time>
      </trkpt>
      <trkpt lat="50.28684" lon="3.32626">
        <ele>30.4188232</ele>
        <time>2012-10-07T13:26:32Z</time>
      </trkpt>
      <trkpt lat="50.28691" lon="3.32651">
        <ele>29.9381104</ele>
        <time>2012-10-07T13:26:35Z</time>
      </trkpt>
      <trkpt lat="50.28703" lon="3.32682">
        <ele>29.4575195</ele>
        <time>2012-10-07T13:26:39Z</time>
      </trkpt>
      <trkpt lat="50.28741" lon="3.32741">
        <ele>28.9769287</ele>
        <time>2012-10-07T13:26:48Z</time>
      </trkpt>
      <trkpt lat="50.28772" lon="3.32785">
        <ele>29.4575195</ele>
        <time>2012-10-07T13:26:55Z</time>
      </trkpt>
      <trkpt lat="50.28804" lon="3.32827">
        <ele>31.380127</ele>
        <time>2012-10-07T13:27:02Z</time>
      </trkpt>
      <trkpt lat="50.2883" lon="3.32864">
        <ele>32.8222656</ele>
        <time>2012-10-07T13:27:08Z</time>
      </trkpt>
      <trkpt lat="50.28855" lon="3.32897">
        <ele>32.3415527</ele>
        <time>2012-10-07T13:27:14Z</time>
      </trkpt>
      <trkpt lat="50.28889" lon="3.32943">
        <ele>32.3415527</ele>
        <time>2012-10-07T13:27:22Z</time>
      </trkpt>
      <trkpt lat="50.28917" lon="3.32985">
        <ele>32.8222656</ele>
        <time>2012-10-07T13:27:29Z</time>
      </trkpt>
      <trkpt lat="50.28956" lon="3.3304">
        <ele>32.8222656</ele>
        <time>2012-10-07T13:27:38Z</time>
      </trkpt>
      <trkpt lat="50.28991" lon="3.33088">
        <ele>33.7834473</ele>
        <time>2012-10-07T13:27:46Z</time>
      </trkpt>
      <trkpt lat="50.2903" lon="3.33142">
        <ele>33.7834473</ele>
        <time>2012-10-07T13:27:55Z</time>
      </trkpt>
      <trkpt lat="50.29069" lon="3.33198">
        <ele>33.7834473</ele>
        <time>2012-10-07T13:28:04Z</time>
      </trkpt>
      <trkpt lat="50.29114" lon="3.33259">
        <ele>33.7834473</ele>
        <time>2012-10-07T13:28:14Z</time>
      </trkpt>
      <trkpt lat="50.29149" lon="3.33309">
        <ele>34.2641602</ele>
        <time>2012-10-07T13:28:22Z</time>
      </trkpt>
      <trkpt lat="50.29163" lon="3.33329">
        <ele>34.2641602</ele>
        <time>2012-10-07T13:28:25Z</time>
      </trkpt>
      <trkpt lat="50.29205" lon="3.33385">
        <ele>34.2641602</ele>
        <time>2012-10-07T13:28:34Z</time>
      </trkpt>
      <trkpt lat="50.29255" lon="3.33456">
        <ele>34.744873</ele>
        <time>2012-10-07T13:28:45Z</time>
      </trkpt>
      <trkpt lat="50.29264" lon="3.33467">
        <ele>34.744873</ele>
        <time>2012-10-07T13:28:47Z</time>
      </trkpt>
      <trkpt lat="50.29299" lon="3.33515">
        <ele>34.2641602</ele>
        <time>2012-10-07T13:28:55Z</time>
      </trkpt>
      <trkpt lat="50.2934" lon="3.33571">
        <ele>35.2254639</ele>
        <time>2012-10-07T13:29:04Z</time>
      </trkpt>
      <trkpt lat="50.2938" lon="3.33627">
        <ele>34.2641602</ele>
        <time>2012-10-07T13:29:13Z</time>
      </trkpt>
      <trkpt lat="50.29411" lon="3.33669">
        <ele>32.8222656</ele>
        <time>2012-10-07T13:29:20Z</time>
      </trkpt>
      <trkpt lat="50.29448" lon="3.33717">
        <ele>32.3415527</ele>
        <time>2012-10-07T13:29:28Z</time>
      </trkpt>
      <trkpt lat="50.29488" lon="3.33773">
        <ele>30.4188232</ele>
        <time>2012-10-07T13:29:37Z</time>
      </trkpt>
      <trkpt lat="50.2953" lon="3.33829">
        <ele>32.3415527</ele>
        <time>2012-10-07T13:29:46Z</time>
      </trkpt>
      <trkpt lat="50.29572" lon="3.33884">
        <ele>34.2641602</ele>
        <time>2012-10-07T13:29:55Z</time>
      </trkpt>
      <trkpt lat="50.29617" lon="3.33945">
        <ele>32.8222656</ele>
        <time>2012-10-07T13:30:05Z</time>
      </trkpt>
      <trkpt lat="50.29631" lon="3.33964">
        <ele>32.3415527</ele>
        <time>2012-10-07T13:30:08Z</time>
      </trkpt>
      <trkpt lat="50.29652" lon="3.33978">
        <ele>32.8222656</ele>
        <time>2012-10-07T13:30:12Z</time>
      </trkpt>
      <trkpt lat="50.29663" lon="3.33981">
        <ele>32.8222656</ele>
        <time>2012-10-07T13:30:14Z</time>
      </trkpt>
      <trkpt lat="50.29682" lon="3.33999">
        <ele>31.380127</ele>
        <time>2012-10-07T13:30:18Z</time>
      </trkpt>
      <trkpt lat="50.29708" lon="3.34048">
        <ele>32.3415527</ele>
        <time>2012-10-07T13:30:25Z</time>
      </trkpt>
      <trkpt lat="50.29737" lon="3.34104">
        <ele>33.3028564</ele>
        <time>2012-10-07T13:30:32Z</time>
      </trkpt>
      <trkpt lat="50.29772" lon="3.34168">
        <ele>33.7834473</ele>
        <time>2012-10-07T13:30:41Z</time>
      </trkpt>
      <trkpt lat="50.29798" lon="3.34216">
        <ele>34.2641602</ele>
        <time>2012-10-07T13:30:48Z</time>
      </trkpt>
      <trkpt lat="50.29814" lon="3.34247">
        <ele>36.6674805</ele>
        <time>2012-10-07T13:30:53Z</time>
      </trkpt>
      <trkpt lat="50.29828" lon="3.3429">
        <ele>35.2254639</ele>
        <time>2012-10-07T13:30:59Z</time>
      </trkpt>
      <trkpt lat="50.29833" lon="3.34304">
        <ele>36.6674805</ele>
        <time>2012-10-07T13:31:01Z</time>
      </trkpt>
      <trkpt lat="50.29837" lon="3.34336">
        <ele>38.109375</ele>
        <time>2012-10-07T13:31:05Z</time>
      </trkpt>
      <trkpt lat="50.29837" lon="3.34352">
        <ele>37.6286621</ele>
        <time>2012-10-07T13:31:07Z</time>
      </trkpt>
      <trkpt lat="50.29844" lon="3.34384">
        <ele>37.6286621</ele>
        <time>2012-10-07T13:31:11Z</time>
      </trkpt>
      <trkpt lat="50.2987" lon="3.34434">
        <ele>37.6286621</ele>
        <time>2012-10-07T13:31:19Z</time>
      </trkpt>
      <trkpt lat="50.29879" lon="3.34454">
        <ele>37.6286621</ele>
        <time>2012-10-07T13:31:22Z</time>
      </trkpt>
      <trkpt lat="50.29896" lon="3.34477">
        <ele>36.6674805</ele>
        <time>2012-10-07T13:31:26Z</time>
      </trkpt>
      <trkpt lat="50.29916" lon="3.34507">
        <ele>35.7060547</ele>
        <time>2012-10-07T13:31:31Z</time>
      </trkpt>
      <trkpt lat="50.29946" lon="3.34563">
        <ele>35.7060547</ele>
        <time>2012-10-07T13:31:40Z</time>
      </trkpt>
      <trkpt lat="50.29967" lon="3.34607">
        <ele>35.2254639</ele>
        <time>2012-10-07T13:31:47Z</time>
      </trkpt>
      <trkpt lat="50.29994" lon="3.34649">
        <ele>33.3028564</ele>
        <time>2012-10-07T13:31:54Z</time>
      </trkpt>
      <trkpt lat="50.30025" lon="3.34704">
        <ele>33.3028564</ele>
        <time>2012-10-07T13:32:02Z</time>
      </trkpt>
      <trkpt lat="50.30049" lon="3.34738">
        <ele>32.8222656</ele>
        <time>2012-10-07T13:32:08Z</time>
      </trkpt>
      <trkpt lat="50.30053" lon="3.34743">
        <ele>32.8222656</ele>
        <time>2012-10-07T13:32:09Z</time>
      </trkpt>
      <trkpt lat="50.30083" lon="3.34789">
        <ele>33.3028564</ele>
        <time>2012-10-07T13:32:17Z</time>
      </trkpt>
      <trkpt lat="50.30086" lon="3.34795">
        <ele>32.8222656</ele>
        <time>2012-10-07T13:32:18Z</time>
      </trkpt>
      <trkpt lat="50.30103" lon="3.3481">
        <ele>32.3415527</ele>
        <time>2012-10-07T13:32:22Z</time>
      </trkpt>
      <trkpt lat="50.30116" lon="3.34813">
        <ele>31.8607178</ele>
        <time>2012-10-07T13:32:25Z</time>
      </trkpt>
      <trkpt lat="50.30136" lon="3.34827">
        <ele>32.3415527</ele>
        <time>2012-10-07T13:32:30Z</time>
      </trkpt>
      <trkpt lat="50.30156" lon="3.34851">
        <ele>33.7834473</ele>
        <time>2012-10-07T13:32:36Z</time>
      </trkpt>
      <trkpt lat="50.30174" lon="3.34872">
        <ele>34.744873</ele>
        <time>2012-10-07T13:32:41Z</time>
      </trkpt>
      <trkpt lat="50.30201" lon="3.34905">
        <ele>34.2641602</ele>
        <time>2012-10-07T13:32:48Z</time>
      </trkpt>
      <trkpt lat="50.30213" lon="3.34916">
        <ele>34.744873</ele>
        <time>2012-10-07T13:32:51Z</time>
      </trkpt>
      <trkpt lat="50.3022" lon="3.3492">
        <ele>34.744873</ele>
        <time>2012-10-07T13:32:53Z</time>
      </trkpt>
      <trkpt lat="50.3024" lon="3.34928">
        <ele>35.2254639</ele>
        <time>2012-10-07T13:32:57Z</time>
      </trkpt>
      <trkpt lat="50.30256" lon="3.34931">
        <ele>35.2254639</ele>
        <time>2012-10-07T13:33:00Z</time>
      </trkpt>
      <trkpt lat="50.30264" lon="3.34942">
        <ele>35.2254639</ele>
        <time>2012-10-07T13:33:04Z</time>
      </trkpt>
      <trkpt lat="50.30258" lon="3.34955">
        <ele>35.7060547</ele>
        <time>2012-10-07T13:33:08Z</time>
      </trkpt>
      <trkpt lat="50.30233" lon="3.34977">
        <ele>37.1480713</ele>
        <time>2012-10-07T13:33:15Z</time>
      </trkpt>
      <trkpt lat="50.30204" lon="3.35003">
        <ele>40.5128174</ele>
        <time>2012-10-07T13:33:23Z</time>
      </trkpt>
      <trkpt lat="50.30178" lon="3.35029">
        <ele>41.473999</ele>
        <time>2012-10-07T13:33:31Z</time>
      </trkpt>
      <trkpt lat="50.30153" lon="3.35052">
        <ele>40.9934082</ele>
        <time>2012-10-07T13:33:38Z</time>
      </trkpt>
      <trkpt lat="50.30121" lon="3.35093">
        <ele>38.109375</ele>
        <time>2012-10-07T13:33:46Z</time>
      </trkpt>
      <trkpt lat="50.3011" lon="3.35108">
        <ele>38.109375</ele>
        <time>2012-10-07T13:33:49Z</time>
      </trkpt>
      <trkpt lat="50.30111" lon="3.35115">
        <ele>37.6286621</ele>
        <time>2012-10-07T13:33:53Z</time>
      </trkpt>
      <trkpt lat="50.30112" lon="3.35113">
        <ele>37.6286621</ele>
        <time>2012-10-07T13:33:54Z</time>
      </trkpt>
      <trkpt lat="50.30121" lon="3.35106">
        <ele>33.7834473</ele>
        <time>2012-10-07T13:33:58Z</time>
      </trkpt>
      <trkpt lat="50.30129" lon="3.35104">
        <ele>33.7834473</ele>
        <time>2012-10-07T13:34:04Z</time>
      </trkpt>
      <trkpt lat="50.30137" lon="3.35104">
        <ele>32.8222656</ele>
        <time>2012-10-07T13:34:07Z</time>
      </trkpt>
      <trkpt lat="50.30144" lon="3.35116">
        <ele>32.8222656</ele>
        <time>2012-10-07T13:34:11Z</time>
      </trkpt>
      <trkpt lat="50.30145" lon="3.35121">
        <ele>32.8222656</ele>
        <time>2012-10-07T13:34:12Z</time>
      </trkpt>
      <trkpt lat="50.30151" lon="3.35159">
        <ele>33.3028564</ele>
        <time>2012-10-07T13:34:18Z</time>
      </trkpt>
      <trkpt lat="50.30148" lon="3.35179">
        <ele>34.2641602</ele>
        <time>2012-10-07T13:34:21Z</time>
      </trkpt>
      <trkpt lat="50.30139" lon="3.35197">
        <ele>35.7060547</ele>
        <time>2012-10-07T13:34:25Z</time>
      </trkpt>
      <trkpt lat="50.30122" lon="3.35221">
        <ele>37.1480713</ele>
        <time>2012-10-07T13:34:31Z</time>
      </trkpt>
      <trkpt lat="50.30108" lon="3.35236">
        <ele>39.0706787</ele>
        <time>2012-10-07T13:34:35Z</time>
      </trkpt>
      <trkpt lat="50.30105" lon="3.3524">
        <ele>39.5512695</ele>
        <time>2012-10-07T13:34:36Z</time>
      </trkpt>
      <trkpt lat="50.30095" lon="3.35254">
        <ele>40.0321045</ele>
        <time>2012-10-07T13:34:39Z</time>
      </trkpt>
      <trkpt lat="50.30087" lon="3.35269">
        <ele>41.473999</ele>
        <time>2012-10-07T13:34:43Z</time>
      </trkpt>
      <trkpt lat="50.30083" lon="3.35283">
        <ele>41.473999</ele>
        <time>2012-10-07T13:34:47Z</time>
      </trkpt>
      <trkpt lat="50.30094" lon="3.3531">
        <ele>41.473999</ele>
        <time>2012-10-07T13:34:53Z</time>
      </trkpt>
      <trkpt lat="50.30113" lon="3.35337">
        <ele>42.4354248</ele>
        <time>2012-10-07T13:34:59Z</time>
      </trkpt>
      <trkpt lat="50.30127" lon="3.35354">
        <ele>41.473999</ele>
        <time>2012-10-07T13:35:03Z</time>
      </trkpt>
      <trkpt lat="50.30148" lon="3.35362">
        <ele>39.5512695</ele>
        <time>2012-10-07T13:35:08Z</time>
      </trkpt>
      <trkpt lat="50.30163" lon="3.35365">
        <ele>38.5900879</ele>
        <time>2012-10-07T13:35:11Z</time>
      </trkpt>
      <trkpt lat="50.30178" lon="3.35373">
        <ele>38.5900879</ele>
        <time>2012-10-07T13:35:14Z</time>
      </trkpt>
      <trkpt lat="50.30197" lon="3.35378">
        <ele>36.6674805</ele>
        <time>2012-10-07T13:35:18Z</time>
      </trkpt>
      <trkpt lat="50.3023" lon="3.3537">
        <ele>38.109375</ele>
        <time>2012-10-07T13:35:24Z</time>
      </trkpt>
      <trkpt lat="50.30252" lon="3.35354">
        <ele>38.5900879</ele>
        <time>2012-10-07T13:35:28Z</time>
      </trkpt>
      <trkpt lat="50.30285" lon="3.3531">
        <ele>37.1480713</ele>
        <time>2012-10-07T13:35:35Z</time>
      </trkpt>
      <trkpt lat="50.30299" lon="3.35301">
        <ele>34.2641602</ele>
        <time>2012-10-07T13:35:38Z</time>
      </trkpt>
      <trkpt lat="50.30312" lon="3.353">
        <ele>31.8607178</ele>
        <time>2012-10-07T13:35:43Z</time>
      </trkpt>
      <trkpt lat="50.30317" lon="3.35304">
        <ele>31.8607178</ele>
        <time>2012-10-07T13:35:45Z</time>
      </trkpt>
      <trkpt lat="50.30335" lon="3.35331">
        <ele>31.380127</ele>
        <time>2012-10-07T13:35:51Z</time>
      </trkpt>
      <trkpt lat="50.30362" lon="3.35378">
        <ele>30.4188232</ele>
        <time>2012-10-07T13:35:59Z</time>
      </trkpt>
      <trkpt lat="50.30395" lon="3.35433">
        <ele>29.9381104</ele>
        <time>2012-10-07T13:36:08Z</time>
      </trkpt>
      <trkpt lat="50.30432" lon="3.35498">
        <ele>29.4575195</ele>
        <time>2012-10-07T13:36:18Z</time>
      </trkpt>
      <trkpt lat="50.30473" lon="3.35567">
        <ele>28.4962158</ele>
        <time>2012-10-07T13:36:29Z</time>
      </trkpt>
      <trkpt lat="50.30501" lon="3.35613">
        <ele>28.0155029</ele>
        <time>2012-10-07T13:36:36Z</time>
      </trkpt>
      <trkpt lat="50.30535" lon="3.35669">
        <ele>27.0543213</ele>
        <time>2012-10-07T13:36:44Z</time>
      </trkpt>
      <trkpt lat="50.30568" lon="3.35724">
        <ele>27.5349121</ele>
        <time>2012-10-07T13:36:52Z</time>
      </trkpt>
      <trkpt lat="50.30607" lon="3.35793">
        <ele>28.4962158</ele>
        <time>2012-10-07T13:37:02Z</time>
      </trkpt>
      <trkpt lat="50.30641" lon="3.35856">
        <ele>28.9769287</ele>
        <time>2012-10-07T13:37:11Z</time>
      </trkpt>
      <trkpt lat="50.30666" lon="3.35908">
        <ele>28.9769287</ele>
        <time>2012-10-07T13:37:18Z</time>
      </trkpt>
      <trkpt lat="50.30699" lon="3.35982">
        <ele>27.0543213</ele>
        <time>2012-10-07T13:37:28Z</time>
      </trkpt>
      <trkpt lat="50.30737" lon="3.36073">
        <ele>24.651001</ele>
        <time>2012-10-07T13:37:40Z</time>
      </trkpt>
      <trkpt lat="50.3076" lon="3.36135">
        <ele>23.6895752</ele>
        <time>2012-10-07T13:37:48Z</time>
      </trkpt>
      <trkpt lat="50.30778" lon="3.36183">
        <ele>22.7282715</ele>
        <time>2012-10-07T13:37:54Z</time>
      </trkpt>
      <trkpt lat="50.30803" lon="3.36259">
        <ele>21.7669678</ele>
        <time>2012-10-07T13:38:03Z</time>
      </trkpt>
      <trkpt lat="50.3083" lon="3.36341">
        <ele>21.7669678</ele>
        <time>2012-10-07T13:38:13Z</time>
      </trkpt>
      <trkpt lat="50.30852" lon="3.36418">
        <ele>20.3249512</ele>
        <time>2012-10-07T13:38:22Z</time>
      </trkpt>
      <trkpt lat="50.30879" lon="3.3651">
        <ele>18.4023438</ele>
        <time>2012-10-07T13:38:33Z</time>
      </trkpt>
      <trkpt lat="50.30904" lon="3.36597">
        <ele>17.9217529</ele>
        <time>2012-10-07T13:38:43Z</time>
      </trkpt>
      <trkpt lat="50.30915" lon="3.36631">
        <ele>18.8830566</ele>
        <time>2012-10-07T13:38:47Z</time>
      </trkpt>
      <trkpt lat="50.30952" lon="3.36696">
        <ele>18.8830566</ele>
        <time>2012-10-07T13:38:56Z</time>
      </trkpt>
      <trkpt lat="50.30956" lon="3.36703">
        <ele>18.8830566</ele>
        <time>2012-10-07T13:38:57Z</time>
      </trkpt>
      <trkpt lat="50.30976" lon="3.36752">
        <ele>17.9217529</ele>
        <time>2012-10-07T13:39:03Z</time>
      </trkpt>
      <trkpt lat="50.30978" lon="3.36788">
        <ele>18.4023438</ele>
        <time>2012-10-07T13:39:07Z</time>
      </trkpt>
      <trkpt lat="50.30976" lon="3.36807">
        <ele>18.8830566</ele>
        <time>2012-10-07T13:39:09Z</time>
      </trkpt>
      <trkpt lat="50.30982" lon="3.36853">
        <ele>19.8443604</ele>
        <time>2012-10-07T13:39:14Z</time>
      </trkpt>
      <trkpt lat="50.30993" lon="3.36919">
        <ele>21.7669678</ele>
        <time>2012-10-07T13:39:21Z</time>
      </trkpt>
      <trkpt lat="50.31017" lon="3.37021">
        <ele>23.2089844</ele>
        <time>2012-10-07T13:39:32Z</time>
      </trkpt>
      <trkpt lat="50.31035" lon="3.37109">
        <ele>22.2475586</ele>
        <time>2012-10-07T13:39:41Z</time>
      </trkpt>
      <trkpt lat="50.31051" lon="3.37177">
        <ele>23.6895752</ele>
        <time>2012-10-07T13:39:48Z</time>
      </trkpt>
      <trkpt lat="50.31063" lon="3.37236">
        <ele>23.2089844</ele>
        <time>2012-10-07T13:39:54Z</time>
      </trkpt>
      <trkpt lat="50.31083" lon="3.37332">
        <ele>22.7282715</ele>
        <time>2012-10-07T13:40:04Z</time>
      </trkpt>
      <trkpt lat="50.31101" lon="3.37407">
        <ele>22.2475586</ele>
        <time>2012-10-07T13:40:12Z</time>
      </trkpt>
      <trkpt lat="50.3112" lon="3.37481">
        <ele>20.8056641</ele>
        <time>2012-10-07T13:40:20Z</time>
      </trkpt>
      <trkpt lat="50.31144" lon="3.37561">
        <ele>20.3249512</ele>
        <time>2012-10-07T13:40:29Z</time>
      </trkpt>
      <trkpt lat="50.31166" lon="3.3763">
        <ele>19.3637695</ele>
        <time>2012-10-07T13:40:37Z</time>
      </trkpt>
      <trkpt lat="50.31184" lon="3.37683">
        <ele>19.3637695</ele>
        <time>2012-10-07T13:40:43Z</time>
      </trkpt>
      <trkpt lat="50.31208" lon="3.37729">
        <ele>19.8443604</ele>
        <time>2012-10-07T13:40:49Z</time>
      </trkpt>
      <trkpt lat="50.31242" lon="3.3781">
        <ele>18.4023438</ele>
        <time>2012-10-07T13:40:59Z</time>
      </trkpt>
      <trkpt lat="50.31278" lon="3.37887">
        <ele>20.3249512</ele>
        <time>2012-10-07T13:41:09Z</time>
      </trkpt>
      <trkpt lat="50.31312" lon="3.37956">
        <ele>19.8443604</ele>
        <time>2012-10-07T13:41:18Z</time>
      </trkpt>
      <trkpt lat="50.31355" lon="3.38034">
        <ele>23.6895752</ele>
        <time>2012-10-07T13:41:29Z</time>
      </trkpt>
      <trkpt lat="50.31382" lon="3.3808">
        <ele>25.1317139</ele>
        <time>2012-10-07T13:41:36Z</time>
      </trkpt>
      <trkpt lat="50.31408" lon="3.38123">
        <ele>25.1317139</ele>
        <time>2012-10-07T13:41:43Z</time>
      </trkpt>
      <trkpt lat="50.31443" lon="3.38178">
        <ele>25.1317139</ele>
        <time>2012-10-07T13:41:52Z</time>
      </trkpt>
      <trkpt lat="50.31463" lon="3.38221">
        <ele>25.6123047</ele>
        <time>2012-10-07T13:41:58Z</time>
      </trkpt>
      <trkpt lat="50.31491" lon="3.38265">
        <ele>27.0543213</ele>
        <time>2012-10-07T13:42:05Z</time>
      </trkpt>
      <trkpt lat="50.31536" lon="3.38334">
        <ele>28.4962158</ele>
        <time>2012-10-07T13:42:16Z</time>
      </trkpt>
      <trkpt lat="50.31571" lon="3.38389">
        <ele>28.9769287</ele>
        <time>2012-10-07T13:42:25Z</time>
      </trkpt>
      <trkpt lat="50.31598" lon="3.38431">
        <ele>29.4575195</ele>
        <time>2012-10-07T13:42:32Z</time>
      </trkpt>
      <trkpt lat="50.3164" lon="3.38505">
        <ele>28.9769287</ele>
        <time>2012-10-07T13:42:43Z</time>
      </trkpt>
      <trkpt lat="50.31679" lon="3.38583">
        <ele>29.4575195</ele>
        <time>2012-10-07T13:42:54Z</time>
      </trkpt>
      <trkpt lat="50.31702" lon="3.38632">
        <ele>30.4188232</ele>
        <time>2012-10-07T13:43:01Z</time>
      </trkpt>
      <trkpt lat="50.31707" lon="3.38644">
        <ele>29.9381104</ele>
        <time>2012-10-07T13:43:03Z</time>
      </trkpt>
      <trkpt lat="50.31714" lon="3.38659">
        <ele>30.4188232</ele>
        <time>2012-10-07T13:43:07Z</time>
      </trkpt>
      <trkpt lat="50.31719" lon="3.38677">
        <ele>31.380127</ele>
        <time>2012-10-07T13:43:11Z</time>
      </trkpt>
      <trkpt lat="50.31736" lon="3.38721">
        <ele>31.380127</ele>
        <time>2012-10-07T13:43:18Z</time>
      </trkpt>
      <trkpt lat="50.31756" lon="3.38783">
        <ele>30.8995361</ele>
        <time>2012-10-07T13:43:27Z</time>
      </trkpt>
      <trkpt lat="50.31759" lon="3.3879">
        <ele>30.8995361</ele>
        <time>2012-10-07T13:43:28Z</time>
      </trkpt>
      <trkpt lat="50.31771" lon="3.38842">
        <ele>30.4188232</ele>
        <time>2012-10-07T13:43:35Z</time>
      </trkpt>
      <trkpt lat="50.31785" lon="3.38886">
        <ele>30.8995361</ele>
        <time>2012-10-07T13:43:42Z</time>
      </trkpt>
      <trkpt lat="50.31791" lon="3.38908">
        <ele>30.4188232</ele>
        <time>2012-10-07T13:43:45Z</time>
      </trkpt>
      <trkpt lat="50.31802" lon="3.38961">
        <ele>29.9381104</ele>
        <time>2012-10-07T13:43:53Z</time>
      </trkpt>
      <trkpt lat="50.31823" lon="3.39046">
        <ele>30.4188232</ele>
        <time>2012-10-07T13:44:04Z</time>
      </trkpt>
      <trkpt lat="50.31827" lon="3.39083">
        <ele>30.4188232</ele>
        <time>2012-10-07T13:44:09Z</time>
      </trkpt>
      <trkpt lat="50.31837" lon="3.39113">
        <ele>29.9381104</ele>
        <time>2012-10-07T13:44:13Z</time>
      </trkpt>
      <trkpt lat="50.31851" lon="3.39133">
        <ele>28.0155029</ele>
        <time>2012-10-07T13:44:16Z</time>
      </trkpt>
      <trkpt lat="50.31863" lon="3.39167">
        <ele>27.5349121</ele>
        <time>2012-10-07T13:44:20Z</time>
      </trkpt>
      <trkpt lat="50.31875" lon="3.39211">
        <ele>27.0543213</ele>
        <time>2012-10-07T13:44:26Z</time>
      </trkpt>
      <trkpt lat="50.31877" lon="3.39239">
        <ele>28.0155029</ele>
        <time>2012-10-07T13:44:31Z</time>
      </trkpt>
      <trkpt lat="50.31892" lon="3.39292">
        <ele>30.4188232</ele>
        <time>2012-10-07T13:44:39Z</time>
      </trkpt>
      <trkpt lat="50.3191" lon="3.39363">
        <ele>31.380127</ele>
        <time>2012-10-07T13:44:48Z</time>
      </trkpt>
      <trkpt lat="50.31927" lon="3.39428">
        <ele>31.8607178</ele>
        <time>2012-10-07T13:44:56Z</time>
      </trkpt>
      <trkpt lat="50.31943" lon="3.39486">
        <ele>32.8222656</ele>
        <time>2012-10-07T13:45:03Z</time>
      </trkpt>
      <trkpt lat="50.31951" lon="3.39528">
        <ele>32.8222656</ele>
        <time>2012-10-07T13:45:08Z</time>
      </trkpt>
      <trkpt lat="50.3195" lon="3.39551">
        <ele>32.8222656</ele>
        <time>2012-10-07T13:45:11Z</time>
      </trkpt>
      <trkpt lat="50.31952" lon="3.39571">
        <ele>32.8222656</ele>
        <time>2012-10-07T13:45:16Z</time>
      </trkpt>
      <trkpt lat="50.3196" lon="3.39573">
        <ele>33.7834473</ele>
        <time>2012-10-07T13:45:21Z</time>
      </trkpt>
      <trkpt lat="50.31982" lon="3.39557">
        <ele>32.3415527</ele>
        <time>2012-10-07T13:45:28Z</time>
      </trkpt>
      <trkpt lat="50.32008" lon="3.3954">
        <ele>30.4188232</ele>
        <time>2012-10-07T13:45:35Z</time>
      </trkpt>
      <trkpt lat="50.32012" lon="3.39537">
        <ele>29.9381104</ele>
        <time>2012-10-07T13:45:36Z</time>
      </trkpt>
      <trkpt lat="50.32014" lon="3.39512">
        <ele>30.4188232</ele>
        <time>2012-10-07T13:45:40Z</time>
      </trkpt>
      <trkpt lat="50.32013" lon="3.39505">
        <ele>29.9381104</ele>
        <time>2012-10-07T13:45:41Z</time>
      </trkpt>
      <trkpt lat="50.32005" lon="3.39463">
        <ele>29.9381104</ele>
        <time>2012-10-07T13:45:46Z</time>
      </trkpt>
      <trkpt lat="50.31994" lon="3.3943">
        <ele>29.9381104</ele>
        <time>2012-10-07T13:45:50Z</time>
      </trkpt>
      <trkpt lat="50.31988" lon="3.39428">
        <ele>29.9381104</ele>
        <time>2012-10-07T13:45:53Z</time>
      </trkpt>
      <trkpt lat="50.31991" lon="3.39443">
        <ele>29.4575195</ele>
        <time>2012-10-07T13:45:56Z</time>
      </trkpt>
      <trkpt lat="50.31993" lon="3.3945">
        <ele>29.4575195</ele>
        <time>2012-10-07T13:45:57Z</time>
      </trkpt>
      <trkpt lat="50.32001" lon="3.39492">
        <ele>28.4962158</ele>
        <time>2012-10-07T13:46:02Z</time>
      </trkpt>
      <trkpt lat="50.32002" lon="3.39527">
        <ele>28.4962158</ele>
        <time>2012-10-07T13:46:06Z</time>
      </trkpt>
      <trkpt lat="50.32009" lon="3.39568">
        <ele>27.5349121</ele>
        <time>2012-10-07T13:46:11Z</time>
      </trkpt>
      <trkpt lat="50.32028" lon="3.39608">
        <ele>28.9769287</ele>
        <time>2012-10-07T13:46:17Z</time>
      </trkpt>
      <trkpt lat="50.32031" lon="3.39614">
        <ele>28.9769287</ele>
        <time>2012-10-07T13:46:18Z</time>
      </trkpt>
      <trkpt lat="50.32041" lon="3.3964">
        <ele>29.9381104</ele>
        <time>2012-10-07T13:46:22Z</time>
      </trkpt>
      <trkpt lat="50.32058" lon="3.39712">
        <ele>32.3415527</ele>
        <time>2012-10-07T13:46:31Z</time>
      </trkpt>
      <trkpt lat="50.32067" lon="3.39753">
        <ele>33.7834473</ele>
        <time>2012-10-07T13:46:36Z</time>
      </trkpt>
      <trkpt lat="50.32082" lon="3.39811">
        <ele>35.7060547</ele>
        <time>2012-10-07T13:46:43Z</time>
      </trkpt>
      <trkpt lat="50.32096" lon="3.39862">
        <ele>35.7060547</ele>
        <time>2012-10-07T13:46:49Z</time>
      </trkpt>
      <trkpt lat="50.32104" lon="3.39897">
        <ele>36.6674805</ele>
        <time>2012-10-07T13:46:53Z</time>
      </trkpt>
      <trkpt lat="50.32111" lon="3.39944">
        <ele>35.7060547</ele>
        <time>2012-10-07T13:46:58Z</time>
      </trkpt>
      <trkpt lat="50.32125" lon="3.39997">
        <ele>33.7834473</ele>
        <time>2012-10-07T13:47:04Z</time>
      </trkpt>
      <trkpt lat="50.32135" lon="3.40039">
        <ele>32.8222656</ele>
        <time>2012-10-07T13:47:09Z</time>
      </trkpt>
      <trkpt lat="50.32147" lon="3.40084">
        <ele>33.3028564</ele>
        <time>2012-10-07T13:47:14Z</time>
      </trkpt>
      <trkpt lat="50.32161" lon="3.40142">
        <ele>31.8607178</ele>
        <time>2012-10-07T13:47:21Z</time>
      </trkpt>
      <trkpt lat="50.3218" lon="3.4022">
        <ele>31.380127</ele>
        <time>2012-10-07T13:47:30Z</time>
      </trkpt>
      <trkpt lat="50.32194" lon="3.40278">
        <ele>31.8607178</ele>
        <time>2012-10-07T13:47:37Z</time>
      </trkpt>
      <trkpt lat="50.32205" lon="3.40329">
        <ele>32.3415527</ele>
        <time>2012-10-07T13:47:43Z</time>
      </trkpt>
      <trkpt lat="50.32218" lon="3.404">
        <ele>33.3028564</ele>
        <time>2012-10-07T13:47:51Z</time>
      </trkpt>
      <trkpt lat="50.32225" lon="3.40434">
        <ele>33.7834473</ele>
        <time>2012-10-07T13:47:55Z</time>
      </trkpt>
      <trkpt lat="50.32234" lon="3.40484">
        <ele>33.7834473</ele>
        <time>2012-10-07T13:48:01Z</time>
      </trkpt>
      <trkpt lat="50.32243" lon="3.40546">
        <ele>34.744873</ele>
        <time>2012-10-07T13:48:08Z</time>
      </trkpt>
      <trkpt lat="50.32247" lon="3.4057">
        <ele>35.7060547</ele>
        <time>2012-10-07T13:48:11Z</time>
      </trkpt>
      <trkpt lat="50.32254" lon="3.40611">
        <ele>35.7060547</ele>
        <time>2012-10-07T13:48:16Z</time>
      </trkpt>
      <trkpt lat="50.32263" lon="3.40664">
        <ele>35.2254639</ele>
        <time>2012-10-07T13:48:22Z</time>
      </trkpt>
      <trkpt lat="50.32274" lon="3.4072">
        <ele>36.6674805</ele>
        <time>2012-10-07T13:48:29Z</time>
      </trkpt>
      <trkpt lat="50.32285" lon="3.40722">
        <ele>38.109375</ele>
        <time>2012-10-07T13:48:33Z</time>
      </trkpt>
      <trkpt lat="50.32307" lon="3.40687">
        <ele>37.1480713</ele>
        <time>2012-10-07T13:48:40Z</time>
      </trkpt>
      <trkpt lat="50.32325" lon="3.4065">
        <ele>36.6674805</ele>
        <time>2012-10-07T13:48:46Z</time>
      </trkpt>
      <trkpt lat="50.32338" lon="3.40633">
        <ele>35.7060547</ele>
        <time>2012-10-07T13:48:49Z</time>
      </trkpt>
      <trkpt lat="50.32371" lon="3.40616">
        <ele>34.744873</ele>
        <time>2012-10-07T13:48:55Z</time>
      </trkpt>
      <trkpt lat="50.32415" lon="3.40603">
        <ele>32.8222656</ele>
        <time>2012-10-07T13:49:02Z</time>
      </trkpt>
      <trkpt lat="50.32459" lon="3.40579">
        <ele>30.8995361</ele>
        <time>2012-10-07T13:49:10Z</time>
      </trkpt>
      <trkpt lat="50.32496" lon="3.40551">
        <ele>29.9381104</ele>
        <time>2012-10-07T13:49:17Z</time>
      </trkpt>
      <trkpt lat="50.32523" lon="3.40531">
        <ele>29.4575195</ele>
        <time>2012-10-07T13:49:23Z</time>
      </trkpt>
      <trkpt lat="50.32536" lon="3.40543">
        <ele>28.4962158</ele>
        <time>2012-10-07T13:49:27Z</time>
      </trkpt>
      <trkpt lat="50.32538" lon="3.40557">
        <ele>28.9769287</ele>
        <time>2012-10-07T13:49:29Z</time>
      </trkpt>
      <trkpt lat="50.32541" lon="3.40573">
        <ele>29.4575195</ele>
        <time>2012-10-07T13:49:31Z</time>
      </trkpt>
      <trkpt lat="50.32544" lon="3.4059">
        <ele>28.9769287</ele>
        <time>2012-10-07T13:49:33Z</time>
      </trkpt>
      <trkpt lat="50.32555" lon="3.40619">
        <ele>28.9769287</ele>
        <time>2012-10-07T13:49:37Z</time>
      </trkpt>
      <trkpt lat="50.32565" lon="3.40645">
        <ele>28.9769287</ele>
        <time>2012-10-07T13:49:41Z</time>
      </trkpt>
      <trkpt lat="50.3258" lon="3.40714">
        <ele>28.4962158</ele>
        <time>2012-10-07T13:49:49Z</time>
      </trkpt>
      <trkpt lat="50.32595" lon="3.40772">
        <ele>28.4962158</ele>
        <time>2012-10-07T13:49:56Z</time>
      </trkpt>
      <trkpt lat="50.32608" lon="3.4079">
        <ele>29.4575195</ele>
        <time>2012-10-07T13:50:00Z</time>
      </trkpt>
      <trkpt lat="50.32621" lon="3.40788">
        <ele>30.4188232</ele>
        <time>2012-10-07T13:50:03Z</time>
      </trkpt>
      <trkpt lat="50.32638" lon="3.40778">
        <ele>30.8995361</ele>
        <time>2012-10-07T13:50:07Z</time>
      </trkpt>
      <trkpt lat="50.32658" lon="3.40768">
        <ele>29.9381104</ele>
        <time>2012-10-07T13:50:11Z</time>
      </trkpt>
      <trkpt lat="50.32695" lon="3.40723">
        <ele>33.3028564</ele>
        <time>2012-10-07T13:50:19Z</time>
      </trkpt>
      <trkpt lat="50.32731" lon="3.40677">
        <ele>34.2641602</ele>
        <time>2012-10-07T13:50:27Z</time>
      </trkpt>
      <trkpt lat="50.32769" lon="3.40633">
        <ele>34.744873</ele>
        <time>2012-10-07T13:50:35Z</time>
      </trkpt>
      <trkpt lat="50.32804" lon="3.40602">
        <ele>34.2641602</ele>
        <time>2012-10-07T13:50:42Z</time>
      </trkpt>
      <trkpt lat="50.32842" lon="3.40583">
        <ele>33.7834473</ele>
        <time>2012-10-07T13:50:49Z</time>
      </trkpt>
      <trkpt lat="50.32852" lon="3.40579">
        <ele>33.7834473</ele>
        <time>2012-10-07T13:50:51Z</time>
      </trkpt>
      <trkpt lat="50.32885" lon="3.40567">
        <ele>30.4188232</ele>
        <time>2012-10-07T13:50:58Z</time>
      </trkpt>
      <trkpt lat="50.329" lon="3.40563">
        <ele>29.9381104</ele>
        <time>2012-10-07T13:51:02Z</time>
      </trkpt>
      <trkpt lat="50.32913" lon="3.40575">
        <ele>30.4188232</ele>
        <time>2012-10-07T13:51:07Z</time>
      </trkpt>
      <trkpt lat="50.32913" lon="3.40581">
        <ele>30.8995361</ele>
        <time>2012-10-07T13:51:08Z</time>
      </trkpt>
      <trkpt lat="50.32915" lon="3.40618">
        <ele>31.380127</ele>
        <time>2012-10-07T13:51:13Z</time>
      </trkpt>
      <trkpt lat="50.32923" lon="3.40688">
        <ele>32.3415527</ele>
        <time>2012-10-07T13:51:21Z</time>
      </trkpt>
      <trkpt lat="50.32933" lon="3.40752">
        <ele>32.3415527</ele>
        <time>2012-10-07T13:51:28Z</time>
      </trkpt>
      <trkpt lat="50.32945" lon="3.40825">
        <ele>32.8222656</ele>
        <time>2012-10-07T13:51:36Z</time>
      </trkpt>
      <trkpt lat="50.32957" lon="3.4089">
        <ele>33.3028564</ele>
        <time>2012-10-07T13:51:43Z</time>
      </trkpt>
      <trkpt lat="50.3297" lon="3.40965">
        <ele>32.8222656</ele>
        <time>2012-10-07T13:51:51Z</time>
      </trkpt>
      <trkpt lat="50.32971" lon="3.40974">
        <ele>32.8222656</ele>
        <time>2012-10-07T13:51:52Z</time>
      </trkpt>
      <trkpt lat="50.32993" lon="3.41059">
        <ele>34.744873</ele>
        <time>2012-10-07T13:52:01Z</time>
      </trkpt>
      <trkpt lat="50.33015" lon="3.4114">
        <ele>35.2254639</ele>
        <time>2012-10-07T13:52:10Z</time>
      </trkpt>
      <trkpt lat="50.33036" lon="3.41208">
        <ele>37.6286621</ele>
        <time>2012-10-07T13:52:17Z</time>
      </trkpt>
      <trkpt lat="50.33056" lon="3.41277">
        <ele>38.5900879</ele>
        <time>2012-10-07T13:52:25Z</time>
      </trkpt>
      <trkpt lat="50.33069" lon="3.41337">
        <ele>37.6286621</ele>
        <time>2012-10-07T13:52:32Z</time>
      </trkpt>
      <trkpt lat="50.33081" lon="3.4136">
        <ele>37.1480713</ele>
        <time>2012-10-07T13:52:37Z</time>
      </trkpt>
      <trkpt lat="50.33084" lon="3.4136">
        <ele>37.1480713</ele>
        <time>2012-10-07T13:52:38Z</time>
      </trkpt>
      <trkpt lat="50.33089" lon="3.41361">
        <ele>36.1867676</ele>
        <time>2012-10-07T13:52:41Z</time>
      </trkpt>
    </trkseg>
  </trk>
</gpx>